[[{"header":{"parameterUnit":"m.s-1","parameterCategory":1,"la1":30.6,"la2":28.766,"lo1":-90.7593,"lo2":-88.6598,"dx":0.0162,"dy":0.0183,"nx":116,"ny":114,"refTime":"2022-11-28T18:00:00:Z","depth":0,"parameterNumber":2,"parameterNumberName":"U-component_of_WINDS"},"data":[0.0,0.0,0.0,0.0,0.0,0.0,0.0,0.0,0.0,0.0,0.0,0.0,0.0,0.0,0.0,0.0,0.0,0.0,0.0,0.0,0.0,0.0,0.0,0.0,0.0,0.0,0.0,0.0,0.0,0.0,0.0,0.0,0.0,0.0,0.0,0.0,0.0,0.0,0.0,0.0,0.0,0.0,0.0,0.0,0.0,0.0,0.0,0.0,0.0,0.0,0.0,0.0,0.0,0.0,0.0,0.0,0.0,0.0,0.0,0.0,0.0,0.0,0.0,0.0,0.0,0.0,0.0,0.0,0.0,0.0,0.0,0.0,0.0,0.0,0.0,0.0,0.0,0.0,0.0,0.0,0.0,0.0,0.0,0.0,0.0,0.0,0.0,0.0,0.0,0.0,0.0,0.0,0.0,0.0,0.0,0.0,0.0,0.0,0.0,0.0,0.0,0.0,0.0,0.0,0.0,0.0,0.0,0.0,0.0,0.0,0.0,0.0,0.0,0.0,0.0,0.0,0.0,0.0,0.0,0.0,0.0,0.0,0.0,0.0,0.0,0.0,0.0,0.0,0.0,0.0,0.0,0.0,0.0,0.0,0.0,0.0,0.0,0.0,0.0,0.0,0.0,0.0,0.0,0.0,0.0,0.0,0.0,0.0,0.0,0.0,0.0,0.0,0.0,0.0,0.0,0.0,0.0,0.0,0.0,0.0,0.0,0.0,0.0,0.0,0.0,0.0,0.0,0.0,0.0,0.0,0.0,0.0,0.0,0.0,0.0,0.0,0.0,0.0,0.0,0.0,0.0,0.0,0.0,0.0,0.0,0.0,0.0,0.0,0.0,0.0,0.0,0.0,0.0,0.0,0.0,0.0,0.0,0.0,0.0,0.0,0.0,0.0,0.0,0.0,0.0,0.0,0.0,0.0,0.0,0.0,0.0,0.0,0.0,0.0,0.0,0.0,0.0,0.0,0.0,0.0,0.0,0.0,0.0,0.0,0.0,0.0,0.0,0.0,0.0,0.0,0.0,0.0,0.0,0.0,0.0,0.0,0.0,0.0,0.0,0.0,0.0,0.0,0.0,0.0,0.0,0.0,0.0,0.0,0.0,0.0,0.0,0.0,0.0,0.0,0.0,0.0,0.0,0.0,0.0,0.0,0.0,0.0,0.0,0.0,0.0,0.0,0.0,0.0,0.0,0.0,0.0,0.0,0.0,0.0,0.0,0.0,0.0,0.0,0.0,0.0,0.0,0.0,0.0,0.0,0.0,0.0,0.0,0.0,0.0,0.0,0.0,0.0,0.0,0.0,0.0,0.0,0.0,0.0,0.0,0.0,0.0,0.0,0.0,0.0,0.0,0.0,0.0,0.0,0.0,0.0,0.0,0.0,0.0,0.0,0.0,0.0,0.0,0.0,0.0,0.0,0.0,0.0,0.0,0.0,0.0,0.0,0.0,0.0,0.0,0.0,0.0,0.0,0.0,0.0,0.0,0.0,0.0,0.0,0.0,0.0,0.0,0.0,0.0,0.0,0.0,0.0,0.0,0.0,0.0,0.0,0.0,0.0,0.0,0.0,0.0,0.0,0.0,0.0,0.0,0.0,0.0,0.0,0.0,0.0,0.0,0.0,0.0,0.0,0.0,0.0,0.0,0.0,0.0,0.0,0.0,0.0,0.0,0.0,0.0,0.0,0.0,0.0,0.0,0.0,0.0,0.0,0.0,0.0,0.0,0.0,0.0,0.0,0.0,0.0,0.0,0.0,0.0,0.0,0.0,0.0,0.0,0.0,0.0,0.0,0.0,0.0,0.0,0.0,0.0,0.0,0.0,0.0,0.0,0.0,0.0,0.0,0.0,0.0,0.0,0.0,0.0,0.0,0.0,0.0,0.0,0.0,0.0,0.0,0.0,0.0,0.0,0.0,0.0,0.0,0.0,0.0,0.0,0.0,0.0,0.0,0.0,0.0,0.0,0.0,0.0,0.0,0.0,0.0,0.0,0.0,0.0,0.0,0.0,0.0,0.0,0.0,0.0,0.0,0.0,0.0,0.0,0.0,0.0,0.0,0.0,0.0,0.0,0.0,0.0,0.0,0.0,0.0,0.0,0.0,0.0,0.0,0.0,0.0,0.0,0.0,0.0,0.0,0.0,0.0,0.0,0.0,0.0,0.0,0.0,0.0,0.0,0.0,0.0,0.0,0.0,0.0,0.0,0.0,0.0,0.0,0.0,0.0,0.0,0.0,0.0,0.0,0.0,0.0,0.0,0.0,0.0,0.0,0.0,0.0,0.0,0.0,0.0,0.0,0.0,0.0,0.0,0.0,0.0,0.0,0.0,0.0,0.0,0.0,0.0,0.0,0.0,0.0,0.0,0.0,0.0,0.0,0.0,0.0,0.0,0.0,0.0,0.0,0.0,0.0,0.0,0.0,0.0,0.0,0.0,0.0,0.0,0.0,0.0,0.0,0.0,0.0,0.0,0.0,0.0,0.0,0.0,0.0,0.0,0.0,0.0,0.0,0.0,0.0,0.0,0.0,0.0,0.0,0.0,0.0,0.0,0.0,0.0,0.0,0.0,0.0,0.0,0.0,0.0,0.0,0.0,0.0,0.0,0.0,0.0,0.0,0.0,0.0,0.0,0.0,0.0,0.0,0.0,0.0,0.0,0.0,0.0,0.0,0.0,0.0,0.0,0.0,0.0,0.0,0.0,0.0,0.0,0.0,0.0,0.0,0.0,0.0,0.0,0.0,0.0,0.0,0.0,0.0,0.0,0.0,0.0,0.0,0.0,0.0,0.0,0.0,0.0,0.0,0.0,0.0,0.0,0.0,0.0,0.0,0.0,0.0,0.0,0.0,0.0,0.0,0.0,0.0,0.0,0.0,0.0,0.0,0.0,0.0,0.0,0.0,0.0,0.0,0.0,0.0,0.0,0.0,0.0,0.0,0.0,0.0,0.0,0.0,0.0,0.0,0.0,0.0,0.0,0.0,0.0,0.0,0.0,0.0,0.0,0.0,0.0,0.0,0.0,0.0,0.0,0.0,0.0,0.0,0.0,0.0,0.0,0.0,0.0,0.0,0.0,0.0,0.0,0.0,0.0,0.0,0.0,0.0,0.0,0.0,0.0,0.0,0.0,0.0,0.0,0.0,0.0,0.0,0.0,0.0,0.0,0.0,0.0,0.0,0.0,0.0,0.0,0.0,0.0,0.0,0.0,0.0,0.0,0.0,0.0,0.0,0.0,0.0,0.0,0.0,0.0,0.0,0.0,0.0,0.0,0.0,0.0,0.0,0.0,0.0,0.0,0.0,0.0,0.0,0.0,0.0,0.0,0.0,0.0,0.0,0.0,0.0,0.0,0.0,0.0,0.0,0.0,0.0,0.0,0.0,0.0,0.0,0.0,0.0,0.0,0.0,0.0,0.0,0.0,0.0,0.0,0.0,0.0,0.0,0.0,0.0,0.0,0.0,0.0,0.0,0.0,0.0,0.0,0.0,0.0,0.0,0.0,0.0,0.0,0.0,0.0,0.0,0.0,0.0,0.0,0.0,0.0,0.0,0.0,0.0,0.0,0.0,0.0,0.0,0.0,0.0,0.0,0.0,0.0,0.0,0.0,0.0,0.0,0.0,0.0,0.0,0.0,0.0,0.0,0.0,0.0,0.0,0.0,0.0,0.0,0.0,0.0,0.0,0.0,0.0,0.0,0.0,0.0,0.0,0.0,0.0,0.0,0.0,0.0,0.0,0.0,0.0,0.0,0.0,0.0,0.0,0.0,0.0,0.0,0.0,0.0,0.0,0.0,0.0,0.0,0.0,0.0,0.0,0.0,0.0,0.0,0.0,0.0,0.0,0.0,0.0,0.0,0.0,0.0,0.0,0.0,0.0,0.0,0.0,0.0,0.0,0.0,0.0,0.0,0.0,0.0,0.0,0.0,0.0,0.0,0.0,0.0,0.0,0.0,0.0,0.0,0.0,0.0,0.0,0.0,0.0,0.0,0.0,0.0,0.0,0.0,0.0,0.0,0.0,0.0,0.0,0.0,0.0,0.0,0.0,0.0,0.0,0.0,0.0,0.0,0.0,0.0,0.0,0.0,0.0,0.0,0.0,0.0,0.0,0.0,0.0,0.0,0.0,0.0,0.0,0.0,0.0,0.0,0.0,0.0,0.0,0.0,0.0,0.0,0.0,0.0,0.0,0.0,0.0,0.0,0.0,0.0,0.0,0.0,0.0,0.0,0.0,0.0,0.0,0.0,0.0,0.0,0.0,0.0,0.0,0.0,0.0,0.0,0.0,0.0,0.0,0.0,0.0,0.0,0.0,0.0,0.0,0.0,0.0,0.0,0.0,0.0,0.0,0.0,0.0,0.0,0.0,0.0,0.0,0.0,0.0,0.0,0.0,0.0,0.0,0.0,0.0,0.0,0.0,0.0,0.0,0.0,0.0,0.0,0.0,0.0,0.0,0.0,0.0,0.0,0.0,0.0,0.0,0.0,0.0,0.0,0.0,0.0,0.0,0.0,0.0,0.0,0.0,0.0,0.0,0.0,0.0,0.0,0.0,0.0,0.0,0.0,0.0,0.0,0.0,0.0,0.0,0.0,0.0,0.0,0.0,0.0,0.0,0.0,0.0,0.0,0.0,0.0,0.0,0.0,0.0,0.0,0.0,0.0,0.0,0.0,0.0,0.0,0.0,0.0,0.0,0.0,0.0,0.0,0.0,0.0,0.0,0.0,0.0,0.0,0.0,0.0,0.0,0.0,0.0,0.0,0.0,0.0,0.0,0.0,0.0,0.0,0.0,0.0,0.0,0.0,0.0,0.0,0.0,0.0,0.0,0.0,0.0,0.0,0.0,0.0,0.0,0.0,0.0,0.0,0.0,0.0,0.0,0.0,0.0,0.0,0.0,0.0,0.0,0.0,0.0,0.0,0.0,0.0,0.0,0.0,0.0,0.0,0.0,0.0,0.0,0.0,0.0,0.0,0.0,0.0,0.0,0.0,0.0,0.0,0.0,0.0,0.0,0.0,0.0,0.0,0.0,0.0,0.0,0.0,0.0,0.0,0.0,0.0,0.0,0.0,0.0,0.0,0.0,0.0,0.0,0.0,0.0,0.0,0.0,0.0,0.0,0.0,0.0,0.0,0.0,0.0,0.0,0.0,0.0,0.0,0.0,0.0,0.0,0.0,0.0,0.0,0.0,0.0,0.0,0.0,0.0,0.0,0.0,0.0,0.0,0.0,0.0,0.0,0.0,0.0,0.0,0.0,0.0,0.0,0.0,0.0,0.0,0.0,0.0,0.0,0.0,0.0,0.0,0.0,0.0,0.0,0.0,0.0,0.0,0.0,0.0,0.0,0.0,0.0,0.0,0.0,0.0,0.0,0.0,0.0,0.0,0.0,0.0,0.0,0.0,0.0,0.0,0.0,0.0,0.0,0.0,0.0,0.0,0.0,0.0,0.0,0.0,0.0,0.0,0.0,0.0,0.0,0.0,0.0,0.0,0.0,0.0,0.0,0.0,0.0,0.0,0.0,0.0,0.0,0.0,0.0,0.0,0.0,0.0,0.0,0.0,0.0,0.0,0.0,0.0,0.0,0.0,0.0,0.0,0.0,0.0,0.0,0.0,0.0,0.0,0.0,0.0,0.0,0.0,0.0,0.0,0.0,0.0,0.0,0.0,0.0,0.0,0.0,0.0,0.0,0.0,0.0,0.0,0.0,0.0,0.0,0.0,0.0,0.0,0.0,0.0,0.0,0.0,0.0,0.0,0.0,0.0,0.0,0.0,0.0,0.0,0.0,0.0,0.0,0.0,0.0,0.0,0.0,0.0,0.0,0.0,0.0,0.0,0.0,0.0,0.0,0.0,0.0,0.0,0.0,0.0,0.0,0.0,0.0,0.0,0.0,0.0,0.0,0.0,0.0,0.0,0.0,0.0,0.0,0.0,0.0,0.0,0.0,0.0,0.0,0.0,0.0,0.0,0.0,0.0,0.0,0.0,0.0,0.0,0.0,0.0,0.0,0.0,0.0,0.0,0.0,0.0,0.0,0.0,0.0,0.0,0.0,0.0,0.0,0.0,0.0,0.0,0.0,0.0,0.0,0.0,0.0,0.0,0.0,0.0,0.0,0.0,1.435,1.3331,0.0,0.0,0.0,0.0,0.0,0.0,0.0,0.0,0.0,0.0,0.0,0.0,0.0,0.0,0.0,0.0,0.0,0.0,0.0,0.0,0.0,0.0,0.0,0.4088,0.4121,0.3956,0.4088,0.0,0.0,0.0,0.0,0.0,0.0,0.0,0.0,0.0,0.4904,0.5464,0.578,0.6302,0.7011,0.668,0.6377,0.6106,0.0,0.0,0.0,0.0,0.0,0.0,0.0,0.0,0.0,0.0,0.0,0.0,0.0,0.0,0.0,0.0,0.0,0.0,0.0,0.0,0.0,0.0,0.0,0.0,0.0,0.0,0.0,0.0,0.0,0.0,0.0,0.0,0.0,0.0,0.0,0.0,0.0,0.0,0.0,0.0,0.0,0.0,0.0,0.0,0.0,0.0,0.0,0.0,0.0,0.0,0.0,0.0,0.0,0.0,0.0,0.0,0.0,0.0,0.0,0.0,0.0,0.0,0.0,0.0,0.0,0.0,0.0,0.0,0.0,0.0,1.5172,1.4338,0.0,0.0,0.0,0.0,0.0,0.0,0.0,0.0,0.0,0.0,0.0,0.0,0.0,0.0,0.0,0.0,0.0,0.0,0.0,0.0,0.0,0.4221,0.4442,0.4562,0.4609,0.4556,0.4602,0.4602,0.4556,0.4556,0.0,0.0,0.0,0.0,0.5041,0.5312,0.5771,0.6424,0.6837,0.747,0.8298,0.863,0.8363,0.7604,0.7132,0.0,0.0,0.0,0.0,0.0,0.0,0.0,0.0,0.0,0.0,0.0,0.0,0.0,0.0,0.0,0.0,0.0,0.0,0.0,0.0,0.0,0.0,0.0,0.0,0.0,0.0,0.0,0.0,0.0,0.0,0.0,0.0,0.0,0.0,0.0,0.0,0.0,0.0,0.0,0.0,0.0,0.0,0.0,0.0,0.0,0.0,0.0,0.0,0.0,0.0,0.0,0.0,0.0,0.0,0.0,0.0,0.0,0.0,0.0,0.0,0.0,0.0,0.0,1.5925,1.6276,1.6382,1.6871,1.6698,1.6007,1.5788,1.5178,1.4322,1.4497,0.0,0.0,0.0,0.0,0.0,0.0,0.0,0.0,0.0,0.0,0.0,0.0,0.0,0.0,0.0,0.0,0.0,0.0,0.0,0.4701,0.4741,0.5214,0.5438,0.5199,0.5397,0.5438,0.5199,0.5172,0.0,0.0,0.0,0.5449,0.6008,0.6062,0.6492,0.7327,0.8351,0.9191,0.9818,1.0142,1.0238,1.0064,0.875,0.7976,0.7659,0.0,0.0,0.0,0.0,0.0,0.0,0.0,0.0,0.0,0.0,0.0,0.0,0.0,0.0,0.0,0.0,0.0,0.0,0.0,0.0,0.0,0.0,0.0,0.0,0.0,0.0,0.0,0.0,0.0,0.0,0.0,0.0,0.0,0.0,0.0,0.0,0.0,0.0,0.0,0.0,0.0,1.1078,1.179,0.0,0.0,0.0,0.0,0.0,0.0,0.0,0.0,0.0,0.0,0.0,0.0,0.0,1.4767,1.5591,1.5121,1.5175,1.5794,1.5856,1.6131,1.6654,1.7486,1.794,1.8062,1.7221,0.0,1.4806,1.4835,0.0,0.0,0.0,0.0,0.0,0.0,0.0,0.0,0.0,0.0,0.0,0.0,0.0,0.0,0.0,0.0,0.0,0.0,0.0,0.0,0.0,0.6181,0.639,0.6266,0.6363,0.639,0.6266,0.6266,0.0,0.0,0.6266,0.6463,0.6922,0.7078,0.7749,0.8951,0.9806,1.0528,1.1102,1.1253,1.1417,1.152,1.0717,0.9821,0.8898,0.8578,0.0,0.0,0.0,0.0,0.0,0.0,0.0,0.0,0.0,0.0,0.0,0.0,0.0,0.0,0.0,0.0,0.0,0.0,0.0,0.0,0.0,0.0,0.0,0.0,0.0,0.0,0.0,0.0,0.0,0.0,0.0,0.0,0.0,0.0,0.0,0.0,0.0,0.0,0.0,1.1835,1.2268,1.3176,1.3164,1.3328,0.0,0.0,0.0,0.0,0.0,0.0,0.0,0.0,0.0,1.4406,1.5013,1.5374,1.5454,1.5611,1.5906,1.6359,1.6516,1.6811,1.7227,1.7584,1.7867,1.7971,1.7546,1.6926,1.6165,1.5879,1.5874,1.607,0.0,0.0,0.0,0.0,1.552,1.5388,0.0,0.0,0.0,0.0,0.0,0.0,0.0,0.0,0.0,0.0,0.0,0.0,0.677,0.7148,0.7324,0.7246,0.731,0.7324,0.7233,0.7233,0.7233,0.7233,0.7233,0.7417,0.7826,0.8337,0.9191,1.0432,1.1116,1.1721,1.2229,1.239,1.2577,1.2746,1.2551,1.1601,1.0114,0.9805,0.9151,0.8338,0.0,0.0,0.0,0.0,0.0,0.0,0.0,0.0,0.0,0.0,0.0,0.0,0.0,0.0,0.0,0.0,0.0,0.0,0.0,0.0,0.0,0.0,0.0,0.0,0.0,0.0,0.0,0.0,0.0,0.0,0.0,0.0,0.0,0.0,0.0,0.0,0.0,1.243,1.2963,1.4247,1.3943,1.397,0.0,0.0,0.0,0.0,0.0,0.0,1.5035,1.5579,1.5652,1.5162,1.5852,1.6072,1.5678,1.631,1.6739,1.6927,1.718,1.7448,1.7702,1.7702,1.7742,1.7836,1.7836,1.7675,1.7352,1.6818,1.6432,1.6235,1.6688,1.6877,1.6916,1.6682,1.6597,1.6469,0.0,0.0,0.0,0.0,0.0,0.0,0.0,0.0,0.0,0.0,0.0,0.707,0.7421,0.7973,0.8202,0.7885,0.8136,0.8202,0.7872,0.7859,0.7859,0.7859,0.7859,0.8125,0.8724,0.9876,1.0758,1.1322,1.2256,1.2864,1.316,1.3721,1.4009,1.4022,1.4009,1.2999,1.1299,1.1022,1.041,0.958,0.9244,0.0,0.0,0.0,0.0,0.0,0.0,0.0,0.0,0.0,0.0,0.0,0.0,0.0,0.0,0.0,0.0,0.0,0.0,0.0,0.0,0.0,0.0,0.0,0.0,0.0,0.0,0.0,0.0,0.0,0.0,0.0,0.0,0.0,0.0,0.0,0.0,0.0,0.0,1.4462,1.4702,0.0,0.0,0.0,0.0,1.62,1.5559,1.5401,1.6002,1.6074,1.6241,1.6587,1.6643,1.6938,1.7474,1.7515,1.7555,1.7542,1.7582,1.7716,1.7969,1.7969,1.8156,1.8437,1.8437,1.8277,1.7929,1.7379,1.731,1.75,1.7557,1.7896,1.8279,1.7394,1.7069,1.6996,0.0,0.0,0.0,0.3787,0.3919,0.4186,0.4751,0.5245,0.579,0.6447,0.7153,0.7777,0.8283,0.8871,0.9192,0.9072,0.9325,0.9365,0.9072,0.9058,0.9058,0.9058,0.9231,0.9685,1.0459,1.1276,1.2064,1.2814,1.3547,1.4041,1.437,1.4571,1.4678,1.4678,1.4678,1.4188,1.334,1.251,1.1627,1.0739,1.0287,0.9673,0.0,0.0,0.0,0.0,0.0,0.0,0.0,0.0,0.0,0.0,0.0,0.0,0.0,0.0,0.0,0.0,0.0,0.0,0.0,0.0,0.0,0.0,0.0,0.0,0.0,0.0,0.0,0.0,0.0,0.0,0.0,0.0,0.0,0.0,0.0,0.0,0.0,1.595,1.5258,0.0,1.6564,1.5866,1.5506,1.597,1.6109,1.6262,1.6467,1.6851,1.7136,1.7274,1.7649,1.7956,1.8197,1.8572,1.8853,1.9011,1.9011,1.9172,1.9423,1.9423,1.9477,1.9583,1.9583,1.941,1.913,1.8945,1.8374,1.7612,1.7612,1.7721,1.7876,1.7548,1.7422,1.7413,0.0,0.0,0.0,0.3938,0.4072,0.4402,0.518,0.57,0.6283,0.7068,0.7777,0.8431,0.9031,0.9647,0.9995,0.9995,1.0247,1.0287,1.0008,0.9995,0.9995,0.9995,1.0354,1.0952,1.185,1.2433,1.3127,1.3893,1.4501,1.491,1.5133,1.5227,1.528,1.528,1.528,1.5097,1.4741,1.3996,1.3032,1.1953,1.14,1.0811,1.018,0.0,0.0,0.0,0.0,0.0,0.0,0.0,0.0,0.0,0.0,0.0,0.0,0.0,0.0,0.0,0.0,0.0,0.0,0.0,0.0,0.0,0.0,0.0,0.0,0.0,0.0,0.0,0.0,0.0,0.0,0.0,0.0,0.0,0.0,1.4302,1.5123,1.6892,1.5927,1.5705,1.7202,1.6528,1.6136,1.6393,1.678,1.7088,1.7301,1.7702,1.805,1.8317,1.8718,1.8971,1.9078,1.9466,1.976,1.9947,1.9947,2.001,2.0197,2.0197,2.0197,2.0197,2.0197,2.009,1.9947,1.9947,1.9372,1.8464,1.8291,1.821,1.821,1.821,1.821,1.8237,0.0,0.0,0.3631,0.3965,0.4248,0.4636,0.5239,0.607,0.6847,0.7435,0.8269,0.9045,0.9647,1.0265,1.0626,1.0626,1.0908,1.0945,1.0667,1.064,1.0669,1.0682,1.1182,1.1891,1.283,1.3373,1.3919,1.4527,1.5124,1.5404,1.5418,1.5675,1.5808,1.5808,1.5808,1.5648,1.5404,1.5404,1.4589,1.3207,1.2599,1.1997,1.1366,0.0,0.0,0.0,0.0,0.0,0.0,0.0,0.0,0.0,0.0,0.0,0.0,0.0,0.0,0.0,0.0,0.0,0.0,0.0,0.0,0.0,0.0,0.0,0.0,0.0,0.0,0.0,0.0,0.0,0.0,0.0,0.0,0.0,1.3653,1.4442,1.559,1.7109,1.6714,1.6922,1.8426,1.7772,1.7341,1.7622,1.7662,1.7903,1.8504,1.8544,1.8931,1.9786,1.9826,1.996,2.021,2.0224,2.0224,2.0224,2.0224,2.0224,2.0224,2.0224,2.0224,2.0224,2.0224,2.0224,2.0224,2.0224,2.0224,2.017,1.9655,1.9428,1.9428,1.9428,1.9428,1.9441,0.4209,0.4156,0.4236,0.4522,0.485,0.5253,0.586,0.6697,0.7383,0.7737,0.8551,0.9311,0.9912,1.0699,1.1276,1.1524,1.2007,1.2181,1.1837,1.1824,1.1935,1.2186,1.2518,1.3039,1.3728,1.4317,1.4776,1.515,1.5501,1.5688,1.5688,1.5768,1.5808,1.5808,1.5808,1.5768,1.5688,1.5688,1.5328,1.471,1.366,1.3033,1.2606,0.0,0.0,0.0,0.0,0.0,0.0,0.0,0.0,0.0,0.0,0.0,0.0,0.0,0.0,0.0,0.0,0.0,0.0,0.0,0.0,0.0,0.0,0.0,0.0,0.0,0.0,0.0,0.0,0.0,0.0,0.0,1.4335,1.491,1.491,1.5274,1.598,1.7086,1.7062,1.7269,1.8087,1.8158,1.8237,1.8531,1.8945,1.9265,1.9426,1.9639,1.9837,2.0077,2.0321,2.0481,2.0548,2.0762,2.0837,2.0837,2.0837,2.0837,2.0837,2.0837,2.0837,2.0837,2.0837,2.0837,2.0837,2.0837,2.0837,2.0784,2.0227,2.0,2.0,2.0,2.0134,2.0351,0.4456,0.4402,0.4482,0.4747,0.5083,0.5502,0.6111,0.6949,0.7598,0.7872,0.8778,0.9632,1.0234,1.0952,1.1579,1.2029,1.2516,1.2736,1.251,1.2719,1.2999,1.3333,1.3601,1.4028,1.4616,1.4986,1.5307,1.5578,1.5728,1.5808,1.5808,1.5808,1.5808,1.5808,1.5808,1.5808,1.5808,1.5808,1.5701,1.5511,1.4674,1.4114,1.366,1.2906,1.2425,1.2099,1.169,1.1249,1.0808,1.0568,0.0,0.0,0.0,0.0,0.0,0.0,0.0,0.0,0.0,0.0,0.0,0.0,0.0,0.0,0.0,0.0,0.0,0.0,0.0,0.0,0.0,0.0,0.0,0.0,1.5378,1.6032,1.6273,1.6353,1.666,1.7435,1.7662,1.797,1.8544,1.8865,1.9158,1.9423,1.9757,2.004,2.016,2.0321,2.0481,2.0557,2.0762,2.0855,2.0855,2.1029,2.1109,2.1109,2.1109,2.1109,2.1109,2.1109,2.1109,2.1109,2.1109,2.1109,2.1109,2.1109,2.1109,2.1082,0.0,0.0,0.0,0.0,2.0708,2.0793,0.4549,0.4502,0.4576,0.4807,0.5157,0.5583,0.6124,0.6965,0.7627,0.7872,0.8925,0.9875,1.0479,1.1062,1.1646,1.2251,1.2599,1.2812,1.2839,1.3393,1.3834,1.4122,1.4442,1.479,1.5216,1.5269,1.5331,1.5439,1.5439,1.5439,1.5439,1.5557,1.5642,1.5642,1.5761,1.5808,1.5808,1.5808,1.5808,1.5781,1.5551,1.511,1.4541,1.398,1.3594,1.3293,1.2746,1.2345,1.2002,1.1463,0.0,0.0,0.0,0.0,0.0,0.0,0.0,0.0,0.0,0.0,0.0,0.0,0.0,0.0,0.0,0.0,0.0,0.0,0.0,0.0,0.0,0.0,0.0,0.0,1.6299,1.7061,1.7649,1.7568,1.7622,1.8103,1.8464,1.8879,1.9441,1.9733,2.0,2.0237,2.0277,2.041,2.0739,2.0753,0.0,0.0,0.0,2.1109,2.1109,2.1109,2.1109,2.1109,2.1149,2.1162,2.1162,2.1189,2.1203,2.1203,2.1203,2.1203,2.1203,2.1203,2.1107,2.0948,2.0882,2.0856,2.0843,2.0684,2.0621,2.0462,0.5132,0.5132,0.5146,0.5191,0.5663,0.6062,0.6178,0.7132,0.7846,0.7887,0.8725,0.9524,1.0125,1.0912,1.1646,1.2251,1.2665,1.2975,1.3191,1.3923,1.4354,1.4407,1.495,1.4881,1.4125,1.4359,1.4112,1.3307,1.3307,1.3307,1.3307,1.4196,1.458,1.4627,1.5452,1.5808,1.5808,1.5808,1.5808,1.5808,1.5741,1.5515,1.519,1.4865,1.4522,1.4234,1.4114,1.3727,1.324,1.3153,1.2889,1.2548,1.2231,1.1753,0.0,0.0,0.0,0.0,0.0,0.0,0.0,0.0,0.0,0.0,0.0,0.0,0.0,0.0,0.0,0.0,0.0,0.0,0.0,1.6739,1.7355,1.7969,1.8556,1.8853,1.9013,1.9134,1.9372,1.9679,1.9997,2.0334,2.0565,2.0588,2.0802,2.0962,2.1029,2.1029,2.1056,2.1109,2.1109,2.1109,2.1109,2.1109,2.1109,2.1109,2.1381,0.0,2.1502,2.1743,2.1817,2.1817,2.1817,2.1817,2.1817,2.1817,2.1116,2.0014,1.9571,1.9419,1.9291,1.8203,1.7785,1.7753,0.5301,0.5301,0.5301,0.5301,0.5806,0.6205,0.6205,0.7161,0.79,0.79,0.8658,0.9349,0.9756,1.0523,1.1037,1.1141,1.1942,1.2325,1.202,1.3231,1.3735,1.3268,1.3751,1.3791,1.3258,1.3418,1.3245,1.2702,1.2702,1.2702,1.2702,1.3245,1.3787,1.4316,1.4819,1.5333,1.5808,1.5808,1.5808,1.5808,1.5808,1.5715,1.5605,1.5444,1.5217,1.4963,1.4963,1.4683,1.4261,1.4114,1.386,1.3581,1.3087,1.2646,1.2246,0.0,0.0,0.0,0.0,0.0,0.0,0.0,0.0,0.0,0.0,0.0,0.0,0.0,0.0,1.519,1.5912,0.0,1.71,1.7528,1.8223,1.8811,1.9105,1.9682,2.0003,1.9813,2.0054,2.0294,2.0441,2.0722,2.0895,2.0895,2.1029,2.1109,2.1109,2.1109,2.1109,2.1109,2.1256,2.1368,2.1368,2.147,2.155,2.155,2.1729,2.1796,2.181,2.1957,2.1582,2.092,2.092,2.0476,1.9766,1.9766,1.9299,1.8529,1.7377,1.7489,1.8179,1.7489,1.7194,1.701,0.5301,0.5301,0.5301,0.5301,0.5744,0.6129,0.6182,0.7068,0.7779,0.7887,0.8565,0.9136,0.9379,0.9983,1.0277,0.9973,1.1227,1.1698,1.0937,1.2407,1.3017,1.2313,1.255,1.2606,1.2412,1.2412,1.2315,1.2096,1.2096,1.2096,1.2096,1.2315,1.2872,1.3715,1.4124,1.4747,1.5523,1.5713,1.5808,1.5808,1.5808,1.5808,1.5808,1.5808,1.5661,1.5484,1.5484,1.5337,1.512,1.4834,1.4714,1.4581,1.4093,1.3687,1.3333,1.3119,1.2623,0.0,0.0,0.0,0.0,0.0,0.0,0.0,0.0,1.4001,1.4589,1.52,1.5725,1.6248,1.6835,1.7448,1.7943,1.8223,1.8998,1.9589,1.9642,2.0258,2.0615,2.0397,2.0615,2.0793,2.0793,2.0975,2.1109,2.1109,2.1109,2.1009,2.0776,2.0744,2.0643,2.0394,2.0657,2.0805,2.0805,2.1036,2.1139,2.1139,2.1157,2.1196,2.1229,2.1281,2.0638,1.9519,1.9519,1.8766,1.7571,1.7571,1.7334,1.6858,1.5469,1.5606,1.6576,1.6496,1.6389,1.6092,0.5301,0.5301,0.5301,0.5301,0.5553,0.5852,0.6156,0.6707,0.7299,0.782,0.8243,0.8632,0.901,0.9391,0.9652,0.9714,1.1179,1.1954,1.1614,1.2495,1.3096,1.3233,1.2906,1.229,1.139,1.1365,1.091,0.9945,0.9945,0.9945,0.9969,1.0935,1.1439,1.1634,1.3487,1.4364,1.4532,1.5428,1.5808,1.5808,1.5808,1.5808,1.5808,1.5808,1.5781,1.5755,1.5755,1.5741,1.5701,1.5675,1.5511,1.5284,1.5217,1.4643,1.3975,1.3969,1.352,1.3047,1.3047,1.3207,1.336,1.34,1.386,1.4402,0.0,1.5217,1.5781,1.6393,1.6792,1.7207,1.7756,1.8356,1.8865,1.9201,1.9733,2.0197,2.0525,2.0646,2.0762,2.0989,2.1042,2.1069,2.1069,2.1096,2.1109,2.1109,2.1109,2.0643,1.9561,1.9508,1.9015,1.7928,1.7927,1.7972,1.7972,1.8005,1.8016,1.8016,1.8224,1.8368,1.8368,1.8657,1.8721,1.8548,1.8548,1.8258,1.776,1.776,1.6792,1.5256,1.5044,1.4311,1.3295,1.292,1.2795,1.2746,0.5301,0.5301,0.5301,0.5301,0.5518,0.5812,0.6156,0.6623,0.7091,0.7501,0.7816,0.7971,0.79,0.7742,0.7844,0.8379,0.9246,0.9531,0.894,1.0228,1.0925,1.0719,1.0749,1.0621,1.0281,1.0281,1.0035,0.9599,0.9599,0.992,1.0542,1.0984,1.1853,1.3052,1.3908,1.4627,1.5201,1.5618,1.5808,1.5808,1.5808,1.5808,1.5808,1.5808,1.5808,1.5808,1.5808,1.5808,0.0,1.5808,1.5728,1.5618,1.5444,1.515,1.4839,1.4665,1.4451,1.425,1.425,1.4442,1.4634,1.4634,1.5208,1.5818,1.5952,1.6433,1.6967,1.7382,1.7716,1.8143,1.8704,1.9158,1.9533,1.9826,2.0214,2.0244,1.9586,1.96,1.9467,1.88,1.8716,1.9004,1.9814,1.9164,1.8755,1.8812,1.8812,1.8669,1.825,1.8239,1.7906,1.7164,1.7323,1.7431,1.7431,1.7602,1.7665,1.7665,1.7794,1.7708,1.7499,1.7627,1.7223,1.6388,1.5587,1.514,1.5005,1.5081,1.4661,1.3949,1.3686,1.3219,1.2678,1.2564,1.2492,1.239,0.5301,0.5301,0.5301,0.5301,0.5459,0.5691,0.6012,0.6428,0.6819,0.7154,0.7419,0.7446,0.7092,0.6739,0.6689,0.7071,0.7694,0.7807,0.7269,0.8498,0.9195,0.9013,0.9158,0.934,0.9551,0.9575,0.9599,0.9599,0.9599,1.0158,1.1194,1.1194,1.2145,1.3884,1.4172,1.4699,1.5391,1.5689,1.5808,1.5808,1.5808,1.5808,1.5795,1.5715,1.5688,1.5701,1.5781,1.5755,1.5688,1.5688,1.5688,1.5648,1.5458,1.5391,1.5351,1.5173,1.516,1.5227,1.5227,1.5561,1.5909,1.5909,1.6444,1.6967,1.7035,1.7395,1.7809,1.8156,1.8517,1.8806,1.892,1.9239,1.94,1.9195,1.9368,1.9167,1.8147,1.8076,1.7797,1.686,1.6416,1.661,1.7608,1.7304,1.7108,1.7278,1.72,1.7028,1.6851,1.676,1.6406,1.5781,1.5992,1.6148,1.6148,1.6327,1.6433,1.649,1.649,1.6351,1.6087,1.6087,1.5525,1.4466,1.3488,1.3,1.2897,1.2985,1.2992,1.288,1.2582,1.2442,1.2379,1.2561,1.2496,1.2409,0.5301,0.5301,0.5301,0.5301,0.5306,0.5406,0.567,0.6003,0.639,0.6848,0.7143,0.721,0.6942,0.7008,0.6817,0.6194,0.7229,0.795,0.8061,0.8307,0.8781,0.9544,0.9098,0.9012,0.9404,0.9535,0.9599,0.9599,0.9599,1.0158,1.1194,1.1194,1.1755,1.2775,1.3835,1.4316,1.4412,1.5404,1.5808,1.5808,1.5808,1.5808,1.5768,1.5511,1.5404,1.5444,1.5701,1.5621,1.5404,1.5404,1.5404,1.5404,1.5404,1.5391,1.5391,1.5391,1.5555,1.5781,1.5781,1.6458,1.7152,1.7152,1.7354,1.7635,1.7916,1.7982,1.817,1.8743,1.9132,1.9047,1.7942,1.8245,1.8175,1.6835,1.6573,1.6528,1.6463,1.6205,1.6027,1.6118,1.4996,1.4242,1.4419,1.6121,1.7289,1.7479,1.712,1.64,1.523,1.4857,1.4141,1.2945,1.2917,1.296,1.296,1.2968,1.3015,1.3137,1.3137,1.3228,1.3312,1.3312,1.3312,1.3237,1.3208,1.2985,1.2612,1.262,1.2433,1.2135,1.2135,1.2009,1.1857,1.203,1.2121,1.2094,0.5301,0.5301,0.5301,0.5301,0.5301,0.5333,0.5419,0.561,0.5859,0.6188,0.6236,0.0,0.0,0.0,0.0,0.0,0.5787,0.6085,0.6481,0.6867,0.7363,0.7979,0.8253,0.8526,0.8791,0.9115,0.9275,0.9275,0.9275,0.9858,1.102,1.1728,1.2672,1.3811,1.4843,1.5309,1.532,1.5454,1.5538,1.5524,1.5337,1.528,1.524,1.4923,1.4794,1.4781,0.0,1.4477,1.4199,1.4199,1.4199,1.4122,1.3635,1.3882,1.4422,1.482,1.4995,1.5316,1.6419,1.7086,1.7501,1.7702,1.8103,1.8504,1.8583,1.8771,1.9,1.9172,1.9452,1.9296,1.805,1.8061,1.7842,1.6508,1.6157,1.5779,1.4983,1.4771,1.4412,1.3603,1.3126,1.2925,1.3098,1.3574,1.3976,1.4172,1.4042,1.3848,1.3578,1.348,1.3085,1.2402,1.2504,1.2518,1.2518,1.2626,1.2706,1.2727,1.2504,1.2421,1.2471,1.2471,1.2471,1.2478,1.2545,1.2519,1.2412,1.2502,1.2467,1.2352,1.2352,1.2325,1.2284,1.2332,1.2352,1.2318,0.5301,0.5301,0.5301,0.5301,0.5301,0.0,0.0,0.0,0.0,0.0,0.0,0.0,0.0,0.0,0.0,0.0,0.0,0.4944,0.5384,0.581,0.6288,0.6823,0.7409,0.7863,0.8097,0.8486,0.8696,0.8787,0.8787,0.9451,1.0743,1.143,1.2579,1.4085,1.4742,1.5209,1.5498,1.5204,1.5271,1.5498,1.4919,1.4865,1.5066,1.4322,1.4034,0.0,1.3741,1.328,1.2905,1.3561,1.3834,1.3781,1.3055,1.3145,1.3574,1.3993,1.4258,1.4675,1.5758,1.6373,1.6743,1.6916,1.734,1.7848,1.8292,1.823,1.8181,1.8619,1.8572,1.8033,1.6699,1.6534,1.6171,1.4913,1.4396,1.3929,1.3252,1.305,1.2707,1.2017,1.19,1.1964,1.2165,1.205,1.2169,1.2596,1.2462,1.2443,1.2574,1.2438,1.2287,1.2056,1.2147,1.2223,1.2279,1.2384,1.2461,1.248,1.2309,1.2254,1.2254,1.2254,1.2254,1.2261,1.2325,1.2366,1.2372,1.2467,1.2501,1.2501,1.2501,1.2467,1.2433,1.2481,1.2075,1.1581,0.5301,0.5301,0.5301,0.0,0.0,0.0,0.0,0.0,0.0,0.0,0.0,0.0,0.0,0.0,0.0,0.0,0.0,0.0,0.4875,0.5192,0.5602,0.6122,0.6617,0.7022,0.7332,0.7683,0.7957,0.8146,0.8168,0.8893,1.0273,1.0318,1.1489,1.3482,1.3549,1.4068,1.4919,1.4589,1.4914,1.5568,1.4456,1.4496,1.5084,1.3681,1.3127,1.3106,1.2824,1.2184,1.1717,1.3417,1.4175,1.4248,1.3601,1.3224,1.3018,1.3014,1.348,1.4024,1.4045,1.4547,1.5109,1.5119,1.5349,1.5924,1.7132,1.6474,1.5932,1.7138,1.6626,1.5519,1.4101,1.3819,1.3393,1.213,1.1394,1.1094,1.142,1.1165,1.1036,1.1369,1.1402,1.1457,1.1606,1.1584,1.19,1.2681,1.2366,1.2165,1.2172,1.1813,1.1658,1.18,1.1813,1.1925,1.2111,1.2118,1.2193,1.2305,1.244,1.2501,1.2501,1.2501,1.2501,1.2501,1.2501,1.2501,1.2501,1.2501,1.2501,1.2501,1.2424,1.2305,1.2204,1.2223,1.117,0.9911,0.0,0.0,0.0,0.0,0.0,0.0,0.0,0.0,0.0,0.0,0.0,0.0,0.0,0.0,0.0,0.0,0.0,0.0,0.4728,0.4925,0.513,0.538,0.6022,0.6411,0.6503,0.7071,0.7405,0.7457,0.7597,0.7992,0.864,0.9429,1.0561,1.1925,1.2719,1.353,1.4303,1.3761,1.3647,1.3794,1.3053,1.2893,1.3026,1.2457,1.2229,1.2189,1.1864,1.1893,1.215,1.2591,1.2692,1.2733,1.3233,1.3271,1.3175,1.3272,1.3676,1.4158,1.4551,1.4888,1.517,1.5411,1.5526,1.5688,1.6013,1.5722,1.5475,1.5794,1.546,1.4702,1.3415,1.295,1.2422,1.129,1.0838,1.0767,1.1221,1.1179,1.1219,1.1525,1.1558,1.1579,1.1613,1.1584,1.1691,1.1907,1.1799,1.1811,1.1914,1.1812,1.185,1.2036,1.2115,1.2189,1.223,1.2338,1.2406,1.2447,1.2481,1.2501,1.2501,1.2501,1.2501,1.2501,1.2501,1.2501,1.2501,1.2501,1.2501,1.2385,1.1134,1.0612,1.0435,0.9216,0.8473,0.8149,0.0,0.0,0.0,0.0,0.0,0.0,0.0,0.0,0.0,0.0,0.0,0.0,0.0,0.0,0.0,0.0,0.0,0.0,0.0,0.4802,0.4932,0.5014,0.5557,0.5804,0.5719,0.6171,0.6476,0.662,0.6747,0.7066,0.7564,0.8183,0.9095,1.0295,1.1179,1.2059,1.2868,1.2697,1.2852,0.0,0.0,1.1957,1.2211,1.141,1.1199,1.131,1.1119,1.1694,1.2542,1.265,1.2671,1.2746,1.3375,1.3431,1.3232,1.3028,1.3278,1.3593,1.346,1.3538,1.371,1.3885,1.3943,1.4063,1.4527,1.4025,1.3587,1.4068,1.3442,1.2594,1.1878,1.156,1.121,1.0674,1.0478,1.0555,1.1002,1.1124,1.1308,1.1586,1.1584,1.1584,1.1584,1.1638,1.1678,1.1678,1.1678,1.1712,1.1793,1.1898,1.2006,1.2193,1.2244,1.2318,1.2379,1.2461,1.2501,1.2501,1.2501,1.2501,1.2501,1.2501,1.2501,1.2501,1.2501,1.2108,1.1459,1.1459,1.1019,1.0279,0.9327,0.8932,0.8814,0.7904,0.7077,0.6449,0.0,0.0,0.0,0.0,0.0,0.0,0.0,0.0,0.0,0.6291,0.5989,0.5733,0.5593,0.4986,0.0,0.0,0.0,0.0,0.0,0.0,0.4919,0.4862,0.5168,0.5253,0.5074,0.5288,0.555,0.5829,0.5952,0.6346,0.7004,0.7092,0.7771,0.8971,0.9564,1.0338,1.1222,1.1528,1.2109,1.266,1.1356,1.1276,1.181,0.0,1.0236,1.0508,1.06,1.1551,1.2784,1.3093,1.3387,1.3668,1.3924,1.3963,1.3784,1.3073,1.3063,1.3059,1.2038,1.1779,1.1806,1.1806,1.179,1.1995,1.2881,1.1992,1.1258,1.2148,1.1184,1.0154,1.0176,1.004,0.9999,1.0212,1.0211,1.0358,1.0819,1.1043,1.1246,1.1552,1.1606,1.1584,1.1584,1.1712,1.1793,1.1793,1.1834,1.1854,1.1854,1.202,1.22,1.2311,1.2318,1.2379,1.2501,1.2501,1.2501,1.2501,1.2501,1.2501,1.2501,1.2501,1.2399,1.2179,1.2179,1.1282,0.9774,0.9774,0.8908,0.7573,0.7371,0.7253,0.725,0.7007,0.6,0.475,0.0,0.0,0.0,0.0,0.0,0.0,0.0,0.0,0.0,0.0,0.7153,0.6744,0.0,0.0,0.0,0.0,0.0,0.0,0.0,0.0,0.0,0.4668,0.4869,0.4967,0.4931,0.5237,0.5424,0.5486,0.6206,0.6703,0.7001,0.7503,0.827,0.9241,0.9356,0.99,1.0705,1.0494,1.0499,1.0592,1.0129,1.0022,1.0129,0.9875,0.0,0.0,1.0677,1.156,1.2465,1.3026,1.3883,1.4778,1.5045,1.5765,1.6381,1.5526,1.5038,1.4496,1.3382,1.2464,1.1806,1.1806,1.1692,1.1541,1.1508,1.095,1.0437,1.0378,0.9849,0.9441,0.9543,0.9314,0.9282,0.9794,0.9798,0.9964,1.063,1.086,1.1063,1.1396,1.1545,1.1584,1.1584,1.1712,1.1793,1.1793,1.2067,1.221,1.221,1.2237,1.2318,1.2461,1.2467,1.2474,1.2501,1.2501,1.2501,1.2501,1.2501,1.2501,1.2501,1.2501,1.1784,1.051,1.051,0.9585,0.8035,0.8035,0.7843,0.7455,0.6081,0.5518,0.5356,0.398,0.3292,0.3053,0.0,0.0,0.0,0.0,0.0,0.0,0.0,0.8082,0.8216,0.8351,0.8083,0.7719,0.7266,0.6918,0.6617,0.0,0.0,0.0,0.0,0.0,0.0,0.5334,0.5562,0.5655,0.5579,0.5873,0.6083,0.6183,0.0,0.6923,0.7156,0.7442,0.7892,0.8438,0.8776,0.9175,0.9571,0.9791,0.9886,0.9873,0.9552,0.9445,0.9418,0.9285,0.0,0.0,1.0691,1.148,1.2216,1.2959,1.3895,1.483,1.5408,1.6219,1.6728,1.5607,1.5087,1.4557,1.3004,1.2183,1.1806,1.1806,1.1638,1.1393,1.0946,1.0449,0.9933,0.9382,0.8981,0.8743,0.8812,0.8824,0.894,0.9401,0.9612,0.9924,1.0521,1.0698,1.0934,1.1348,1.1457,1.1531,1.1577,1.1823,1.1952,1.1952,1.223,1.2366,1.2291,1.2359,1.2433,1.2501,1.2501,1.2501,1.2501,1.2501,1.2501,1.2501,1.1605,1.1217,1.1178,1.0342,0.9533,0.8798,0.8809,0.7847,0.6299,0.6299,0.5789,0.4956,0.4175,0.3846,0.3764,0.2938,0.2649,0.265,0.0,0.0,0.0,0.0,0.0,0.0,0.0,0.8456,0.8563,0.8778,0.8699,0.8462,0.7991,0.7499,0.7205,0.0,0.0,0.0,0.0,0.0,0.0,0.0,0.0,0.0,0.6237,0.0,0.0,0.6899,0.7047,0.0,0.0,0.0,0.0,0.0,0.8415,0.8644,0.8673,0.9258,0.9513,0.0,0.0,0.9124,0.9098,0.0,0.0,0.0,0.0,1.1279,1.2015,1.2826,1.3571,1.427,1.5097,1.5854,1.619,1.4982,1.4523,1.4093,1.2553,1.1924,1.17,1.1667,1.143,1.1036,1.048,0.9966,0.9389,0.8699,0.8344,0.8165,0.8192,0.8364,0.8635,0.9029,0.9381,0.9778,1.0324,1.0555,1.0839,1.1287,1.1369,1.1463,1.1647,1.1904,1.2111,1.2145,1.2352,1.2454,1.2338,1.244,1.2501,1.2501,1.2501,1.2501,1.2501,1.2147,1.1953,1.1953,1.028,0.9475,0.9461,0.8164,0.7425,0.7065,0.7048,0.6104,0.4602,0.4602,0.3836,0.2692,0.2692,0.2692,0.2692,0.2692,0.2692,0.2692,0.0,0.0,0.0,0.0,0.0,0.0,0.0,0.8617,0.8778,0.8804,0.8791,0.8751,0.8711,0.8436,0.819,0.0,0.0,0.0,0.0,0.0,0.0,0.0,0.0,0.0,0.0,0.0,0.0,0.6899,0.7505,0.0,0.0,0.0,0.0,0.0,0.0,0.8778,0.8791,0.8845,0.0,0.0,0.0,0.0,0.0,0.0,0.0,0.0,0.0,1.0915,1.2007,1.2642,1.2851,1.3009,1.3756,1.4679,1.5357,1.4583,1.3948,1.3489,1.3303,1.2315,1.1328,1.1179,1.0686,1.0111,0.9634,0.9053,0.8507,0.814,0.7848,0.7699,0.7828,0.7875,0.8085,0.8655,0.8872,0.9244,0.9961,1.0331,1.0677,1.1166,1.1342,1.1504,1.1746,1.1965,1.2159,1.2257,1.2413,1.2494,1.2481,1.2494,1.2501,1.2501,1.2501,1.2501,1.2501,1.0979,1.0241,1.0203,0.8526,0.775,0.7829,0.7675,0.677,0.5311,0.5316,0.4401,0.294,0.294,0.2816,0.2692,0.2692,0.2692,0.2692,0.2692,0.2692,0.2692,0.0,0.0,0.0,0.0,0.0,0.0,0.8564,0.8738,0.8791,0.8791,0.8791,0.8791,0.8791,0.8712,0.8606,0.8527,0.0,0.0,0.0,0.0,0.0,0.0,0.0,0.0,0.0,0.0,0.8049,0.8049,0.8315,0.0,0.0,0.0,0.0,0.0,0.0,0.8791,0.8791,0.8791,0.0,0.0,0.0,0.0,0.0,0.0,0.0,0.0,0.0,0.0,1.169,1.2296,1.2477,1.2427,1.2234,1.25,1.2922,1.3093,1.2982,1.2683,1.2217,1.167,1.116,1.0878,1.0509,1.0009,0.9166,0.8736,0.8333,0.7763,0.7543,0.7505,0.7559,0.7692,0.7977,0.8492,0.8852,0.9266,0.9805,1.0175,1.0527,1.0982,1.1165,1.1402,1.1759,1.1972,1.22,1.24,1.2467,1.2069,1.1056,1.1953,1.2037,1.1017,1.1017,1.0513,0.9498,0.8837,0.8487,0.8487,0.6823,0.6069,0.6059,0.5056,0.4218,0.3596,0.3622,0.3308,0.2692,0.2692,0.2692,0.2692,0.2692,0.2692,0.2692,0.2692,0.2692,0.2692,0.0,0.0,0.0,0.0,0.0,0.8099,0.8698,0.8791,0.8791,0.8791,0.8791,0.8791,0.8791,0.8791,0.8791,0.8791,0.8245,0.0,0.0,0.0,0.0,0.0,0.0,0.0,0.0,0.0,0.8791,0.8791,0.8791,0.8791,0.0,0.0,0.8791,0.8791,0.0,0.0,0.0,0.0,0.0,0.0,0.0,0.0,0.0,0.0,0.0,0.0,0.0,0.0,0.0,0.0,0.0,1.1468,1.1197,1.079,1.0572,1.1347,1.1683,1.1692,1.1111,1.0944,1.0795,1.0404,1.0058,0.9602,0.8692,0.8333,0.8041,0.7503,0.7355,0.7292,0.7267,0.7482,0.7814,0.8214,0.8723,0.922,0.9686,1.0059,1.0446,1.086,1.1077,1.139,1.185,1.2074,1.2315,1.2488,1.2037,1.1256,1.0047,1.0668,1.0474,0.9304,0.9265,0.8682,0.7513,0.7006,0.6783,0.6769,0.5124,0.4366,0.4315,0.3119,0.261,0.262,0.2683,0.2692,0.2692,0.2692,0.2692,0.2692,0.2692,0.2692,0.2692,0.2692,0.2692,0.2692,0.0,0.0,0.0,0.0,0.0,0.0,0.8698,0.8791,0.8791,0.8791,0.8791,0.8791,0.8791,0.8791,0.8791,0.8791,0.8245,0.0,0.0,0.0,0.0,0.0,0.0,0.0,0.0,0.0,0.8791,0.8791,0.8791,0.8791,0.8791,0.8791,0.8791,0.8791,0.0,0.0,0.0,0.0,0.0,0.0,0.0,0.0,0.8791,0.0,0.0,0.0,0.0,0.0,0.0,0.0,0.0,0.0,0.0,0.9973,0.8767,0.9429,0.9988,1.0409,1.0417,1.0322,1.0108,0.9723,0.9167,0.8591,0.8129,0.7699,0.7403,0.7396,0.7251,0.7058,0.6938,0.7177,0.7498,0.7773,0.8323,0.8927,0.9523,0.9998,1.0446,1.086,1.1077,1.1431,1.2036,1.2325,1.2501,1.2501,1.094,1.0008,1.0008,0.8448,0.7552,0.7517,0.7517,0.7513,0.7513,0.5874,0.5044,0.5104,0.3436,0.2631,0.2605,0.2605,0.2622,0.2692,0.2692,0.2692,0.2692,0.2692,0.2692,0.2692,0.2692,0.2692,0.2692,0.2692,0.2692,0.2692,0.0,0.0,0.0,0.0,0.0,0.0,0.0,0.8791,0.8791,0.8791,0.8791,0.8791,0.8791,0.8791,0.8791,0.8791,0.8457,0.0,0.0,0.0,0.0,0.0,0.0,0.0,0.0,0.8657,0.8885,0.9071,0.9071,0.9191,0.942,0.942,0.9299,0.9071,0.9071,0.8978,0.0,0.0,0.0,0.0,0.0,0.8791,0.8791,0.0,0.0,0.0,0.0,0.0,0.0,0.0,0.0,0.0,0.0,0.0,0.0,0.8951,0.9316,0.9603,0.9747,0.9721,0.9519,0.8977,0.8711,0.8389,0.7736,0.7498,0.7362,0.7215,0.7154,0.7085,0.7038,0.7238,0.7525,0.7878,0.8358,0.8886,0.9381,0.993,1.0405,1.0718,1.1375,1.1887,1.2077,1.1326,1.0785,1.0785,0.9226,0.7786,0.6651,0.6069,0.5796,0.5796,0.5796,0.5248,0.4079,0.3601,0.3383,0.3396,0.2843,0.2589,0.2606,0.2628,0.2683,0.2692,0.2692,0.2692,0.2692,0.2692,0.2692,0.2692,0.2692,0.2692,0.2692,0.2692,0.2692,0.2692,0.0,0.0,0.0,0.0,0.0,0.0,0.0,0.8738,0.8791,0.8791,0.8791,0.8791,0.8791,0.8791,0.8791,0.8791,0.8644,0.0,0.0,0.0,0.0,0.0,0.0,0.0,0.855,0.8804,0.9031,0.9204,0.9324,0.9485,0.9701,0.9701,0.9579,0.9391,0.9244,0.9111,0.0,0.0,0.0,0.0,0.8791,0.8791,0.8791,0.0,0.0,0.0,0.0,0.0,0.0,0.0,0.0,0.0,0.0,0.0,0.0,0.0,0.8726,0.887,0.9127,0.9168,0.9007,0.8454,0.8263,0.8094,0.7526,0.7348,0.7258,0.7119,0.7098,0.7078,0.7024,0.7231,0.7525,0.7864,0.8351,0.8866,0.9349,0.9927,1.0465,1.0839,1.1041,1.1158,1.1158,0.9867,0.9071,0.9071,0.7513,0.6108,0.5053,0.439,0.4038,0.4038,0.4038,0.3578,0.2532,0.259,0.2611,0.2593,0.2589,0.2611,0.2624,0.2684,0.2692,0.2692,0.2692,0.2692,0.0,0.2692,0.2692,0.2692,0.2692,0.2692,0.2692,0.2692,0.2692,0.2692,0.0,0.0,0.0,0.0,0.0,0.0,0.0,0.8617,0.8778,0.8804,0.8791,0.8791,0.8791,0.8791,0.8791,0.8791,0.0,0.0,0.0,0.0,0.0,0.0,0.0,0.0,0.8818,0.9098,0.9257,0.9311,0.9633,0.9808,0.9821,0.9821,0.9794,0.9754,0.9445,0.9257,0.9177,0.0,0.0,0.0,0.8791,0.8791,0.0,0.0,0.0,0.0,0.0,0.0,0.0,0.0,0.0,0.0,0.0,0.0,0.0,0.0,0.0,0.0,0.0,0.8629,0.8543,0.8076,0.7868,0.7708,0.7451,0.7244,0.0,0.7098,0.7098,0.7058,0.6958,0.7197,0.7512,0.7807,0.835,0.8886,0.9347,0.9944,1.0574,1.1159,1.0245,0.9618,0.9628,0.8223,0.7318,0.7318,0.5756,0.4818,0.4818,0.3336,0.2514,0.2514,0.2517,0.2532,0.2599,0.2602,0.2592,0.2606,0.2607,0.2624,0.2692,0.2692,0.2692,0.2692,0.2692,0.2692,0.2692,0.2692,0.2692,0.2692,0.2692,0.2692,0.2692,0.2692,0.2692,0.2692,0.0,0.0,0.0,0.0,0.0,0.0,0.0,0.0,0.0,0.0,0.8791,0.8791,0.8791,0.8791,0.8791,0.0,0.0,0.0,0.0,0.0,0.0,0.0,0.0,0.0,0.9098,0.9418,0.9808,1.0263,1.0557,1.0795,1.0992,1.0992,1.0782,1.0385,1.0318,0.9873,0.9177,0.8911,0.0,0.0,0.8791,0.8791,0.0,0.0,0.0,0.0,0.9701,1.009,0.0,0.0,0.0,0.0,0.0,0.0,0.0,0.0,0.7908,0.7763,0.7839,0.0,0.8007,0.7639,0.7515,0.743,0.0,0.7148,0.7098,0.7098,0.7098,0.7148,0.7251,0.7421,0.7719,0.8241,0.8642,0.9054,0.9639,1.0305,1.0934,1.1457,1.04,0.965,0.9737,0.7212,0.56,0.56,0.4038,0.3101,0.3101,0.271,0.2514,0.2514,0.2537,0.2592,0.26,0.2581,0.2611,0.2606,0.2671,0.2686,0.2692,0.2692,0.2692,0.2692,0.2692,0.2692,0.2692,0.2692,0.2692,0.2692,0.2692,0.2692,0.2692,0.2692,0.2692,0.2692,0.0,0.0,0.0,0.0,0.0,0.0,0.0,0.0,0.0,0.0,0.0,0.8791,0.8791,0.8791,0.0,0.0,0.0,0.0,0.0,0.0,0.0,0.0,0.0,0.8965,0.9418,0.9875,1.0383,1.0972,1.1266,1.1543,1.1806,1.169,1.1463,1.1176,1.061,0.994,0.9177,0.8911,0.8791,0.8791,0.8791,0.0,0.0,0.0,0.0,0.0,0.9701,1.009,0.0,1.0774,0.9925,0.8869,0.0,0.0,0.0,0.0,0.7625,0.7513,0.7481,0.7591,0.7647,0.733,0.7265,0.7244,0.7112,0.7098,0.7119,0.7208,0.7244,0.7312,0.7536,0.7699,0.797,0.8499,0.8899,0.9366,1.0103,1.061,1.0801,1.0478,0.9282,0.8219,0.7553,0.5289,0.3844,0.3844,0.3023,0.2514,0.2514,0.2514,0.2514,0.2514,0.2584,0.2606,0.262,0.2608,0.2597,0.2626,0.2684,0.2692,0.2692,0.2692,0.2692,0.2692,0.2692,0.2692,0.2692,0.2692,0.2692,0.2692,0.2692,0.2692,0.2692,0.2692,0.2692,0.2692,0.0,0.0,0.0,0.0,0.0,0.0,0.0,0.0,0.0,0.0,0.0,0.0,0.0,0.0,0.0,0.0,0.0,0.0,0.0,0.0,0.0,0.0,0.8965,0.9364,0.9754,1.0383,1.1012,1.1606,1.1971,1.2283,1.2486,1.227,1.2056,1.1859,1.0648,0.9805,0.9257,0.8938,0.8791,0.8791,0.8791,0.0,0.0,0.0,0.0,0.0,0.0,0.0,0.0,1.046,0.9681,0.8766,0.8831,0.0,0.0,0.0,0.0,0.0,0.726,0.7339,0.7393,0.7165,0.7098,0.7098,0.7148,0.7154,0.7195,0.7396,0.7444,0.7546,0.7794,0.7986,0.8257,0.871,0.9012,0.9494,1.0274,1.0312,0.9909,0.8941,0.7603,0.6236,0.4968,0.3432,0.2514,0.2514,0.2514,0.2514,0.2514,0.2514,0.2517,0.2521,0.2551,0.262,0.2608,0.2593,0.2621,0.2692,0.2692,0.2692,0.2692,0.2692,0.2692,0.2692,0.2692,0.2692,0.2692,0.2692,0.2692,0.2692,0.2692,0.2692,0.2692,0.2692,0.2692,0.2692,0.0,0.0,0.0,0.0,0.0,0.0,0.0,0.0,0.0,0.0,0.0,0.0,0.0,0.0,0.0,0.0,0.0,0.0,0.0,0.0,0.0,0.9071,0.915,0.9471,1.0033,1.0846,1.1703,1.2583,1.3093,1.3347,1.34,1.3347,1.2807,1.1859,1.0648,0.9927,0.9579,0.9031,0.8791,0.8791,0.8791,0.0,0.0,0.0,0.0,0.0,0.0,0.0,0.0,0.9875,0.9179,0.851,0.8243,0.0,0.0,0.0,0.0,0.0,0.6992,0.7104,0.7143,0.7121,0.7098,0.7154,0.7305,0.7355,0.7403,0.7536,0.7658,0.7794,0.7946,0.8311,0.871,0.9063,0.8715,0.8502,0.8884,0.8058,0.7457,0.7476,0.6118,0.5086,0.4995,0.3488,0.2514,0.2514,0.2514,0.2514,0.2514,0.2514,0.2526,0.2592,0.2581,0.2609,0.2598,0.2603,0.2621,0.2692,0.2692,0.2692,0.2692,0.2692,0.2692,0.2692,0.2692,0.2692,0.2692,0.2692,0.2692,0.2692,0.2692,0.2692,0.2692,0.2692,0.2692,0.265,0.0,0.0,0.0,0.0,0.0,0.0,0.0,0.0,0.0,0.0,0.0,0.0,0.0,0.0,0.0,0.0,0.0,0.0,0.0,0.0,0.8925,0.919,0.9511,1.0045,1.0792,1.1383,1.227,1.3487,1.3748,1.4041,1.4349,1.3847,1.2993,1.1873,1.0985,1.0247,0.9674,0.9205,0.8938,0.8791,0.0,0.0,0.0,0.0,0.0,0.0,0.0,0.0,0.0,0.0,0.9048,0.844,0.8094,0.0,0.0,0.0,0.0,0.0,0.6902,0.7023,0.7119,0.7244,0.7265,0.7285,0.7376,0.7519,0.7651,0.7783,0.8018,0.8248,0.8453,0.8757,0.8871,0.8545,0.8402,0.8141,0.7648,0.7119,0.6568,0.591,0.5229,0.4485,0.3722,0.2944,0.2514,0.2514,0.2514,0.2514,0.2514,0.2514,0.2529,0.2599,0.2587,0.2616,0.2605,0.2622,0.2679,0.2692,0.2692,0.2692,0.2692,0.2692,0.2692,0.2692,0.2692,0.2692,0.2692,0.2692,0.2692,0.2692,0.2692,0.2692,0.265,0.2398,0.2314,0.2272,0.0,0.0,0.0,0.0,0.0,0.0,0.0,0.0,0.0,0.0,0.0,0.0,0.0,0.0,0.0,0.0,0.0,0.0,0.0,0.8791,0.8951,0.9297,0.9818,1.0512,1.1375,1.1931,1.2858,1.4188,1.4344,1.4611,1.4995,1.4034,1.302,1.1962,1.1306,1.0557,0.9766,0.9364,0.9084,0.8885,0.0,0.0,0.0,0.0,0.0,0.0,0.0,0.0,0.0,0.0,0.0,0.0,0.0,0.0,0.0,0.6949,0.6905,0.6736,0.6864,0.7039,0.7208,0.741,0.7444,0.7464,0.7532,0.776,0.8011,0.8142,0.8431,0.8736,0.8947,0.8909,0.8673,0.8115,0.7697,0.7113,0.6286,0.5954,0.5367,0.4318,0.4221,0.3804,0.2629,0.2514,0.2514,0.2514,0.2514,0.2514,0.2514,0.2521,0.2538,0.2608,0.2597,0.2627,0.2615,0.2682,0.2692,0.2692,0.2692,0.2692,0.2692,0.2692,0.2692,0.2692,0.2692,0.2692,0.2692,0.2692,0.2692,0.2692,0.2692,0.265,0.2482,0.2146,0.1934,0.1766,0.0,0.0,0.0,0.0,0.0,0.0,0.0,0.0,0.0,0.0,0.0,0.0,0.0,0.0,0.0,0.0,0.0,0.0,0.0,0.8791,0.9058,0.9647,0.9953,1.0512,1.1375,1.2513,1.354,1.4461,1.503,1.5213,1.4995,1.4034,1.312,1.2238,1.1369,1.0648,1.0032,0.9457,0.919,0.915,0.8898,0.0,0.0,0.0,0.0,0.0,0.0,0.0,0.0,0.0,0.0,0.0,0.0,0.0,0.6397,0.6949,0.6905,0.6736,0.6864,0.7136,0.7416,0.7543,0.7584,0.7651,0.7905,0.8221,0.8479,0.8628,0.8927,0.9166,0.9158,0.8425,0.7919,0.829,0.6193,0.4548,0.4655,0.3526,0.2693,0.2654,0.2648,0.2629,0.2514,0.2514,0.2514,0.2514,0.2514,0.2514,0.2514,0.2541,0.261,0.2598,0.2587,0.2617,0.2688,0.2691,0.2692,0.2692,0.2692,0.2692,0.2692,0.2692,0.2692,0.2692,0.2692,0.2692,0.2692,0.2692,0.2692,0.2692,0.2692,0.244,0.2061,0.2018,0.1724,0.1304,0.0,0.0,0.0,0.0,0.0,0.0,0.0,0.0,0.0,0.0,0.0,0.0,0.0,0.0,0.0,0.0,0.0,0.0,0.0,0.8791,0.9072,0.9674,1.0156,1.0905,1.1944,1.2617,1.3554,1.4825,1.5378,1.5431,1.4972,1.4242,1.346,1.2583,1.165,1.0942,1.0383,0.9938,0.9658,0.9512,0.9392,0.9245,0.0,0.0,0.0,0.0,0.0,0.0,0.0,0.0,0.8226,0.7736,0.6996,0.6541,0.6401,0.6889,0.6881,0.6776,0.7109,0.7353,0.7621,0.7961,0.8153,0.8296,0.8309,0.8641,0.8941,0.9002,0.9328,0.9625,0.9852,0.8935,0.7907,0.7213,0.5543,0.4041,0.323,0.2719,0.2435,0.2503,0.2496,0.2514,0.2514,0.2514,0.2514,0.2514,0.2514,0.2514,0.2514,0.2584,0.2613,0.2601,0.259,0.262,0.2692,0.2692,0.2692,0.2692,0.2692,0.2692,0.2692,0.2692,0.2692,0.2692,0.2692,0.2692,0.2692,0.2692,0.2692,0.265,0.2398,0.2146,0.1935,0.1388,0.1094,0.0884,0.0,0.0,0.0,0.0,0.0,0.0,0.0,0.0,0.0,0.0,0.0,0.0,0.0,0.0,0.0,0.0,0.0,0.0,0.8791,0.8791,0.9072,0.9674,1.0278,1.1095,1.2144,1.2658,1.3561,1.4852,1.5311,1.5351,1.4972,1.4269,1.3541,1.2757,1.1935,1.1249,1.0707,1.0396,1.0087,0.982,0.9741,0.9512,0.0,0.0,0.0,0.0,0.0,0.0,0.0,0.0,0.7836,0.74,0.6786,0.647,0.639,0.6861,0.6861,0.6797,0.7274,0.7539,0.7773,0.8253,0.8621,0.8845,0.8838,0.9138,0.939,0.939,0.9686,0.9904,0.9749,0.8629,0.7302,0.5907,0.4593,0.3419,0.2465,0.2359,0.2439,0.2478,0.2502,0.2514,0.2514,0.2514,0.2514,0.2514,0.2514,0.2518,0.2529,0.2557,0.2586,0.2615,0.2605,0.2672,0.2692,0.2692,0.2692,0.2692,0.2692,0.2692,0.2692,0.2692,0.2692,0.2692,0.2692,0.2692,0.2692,0.2692,0.2608,0.244,0.1976,0.1682,0.1515,0.0926,0.0589,0.0421,0.0,0.0,0.0,0.0,0.0,0.0,0.0,0.0,0.0,0.0,0.0,0.0,0.0,0.0,0.0,0.0,0.0,0.0,0.8791,0.8791,0.9072,0.9674,1.0278,1.1002,1.1873,1.2746,1.362,1.4501,1.4839,1.5008,1.4959,1.4034,1.332,1.2776,1.2167,1.156,1.0982,1.072,1.041,1.0085,0.9806,0.9498,0.9204,0.0,0.0,0.0,0.0,0.0,0.0,0.0,0.7324,0.7383,0.6786,0.6452,0.6397,0.6861,0.6867,0.6803,0.7274,0.759,0.7923,0.8377,0.8852,0.9267,0.9544,0.969,0.9792,0.9798,1.0073,0.9922,0.8629,0.7245,0.5889,0.4608,0.3216,0.2322,0.2373,0.2386,0.2407,0.2507,0.2514,0.2514,0.2514,0.2514,0.2514,0.2514,0.2514,0.2527,0.2597,0.2586,0.2616,0.2605,0.2676,0.2692,0.2692,0.2692,0.2692,0.2692,0.2692,0.2692,0.2692,0.2692,0.2692,0.2692,0.2692,0.2692,0.2692,0.2692,0.2398,0.1934,0.1472,0.1052,0.0716,0.0716,0.0379,0.0,0.0,0.0,0.0,0.0,0.0,0.0,0.0,0.0,0.0,0.0,0.0,0.0,0.0,0.0,0.0,0.0,0.0,0.0,0.8791,0.8791,0.8965,0.9324,0.9925,1.0568,1.1253,1.2336,1.3447,1.4501,1.4839,1.4879,1.4643,1.394,1.342,1.3059,1.2243,1.1806,1.1601,1.1092,1.0808,1.0715,1.0452,1.0022,0.9552,0.0,0.0,0.0,0.0,0.0,0.0,0.0,0.0,0.0,0.6396,0.6346,0.6368,0.6694,0.6887,0.7066,0.7434,0.7852,0.8241,0.8662,0.9062,0.9451,0.9798,0.992,1.0042,1.0353,1.0527,1.0181,0.8922,0.7546,0.6115,0.4627,0.3203,0.2308,0.2377,0.2386,0.2407,0.2507,0.2514,0.2514,0.2514,0.2514,0.2514,0.2514,0.2514,0.2527,0.2597,0.2586,0.2616,0.2605,0.2676,0.2692,0.2692,0.2692,0.2692,0.2692,0.2692,0.2692,0.2692,0.2692,0.2692,0.2692,0.2692,0.2692,0.2692,0.2356,0.1934,0.1472,0.1052,0.08,0.0674,0.0337,0.0126,0.0,0.0,0.0,0.0,0.0,0.0,0.0,0.0,0.0,0.8072,0.8577,0.8738,0.8791,0.0,0.0,0.0,0.8644,0.8644,0.0,0.8644,0.8738,0.8925,0.919,0.9685,1.0312,1.1142,1.1882,1.2765,1.3814,1.4122,1.4242,1.4141,1.354,1.32,1.3019,1.235,1.2002,1.1873,1.1369,1.1102,1.0985,1.0707,1.0238,0.9701,0.0,0.0,0.0,0.0,0.0,0.0,0.0,0.0,0.0,0.6067,0.6158,0.6265,0.6538,0.6803,0.7127,0.757,0.8011,0.8492,0.8913,0.9252,0.9591,1.0008,1.015,1.0305,1.0698,1.0779,1.0219,0.8333,0.7301,0.6033,0.3918,0.2876,0.2368,0.2379,0.2433,0.2459,0.2508,0.2514,0.2514,0.2514,0.2514,0.2514,0.2514,0.2526,0.2545,0.2615,0.2604,0.2593,0.2622,0.2683,0.2692,0.2692,0.2692,0.2692,0.2692,0.2692,0.2692,0.2692,0.2692,0.2692,0.2692,0.2524,0.244,0.2356,0.1725,0.1304,0.101,0.0589,0.0421,0.0379,0.0084,0.0,0.0,0.0,0.0,0.0,0.0,0.0,0.0,0.0,0.7743,0.8027,0.8322,0.8564,0.8711,0.0,0.0,0.0,0.8362,0.8389,0.8402,0.8402,0.8644,0.8911,0.915,0.9486,1.0167,1.1272,1.1312,1.1757,1.2642,1.2992,1.33,1.3547,1.3032,1.2803,1.2789,1.2457,1.2158,1.1908,1.1597,1.1303,1.1009,1.0747,1.0265,0.9701,0.9643,0.0,0.0,0.0,0.0,0.0,0.0,0.0,0.0,0.5796,0.592,0.6153,0.6428,0.6709,0.7066,0.7621,0.814,0.8628,0.9056,0.943,0.9781,1.0233,1.0419,1.0616,1.0874,1.0839,0.9932,0.7318,0.6709,0.5665,0.2763,0.2358,0.2388,0.2382,0.245,0.2518,0.2511,0.2514,0.2514,0.2514,0.2514,0.2514,0.2514,0.2542,0.2613,0.26,0.259,0.262,0.2691,0.2692,0.2692,0.2692,0.2692,0.2692,0.2692,0.2692,0.2692,0.2692,0.2692,0.2692,0.2608,0.2188,0.1934,0.1809,0.101,0.0674,0.0589,0.0168,0.0,0.0,0.0,0.0,0.0,0.0,0.0,0.0,0.0,0.0,0.0,0.7548,0.7814,0.8049,0.8013,0.8059,0.8099,0.8099,0.8032,0.0,0.8005,0.8256,0.8402,0.8402,0.8644,0.8818,0.8885,0.9151,0.9644,1.0365,1.0637,1.0972,1.1387,1.2395,1.3019,1.3273,1.2939,1.2803,1.2789,1.2457,1.2265,1.2203,1.1908,1.161,1.1286,1.1022,1.0423,0.9657,0.9166,0.853,0.0,0.0,0.0,0.0,0.0,0.0,0.0,0.5612,0.5818,0.6088,0.6416,0.6879,0.7355,0.7577,0.814,0.8716,0.8906,0.9564,1.0188,1.0399,1.0656,1.0867,1.1077,1.0262,0.8968,0.728,0.5972,0.4535,0.2622,0.2358,0.2388,0.2382,0.245,0.2518,0.2511,0.2514,0.2514,0.2514,0.2514,0.2514,0.2514,0.2542,0.2613,0.26,0.259,0.262,0.2691,0.2692,0.2692,0.2692,0.2692,0.2692,0.2692,0.2692,0.2692,0.2692,0.2692,0.2482,0.2146,0.2061,0.1599,0.0968,0.0758,0.0463,0.0126,0.0042,0.0,0.0,0.0,0.0,0.0,0.0,0.0,0.0,0.0,0.0,0.0,0.0,0.0,0.8449,0.8334,0.8505,0.8511,0.8266,0.8094,0.0,0.0,0.7879,0.8027,0.815,0.8444,0.8657,0.8804,0.8938,0.9217,0.9657,0.9832,1.0222,1.0798,1.1578,1.2149,1.2591,1.2564,1.2551,1.2551,1.2371,1.2305,1.2278,1.2015,1.1721,1.1345,1.0752,1.0082,0.9351,0.8669,0.7969,0.7253,0.6658,0.0,0.0,0.0,0.0,0.0,0.0,0.0,0.5888,0.628,0.6763,0.7238,0.7604,0.814,0.871,0.9122,0.9774,1.0329,1.0403,1.0731,1.107,1.1179,1.008,0.8683,0.7278,0.5742,0.4194,0.2609,0.238,0.241,0.2442,0.2472,0.2496,0.2512,0.2514,0.2514,0.2514,0.2514,0.2514,0.2514,0.2555,0.2586,0.2601,0.2645,0.2676,0.2692,0.2692,0.2692,0.2692,0.2692,0.2692,0.2692,0.2692,0.2566,0.2356,0.2356,0.223,0.1976,0.1557,0.1137,0.0674,0.0463,0.021,0.0,0.0,0.0,0.0,0.0,0.0,0.0,0.0,0.0,0.0,0.0,0.0,0.0,0.0,0.0,0.0,0.8737,0.9029,0.9034,0.8502,0.8186,0.7862,0.0,0.0,0.0,0.7885,0.8257,0.8563,0.8791,0.8791,0.8911,0.9138,0.9177,0.9605,1.0439,1.0811,1.1279,1.1815,1.2144,1.2331,1.2403,1.2403,1.2403,1.2358,1.2136,1.1753,1.1201,1.0429,0.9676,0.8931,0.8227,0.7458,0.673,0.6611,0.6077,0.5431,0.5371,0.0,0.0,0.0,0.0,0.5654,0.611,0.6539,0.6992,0.7584,0.814,0.8737,0.9462,0.9964,1.0322,1.0342,1.0791,1.12,1.12,0.9888,0.8383,0.7206,0.5525,0.3875,0.2596,0.2403,0.2433,0.2503,0.2495,0.2514,0.2514,0.2514,0.2514,0.2514,0.2514,0.2514,0.2514,0.2568,0.2601,0.2601,0.266,0.2692,0.2692,0.2692,0.2692,0.2692,0.2692,0.2692,0.2692,0.2608,0.2356,0.1976,0.1851,0.1767,0.1725,0.101,0.0674,0.0547,0.0168,0.0,0.0,0.0,0.0,0.0,0.0,0.0,0.0,0.0,0.0,0.0,0.0,0.0,0.0,0.0,0.0,0.0,0.0,0.851,0.8411,0.7877,0.7781,0.7577,0.7113,0.7332,0.7613,0.7885,0.0,0.0,0.8791,0.8791,0.8818,0.8858,0.9084,0.9405,0.9821,1.061,1.1169,1.1472,1.2051,1.2457,1.273,1.273,1.273,1.2717,1.2709,1.1954,1.0784,1.0658,0.9817,0.8593,0.7968,0.7411,0.6876,0.6227,0.581,0.5537,0.5244,0.5103,0.0,0.0,0.0,0.5515,0.591,0.6356,0.6831,0.7328,0.814,0.9,0.9609,1.0039,1.0342,1.0432,1.0859,1.12,1.12,0.9106,0.7206,0.7038,0.4618,0.2562,0.2411,0.2403,0.2433,0.2503,0.2495,0.2514,0.2514,0.2514,0.2514,0.2514,0.2514,0.2514,0.2514,0.2568,0.2601,0.2601,0.266,0.2692,0.2692,0.2692,0.2692,0.2692,0.2692,0.2692,0.2692,0.2272,0.2061,0.1976,0.1221,0.0884,0.0884,0.0758,0.0463,0.0084,0.0042,0.0,0.0,0.0,0.0,0.0,0.0,0.0,0.0,0.0,0.0,0.0,0.0,0.0,0.0,0.0,0.0,0.0,0.0,0.0,0.8306,0.7765,0.7703,0.7516,0.7035,0.7124,0.7404,0.7872,0.8323,0.8644,0.8791,0.8791,0.8791,0.8791,0.8925,0.9205,0.9701,1.0234,1.0805,1.1402,1.1864,1.2323,1.2803,1.2803,1.2878,1.298,1.2331,1.1627,1.0832,0.9823,0.8954,0.8198,0.7547,0.7181,0.6941,0.6457,0.6135,0.5879,0.5515,0.5259,0.5109,0.5092,0.0,0.0,0.0,0.6234,0.6627,0.7335,0.8079,0.8804,0.932,0.9734,1.0086,1.0317,1.0656,1.0724,0.9981,0.8258,0.6913,0.6998,0.4436,0.2312,0.2395,0.2414,0.244,0.2488,0.2506,0.2514,0.2514,0.2514,0.2514,0.2514,0.2514,0.2521,0.2538,0.2578,0.2609,0.2585,0.2669,0.2692,0.2692,0.2692,0.2692,0.2692,0.2692,0.2566,0.2314,0.185,0.1473,0.1263,0.0589,0.0463,0.0674,0.0421,0.021,0.0,0.0,0.0,0.0,0.0,0.0,0.0,0.0,0.0,0.0,0.0,0.0,0.0,0.0,0.0,0.0,0.0,0.0,0.0,0.0,0.0,0.8401,0.7867,0.0,0.0,0.0,0.7046,0.7219,0.7764,0.8096,0.8363,0.8564,0.8657,0.8697,0.8697,0.8764,0.9058,0.9566,0.9925,1.0512,1.1312,1.1708,1.2221,1.2803,1.2864,1.2869,1.279,1.2026,1.128,1.0507,0.9149,0.8356,0.7932,0.7387,0.7154,0.7072,0.6821,0.6528,0.6233,0.5917,0.5577,0.5281,0.5241,0.5298,0.0,0.0,0.0,0.6566,0.7348,0.8002,0.8553,0.8968,0.9408,0.9836,1.0107,1.0453,1.0345,0.9012,0.769,0.6682,0.6422,0.4138,0.2316,0.2377,0.2386,0.2406,0.2506,0.2514,0.2514,0.2514,0.2514,0.2514,0.2514,0.2514,0.2527,0.2597,0.2586,0.2615,0.2603,0.2676,0.2692,0.2692,0.2692,0.2692,0.2692,0.2692,0.2482,0.1976,0.1514,0.1094,0.0674,0.021,0.021,0.0505,0.0168,0.0,0.0,0.0,0.0,0.0,0.0,0.0,0.0,0.0,0.0,0.0,0.0,0.0,0.0,0.0,0.0,0.0,0.0,0.0,0.0,0.0,0.0,0.8676,0.8143,0.8088,0.7922,0.7508,0.7188,0.715,0.7502,0.7764,0.7939,0.7952,0.8243,0.0,0.8415,0.8671,0.8938,0.9217,0.9804,1.0421,1.1022,1.1614,1.2221,1.2816,1.3072,1.2691,1.1886,1.2147,1.1107,0.928,0.9189,0.8693,0.798,0.7763,0.7537,0.7358,0.7153,0.6815,0.6462,0.6385,0.6088,0.5745,0.561,0.5491,0.5426,0.0,0.0,0.0,0.728,0.7845,0.8383,0.8655,0.9184,0.9659,0.9778,1.0265,1.0286,0.8889,0.7592,0.631,0.4962,0.3395,0.2316,0.2377,0.2386,0.2406,0.2506,0.2514,0.2514,0.2514,0.2514,0.2514,0.2514,0.2514,0.2527,0.2597,0.2586,0.2615,0.2603,0.2676,0.2692,0.2692,0.2692,0.2692,0.2692,0.2692,0.2482,0.1976,0.1514,0.1094,0.0674,0.021,0.0,0.0042,0.0,0.0,0.0,0.0,0.0,0.0,0.0,0.0,0.0,0.0,0.0,0.0,0.0,0.0,0.0,0.0,0.0,0.0,0.0,0.0,0.0,0.0,0.0,0.0,0.0,0.7971,0.7913,0.7762,0.7646,0.7632,0.7751,0.7846,0.79,0.79,0.8005,0.8176,0.8402,0.8483,0.8764,0.9204,0.9632,1.0156,1.076,1.1316,1.1531,1.1464,1.1897,1.21,1.2045,1.0931,1.0079,0.9444,0.8573,0.8057,0.779,0.7529,0.7444,0.7442,0.7244,0.7076,0.6916,0.6667,0.6373,0.609,0.5922,0.5705,0.5539,0.5593,0.6001,0.6512,0.6865,0.7335,0.7838,0.8328,0.8804,0.9237,0.9575,0.9967,0.9659,0.7564,0.6766,0.5761,0.3527,0.2673,0.2316,0.2377,0.2386,0.2406,0.2506,0.2514,0.2514,0.2514,0.2514,0.2514,0.2514,0.2514,0.2527,0.2597,0.2586,0.2615,0.2603,0.2676,0.2692,0.2692,0.2692,0.2692,0.2692,0.2398,0.2018,0.1556,0.1136,0.0674,0.0253,0.0084,0.0,0.0,0.0,0.0,0.0,0.0,0.0,0.0,0.0,0.0,0.0,0.0,0.0,-0.0168,0.0,0.0,0.0,0.0,0.0,0.0,0.0,0.0,0.0,0.8388,0.0,0.0,0.0,0.0,0.8031,0.7912,0.79,0.79,0.79,0.7806,0.7764,0.7764,0.7764,0.7909,0.8216,0.823,0.8498,0.9071,0.9378,0.9833,1.0437,1.0764,1.085,1.0695,1.054,1.0757,1.1172,0.9997,0.944,0.9243,0.8308,0.793,0.7916,0.7693,0.7665,0.7715,0.7638,0.7512,0.7368,0.7123,0.6819,0.6512,0.6261,0.5976,0.5739,0.5739,0.6001,0.6368,0.662,0.6993,0.7428,0.8002,0.8452,0.8865,0.9264,0.9327,0.8676,0.6546,0.5837,0.4928,0.2691,0.2286,0.2305,0.2374,0.2386,0.2406,0.2506,0.2514,0.2514,0.2514,0.2514,0.2514,0.2514,0.2514,0.2527,0.2597,0.2586,0.2615,0.2603,0.2676,0.2692,0.2692,0.2692,0.2608,0.2482,0.2146,0.1682,0.1094,0.0842,0.0463,0.0,0.0,0.0,0.0,0.0,0.0,0.0,0.0,0.0,0.0,0.0,0.0,0.0,0.0,0.0,-0.0253,0.0,0.0,0.0,0.0,0.0,0.0,0.0,0.0,0.7925,0.7927,0.0,0.0,0.0,0.0,0.0,0.7952,0.7939,0.7925,0.7914,0.7667,0.7515,0.7502,0.7502,0.7627,0.7899,0.79,0.8192,0.8791,0.9084,0.9496,1.0053,1.0025,1.0217,1.0551,0.9067,0.8684,0.9184,0.9514,0.9249,0.8593,0.8448,0.8405,0.8375,0.8244,0.8205,0.8226,0.835,0.8153,0.7811,0.7743,0.7443,0.7053,0.6641,0.6274,0.6018,0.5993,0.6139,0.6354,0.0,0.0,0.0,0.7655,0.8133,0.8547,0.8825,0.8381,0.751,0.5992,0.4962,0.3892,0.2455,0.2262,0.2316,0.2366,0.2382,0.2405,0.2503,0.2512,0.2512,0.2512,0.2514,0.2514,0.2514,0.2514,0.2526,0.2596,0.2585,0.2615,0.2603,0.2675,0.2692,0.2692,0.2692,0.2482,0.2018,0.1976,0.1557,0.0716,0.0674,0.0421,0.0,0.0,0.0,0.0,0.0,0.0,0.0,0.0,0.0,0.0,0.0,0.0,0.0,0.0,-0.0042,-0.0337,0.0,0.0,0.0,0.0,0.0,0.7979,0.8216,0.8269,0.8323,0.0,0.0,0.0,0.8711,0.8684,0.8657,0.8564,0.8551,0.8458,0.8282,0.8201,0.7946,0.7515,0.7502,0.7627,0.7899,0.79,0.8192,0.8791,0.9312,0.9372,0.9038,0.9697,0.9473,0.853,0.8448,0.8325,0.8199,0.8377,0.8469,0.8456,0.8367,0.8301,0.8258,0.8255,0.8334,0.8445,0.857,0.8477,0.8294,0.8185,0.7822,0.7373,0.681,0.6457,0.6192,0.6045,0.6039,0.6139,0.6348,0.0,0.0,0.0,0.0,0.0,0.8411,0.8658,0.8224,0.6017,0.5458,0.4708,0.2542,0.2178,0.224,0.2252,0.2349,0.2405,0.2443,0.2467,0.2481,0.2481,0.2502,0.2514,0.2514,0.2514,0.2518,0.2526,0.2574,0.2605,0.2613,0.2664,0.2692,0.2692,0.2692,0.2482,0.2018,0.1682,0.122,0.0716,0.0337,0.0126,0.0,0.0,0.0,0.0,0.0,0.0,0.0,0.0,0.0,0.0,0.0,0.0,0.0,0.0,-0.0842,-0.2228,0.0,0.0,0.7919,0.8083,0.8204,0.8378,0.8697,0.8738,0.8844,0.0,0.0,0.0,0.9553,0.9432,0.9338,0.9338,0.9111,0.8898,0.8751,0.8523,0.8241,0.7879,0.7734,0.7802,0.8097,0.7749,0.7846,0.8421,0.8547,0.8496,0.8272,0.8648,0.8426,0.7702,0.7673,0.7643,0.7633,0.7719,0.8012,0.839,0.8308,0.8254,0.8301,0.8488,0.8601,0.8703,0.8913,0.8893,0.8757,0.8553,0.8113,0.7604,0.7129,0.6817,0.6573,0.6295,0.6213,0.6234,0.6341,0.6539,0.677,0.7024,0.0,0.0,0.8126,0.8137,0.756,0.5734,0.5085,0.4262,0.2393,0.2104,0.2153,0.215,0.2243,0.235,0.2393,0.242,0.2478,0.2505,0.2485,0.25,0.2512,0.2514,0.2514,0.2514,0.2557,0.2594,0.2619,0.2667,0.2692,0.2692,0.2524,0.2188,0.1724,0.1262,0.0842,0.0421,0.0126,0.0,0.0,0.0,0.0,0.0,0.0,0.0,0.0,0.0,0.0,0.0,0.0,0.0,0.0,0.0,-0.1135,-0.294,0.0,0.0,0.8415,0.8442,0.8657,0.8925,0.9164,0.9257,0.9404,0.0,1.0007,1.0341,1.0707,1.0423,1.0205,1.0205,0.9571,0.9199,0.9199,0.8619,0.8254,0.824,0.7929,0.789,0.8188,0.7438,0.7298,0.7811,0.7363,0.7329,0.767,0.7348,0.732,0.7512,0.688,0.6872,0.735,0.7373,0.7778,0.8368,0.8258,0.8294,0.8477,0.8818,0.8973,0.9021,0.9347,0.9376,0.9186,0.8859,0.837,0.7834,0.758,0.7333,0.706,0.6688,0.6546,0.6518,0.6518,0.6627,0.679,0.7026,0.7323,0.0,0.7878,0.7274,0.6395,0.549,0.4517,0.3494,0.2339,0.2192,0.2213,0.2084,0.2117,0.2225,0.2375,0.2361,0.2386,0.2485,0.2495,0.247,0.2502,0.2504,0.2506,0.2508,0.2581,0.2583,0.2598,0.2671,0.2687,0.2687,0.2228,0.1766,0.1304,0.0884,0.0463,0.0,0.0,0.0,0.0,0.0,0.0,0.0,0.0,0.0,0.0,0.0,0.0,0.0,0.0,0.0,0.0,0.0,-0.1262,-0.3234,0.8205,0.8322,0.8469,0.8684,0.8951,0.9137,0.919,0.9617,0.9952,1.0005,1.0488,1.1022,1.1591,1.1159,1.0822,1.0822,0.978,0.9119,0.9119,0.8106,0.7422,0.7196,0.6977,0.6878,0.6947,0.6788,0.6872,0.726,0.7364,0.7247,0.6912,0.7117,0.6949,0.6498,0.6561,0.6748,0.6998,0.7165,0.7634,0.8249,0.8339,0.8482,0.8681,0.9138,0.9374,0.9487,0.9785,0.9717,0.9476,0.9199,0.8777,0.8349,0.8172,0.7763,0.7285,0.7053,0.6823,0.6654,0.6654,0.677,0.6877,0.6931,0.7197,0.0,0.7512,0.7535,0.7242,0.6159,0.5917,0.531,0.3321,0.3108,0.2951,0.2083,0.2011,0.209,0.2217,0.2256,0.2257,0.2315,0.238,0.2408,0.2438,0.2403,0.2451,0.2514,0.2568,0.2615,0.2608,0.2598,0.2614,0.2614,0.2219,0.1766,0.1304,0.0884,0.0463,0.0,0.0,0.0,0.0,0.0,0.0,0.0,0.0,0.0,0.0,0.0,0.0,0.0,0.0,0.0,0.0,0.0,-0.2059,-0.491,0.8372,0.8496,0.8684,0.8965,0.9111,0.9364,0.9833,1.0274,1.0661,1.0955,1.152,1.1928,1.198,1.1532,1.1044,1.0668,0.9707,0.9053,0.8958,0.8168,0.76,0.7399,0.7105,0.6953,0.6953,0.6584,0.6478,0.6642,0.6409,0.6258,0.6158,0.6252,0.6253,0.6158,0.6293,0.6518,0.6817,0.6972,0.7429,0.8028,0.8265,0.8529,0.8838,0.9239,0.9517,0.9717,0.994,0.9873,0.9693,0.9537,0.9213,0.8805,0.8587,0.8253,0.7879,0.7459,0.721,0.7,0.6858,0.685,0.6904,0.6904,0.7073,0.0,0.0,0.7512,0.7296,0.6257,0.6162,0.5604,0.352,0.3238,0.2993,0.2,0.1888,0.1939,0.203,0.2121,0.2171,0.2245,0.2289,0.2313,0.2335,0.2365,0.2382,0.2442,0.2503,0.2549,0.2579,0.2582,0.2523,0.2315,0.1882,0.1431,0.101,0.0589,0.0253,0.0,0.0,0.0,0.0,0.0,0.0,0.0,0.0,0.0,0.0,0.0,0.0,0.0,0.0,0.0,0.0,0.0,-0.1723,-0.4034,0.8482,0.8644,0.8885,0.915,0.9297,0.9672,1.053,1.0998,1.152,1.2216,1.2625,1.2701,1.2323,1.1697,1.1057,1.0398,0.9514,0.8931,0.8816,0.8208,0.7828,0.7724,0.7315,0.7065,0.7039,0.6393,0.6022,0.5991,0.5425,0.5294,0.5563,0.5479,0.5647,0.6046,0.6111,0.6343,0.6708,0.6948,0.7377,0.7963,0.8275,0.8635,0.8987,0.934,0.9632,0.9852,1.0008,1.0001,0.9944,0.9917,0.9632,0.926,0.8967,0.8716,0.8425,0.7916,0.7645,0.7441,0.7148,0.706,0.7026,0.6999,0.7053,0.7148,0.0,0.0,0.0,0.6371,0.6237,0.5713,0.3949,0.35,0.3086,0.2159,0.1892,0.178,0.1812,0.1945,0.2082,0.2162,0.2189,0.2207,0.229,0.2289,0.2316,0.2362,0.2424,0.251,0.2581,0.2604,0.2391,0.1979,0.1545,0.1094,0.0716,0.0253,0.0,0.0,0.0,0.0,0.0,0.0,0.0,0.0,0.0,0.0,0.0,0.0,0.0,0.0,0.0,0.0,0.0,0.0,-0.1135,-0.2736,0.8751,0.8791,0.8885,0.915,0.9644,1.0205,1.0865,1.1637,1.2559,1.3701,1.3332,1.2947,1.29,1.1783,1.0929,1.0575,0.9345,0.8631,0.8794,0.7692,0.7059,0.7091,0.6614,0.6245,0.606,0.5685,0.5403,0.5221,0.5321,0.5382,0.5419,0.553,0.5669,0.5848,0.6147,0.644,0.6729,0.7285,0.7862,0.8431,0.871,0.8967,0.9206,0.9605,0.9846,1.0015,1.0202,1.0324,1.0399,1.027,1.0012,0.972,0.9557,0.913,0.8648,0.8438,0.818,0.7905,0.7729,0.7617,0.7489,0.7376,0.7231,0.7098,0.7119,0.0,0.711,0.701,0.0,0.6896,0.5704,0.0,0.0,0.2949,0.2183,0.1677,0.1553,0.1722,0.1893,0.2093,0.2114,0.2138,0.2203,0.2221,0.2241,0.2301,0.2362,0.2447,0.2516,0.256,0.2404,0.1916,0.1498,0.1094,0.0716,0.0253,0.0,0.0,0.0,0.0,0.0,0.0,0.0,0.0,0.0,0.0,0.0,0.0,0.0,0.0,0.0,0.0,0.0,0.0,-0.1135,-0.2945,0.8791,0.8925,0.9124,0.9431,0.998,1.0651,1.14,1.2564,1.3423,1.3651,1.3521,1.2963,1.1742,1.1114,1.0474,0.9727,0.8962,0.8492,0.8508,0.7712,0.7218,0.7169,0.6592,0.622,0.6135,0.5797,0.555,0.5388,0.54,0.5405,0.5405,0.5453,0.5636,0.5919,0.6177,0.6606,0.7131,0.7455,0.7991,0.8648,0.9035,0.9334,0.9557,0.9747,1.0049,1.0434,1.0704,1.0778,1.0698,1.0582,1.0392,1.0168,0.9907,0.9602,0.9306,0.9069,0.8791,0.848,0.8269,0.7584,0.7015,0.7523,0.6987,0.6506,0.7137,0.7181,0.7098,0.7098,0.0,0.0,0.0,0.0,0.0,0.0,0.2177,0.1576,0.1555,0.1631,0.1745,0.1911,0.1934,0.1964,0.2075,0.2171,0.2218,0.2242,0.23,0.2399,0.2503,0.2578,0.2384,0.1912,0.1497,0.1094,0.0716,0.0253,0.0,0.0,0.0,0.0,0.0,0.0,0.0,0.0,0.0,0.0,0.0,0.0,0.0,0.0,0.0,0.0,0.0,0.0,-0.0465,-0.1234,0.9045,0.9124,0.9324,0.974,1.037,1.1102,1.1941,1.2837,1.3329,1.3089,1.2965,1.2311,1.079,1.0407,0.9914,0.9057,0.8715,0.8516,0.8454,0.8044,0.7738,0.7575,0.6969,0.6587,0.6492,0.6125,0.5848,0.5656,0.5565,0.5501,0.5459,0.5497,0.5715,0.6105,0.6362,0.6831,0.7478,0.7726,0.8221,0.8872,0.932,0.9727,1.0035,1.0035,1.0392,1.0867,1.1118,1.1097,1.0955,1.088,1.0744,1.0503,0.9832,0.95,0.9216,0.8582,0.8212,0.7983,0.811,0.7343,0.6729,0.7733,0.7158,0.6554,0.7326,0.7339,0.7181,0.7181,0.7066,0.0,0.0,0.0,0.0,0.0,0.0,0.1485,0.1498,0.1531,0.1598,0.1743,0.1785,0.1834,0.1955,0.2082,0.2171,0.2181,0.224,0.2349,0.2477,0.2557,0.2373,0.1912,0.1497,0.1094,0.0716,0.0253,0.0,0.0,0.0,0.0,0.0,0.0,0.0,0.0,0.0,0.0,0.0,0.0,0.0,0.0,0.0,0.0,0.0,0.0,0.0,-0.0086,0.9674,0.9418,0.9391,0.9992,1.0805,1.1611,1.2364,1.2026,1.1786,1.21,1.1416,1.0854,1.0708,0.9899,0.9209,0.8913,0.8771,0.8728,0.8786,0.8643,0.8471,0.8279,0.7743,0.7311,0.6977,0.6521,0.6122,0.5797,0.5779,0.5729,0.5593,0.5718,0.5974,0.6313,0.6715,0.7141,0.7631,0.8208,0.8743,0.9206,0.9625,1.013,1.0657,1.0657,1.088,1.1186,1.1193,1.1193,1.1193,1.1186,1.105,1.0631,0.9134,0.8426,0.7864,0.6361,0.577,0.5852,0.6954,0.6967,0.6974,0.8177,0.8101,0.7752,0.777,0.757,0.7389,0.7389,0.7244,0.0,0.0,0.0,0.0,0.0,0.0,0.0,0.0,0.0,0.0,0.0,0.0,0.0,0.0,0.1963,0.2063,0.0,0.2214,0.2252,0.2413,0.2534,0.2373,0.1912,0.1497,0.1094,0.0716,0.0253,0.0,0.0,0.0,0.0,0.0,0.0,0.0,0.0,0.0,0.0,0.0,0.0,0.0,0.0,0.0,0.0,0.0,0.0,0.0,-0.0257,0.8999,0.8962,0.9174,0.9512,1.0245,1.0993,1.1542,1.1566,1.1459,1.1274,1.1186,1.0837,1.007,0.9758,0.951,0.926,0.9117,0.9036,0.9071,0.8804,0.8602,0.8447,0.7969,0.7563,0.7282,0.6893,0.6552,0.6267,0.6171,0.6049,0.5863,0.6056,0.6233,0.6443,0.685,0.735,0.7891,0.8316,0.8886,0.951,1.0123,1.0684,1.1145,1.0914,1.1056,1.1328,1.143,1.1463,1.1308,1.0176,0.9759,0.9422,0.7745,0.7071,0.6814,0.6296,0.5989,0.5886,0.6141,0.5556,0.529,0.7164,0.6765,0.6298,0.7897,0.795,0.7658,0.7658,0.7364,0.0,0.0,0.0,0.0,0.0,0.0,0.0,0.0,0.0,0.0,0.0,0.0,0.0,0.0,0.0,0.0,0.0,0.2185,0.0,0.2342,0.2425,0.2306,0.193,0.1522,0.1086,0.0716,0.0253,0.0,0.0,0.0,0.0,0.0,0.0,0.0,0.0,0.0,0.0,0.0,0.0,0.0,0.0,0.0,0.0,0.0,0.0,0.0,-0.0477,0.8978,0.8842,0.8896,0.897,0.9529,1.014,1.0661,1.0589,1.0426,1.0284,1.0483,1.038,0.9751,0.9795,0.9818,0.9723,0.9641,0.956,0.9476,0.9239,0.9015,0.8839,0.837,0.7991,0.7723,0.7394,0.7046,0.6709,0.6586,0.6417,0.6248,0.6389,0.6539,0.6729,0.7154,0.7661,0.8196,0.86,0.9096,0.9747,1.0407,1.1023,1.145,1.1225,1.13,1.1565,1.1721,1.1375,1.073,0.9655,0.8873,0.8064,0.6402,0.5793,0.5577,0.4993,0.4757,0.4706,0.5031,0.4508,0.4316,0.6185,0.586,0.544,0.6986,0.7017,0.6718,0.6698,0.6432,0.0,0.0,0.0,0.0,0.0,0.0,0.0,0.0,0.131,0.0,0.0,0.0,0.0,0.0,0.0,0.0,0.0,0.0,0.0,0.0,0.2342,0.223,0.1905,0.151,0.1122,0.0711,0.0252,0.0,0.0,0.0,0.0,0.0,0.0,0.0,0.0,0.0,0.0,0.0,0.0,0.0,0.0,0.0,0.0,0.0,0.0,-0.0432,-0.1489,0.9549,0.8972,0.8483,0.8372,0.8667,0.9133,0.9742,0.9118,0.8777,0.9243,0.9354,0.951,0.9771,0.9947,1.0103,1.0276,1.0329,1.0243,1.0062,0.9907,0.9727,0.9464,0.8994,0.8615,0.8335,0.8004,0.7594,0.7119,0.6999,0.685,0.6709,0.6709,0.6843,0.7112,0.7587,0.8058,0.8539,0.8995,0.9413,0.9784,1.0397,1.0904,1.1388,1.1394,1.1481,1.1613,1.1864,1.0896,0.9468,0.9393,0.8267,0.6618,0.5086,0.4555,0.4177,0.2647,0.2195,0.2474,0.3686,0.3859,0.4037,0.5319,0.5429,0.5221,0.5224,0.5018,0.4819,0.4737,0.4616,0.4497,0.0,0.0,0.0,0.0,0.0,0.0,0.0,0.0,0.0,0.0,0.0,0.0,0.0,0.0,0.0,0.0,0.0,0.0,0.0,0.2315,0.2253,0.1922,0.1502,0.1117,0.0704,0.0251,0.0,0.0,0.0,0.0,0.0,0.0,0.0,0.0,0.0,0.0,0.0,0.0,0.0,0.0,0.0,0.0,0.0,0.0,-0.1215,-0.3181,0.829,0.7691,0.7409,0.761,0.7781,0.808,0.8693,0.8635,0.8694,0.9175,0.9514,0.9751,0.994,1.0191,1.0392,1.0432,1.0541,1.0588,1.0515,1.0405,1.0243,1.009,0.9618,0.9184,0.875,0.8465,0.8038,0.7482,0.7333,0.7122,0.685,0.685,0.6945,0.7112,0.7587,0.8058,0.8546,0.9111,0.9222,0.9024,0.937,0.8997,0.8262,0.838,0.8422,0.863,0.9822,0.9163,0.7544,0.6341,0.5653,0.5034,0.3488,0.2992,0.2865,0.2463,0.2323,0.2323,0.262,0.2639,0.292,0.4204,0.4336,0.4446,0.5421,0.5408,0.5177,0.5154,0.4911,0.4703,0.4646,0.0,0.0,0.0,0.0,0.0,0.0,0.0,0.0,0.0,0.0,0.0,0.0,0.0,0.0,0.0,0.0,0.0,0.2204,0.2226,0.2129,0.1818,0.1433,0.1017,0.0621,0.0209,0.0,0.0,0.0,0.0,0.0,0.0,0.0,0.0,0.0,0.0,0.0,0.0,0.0,0.0,0.0,0.0,0.0,0.0,-0.1228,-0.3168,0.7966,0.7481,0.7339,0.7723,0.7866,0.8063,0.8473,0.8687,0.8968,0.9417,0.9781,1.01,1.0285,1.0515,1.0717,1.0812,1.0867,1.0914,1.0914,1.0772,1.0656,1.0575,1.0141,0.972,0.9305,0.896,0.8512,0.792,0.7672,0.7414,0.7122,0.7033,0.7114,0.7337,0.7716,0.8169,0.8683,0.8816,0.8817,0.8676,0.8265,0.7731,0.0,0.7281,0.6865,0.6424,0.7263,0.6976,0.6058,0.5143,0.4326,0.3585,0.271,0.2435,0.2382,0.2403,0.2386,0.2326,0.2316,0.2281,0.2418,0.3101,0.318,0.3301,0.4063,0.4068,0.395,0.3896,0.3737,0.3548,0.3491,0.2913,0.0,0.0,0.0,0.0,0.0,0.0,0.0,0.0,0.0,0.0,0.0,0.0,0.0,0.0,0.0,0.0,0.0,0.2179,0.2086,0.1819,0.1413,0.1008,0.0616,0.0209,0.0,0.0,0.0,0.0,0.0,0.0,0.0,0.0,0.0,0.0,0.0,0.0,0.0,0.0,0.0,0.0,0.0,0.0,-0.1238,-0.318,0.8129,0.7895,0.7848,0.8281,0.8505,0.8655,0.8832,0.9083,0.9396,0.9765,1.0134,1.0446,1.0684,1.0867,1.1029,1.1247,1.1274,1.1295,1.1315,1.1145,1.1022,1.1002,1.0622,1.0243,0.9886,0.9519,0.9002,0.8383,0.8072,0.776,0.745,0.7269,0.7357,0.7672,0.7939,0.8334,0.8747,0.8377,0.8202,0.8054,0.6973,0.6578,0.6683,0.6683,0.5839,0.4685,0.4685,0.4674,0.4662,0.4662,0.37,0.2513,0.2513,0.2457,0.2397,0.2397,0.2394,0.2424,0.2398,0.2368,0.2295,0.2241,0.2243,0.2215,0.2219,0.221,0.219,0.2132,0.2073,0.201,0.1915,0.1804,0.0,0.0,0.0,0.0,0.0,0.0,0.0,0.0,0.0,0.0,0.0,0.0,0.0,0.0,0.0,0.0,0.0,0.0,0.2093,0.1884,0.1434,0.104,0.069,0.0208,0.0,0.0,0.0,0.0,0.0,0.0,0.0,0.0,0.0,0.0,0.0,0.0,0.0,0.0,0.0,0.0,0.0,0.0,-0.1068,-0.2822,0.8035,0.8206,0.8391,0.8601,0.896,0.9313,0.9585,0.9571,0.9646,0.9934,1.0346,1.0677,1.0853,1.1117,1.1375,1.1525,1.1647,1.1769,1.1934,1.1762,1.159,1.1469,1.1185,1.0846,1.0385,1.0028,0.9508,0.8791,0.8615,0.8269,0.7733,0.7682,0.7763,0.7952,0.8269,0.8297,0.8094,0.8286,0.7159,0.5213,0.5129,0.4417,0.3416,0.3416,0.324,0.3029,0.3029,0.2992,0.2944,0.2944,0.2745,0.2506,0.2506,0.2503,0.2499,0.2499,0.2481,0.2498,0.2494,0.2431,0.2362,0.2364,0.235,0.2339,0.2308,0.2283,0.2258,0.2186,0.2165,0.2129,0.2011,0.1868,0.1767,0.0,0.0,0.0,0.0,0.0,0.0,0.0,0.0,0.0,0.0,0.0,0.0,0.0,0.0,0.0,0.0,0.0,0.2153,0.2195,0.1498,0.1126,0.1083,0.0369,0.0,0.0,0.0,0.0,0.0,0.0,0.0,0.0,0.0,0.0,0.0,0.0,0.0,0.0,0.0,0.0,0.0,0.0,-0.0224,-0.0987,0.8358,0.8628,0.8934,0.9137,0.9483,0.9859,1.012,1.0211,1.0292,1.0353,1.0759,1.1124,1.1245,1.1558,1.1805,1.1843,1.1911,1.1979,1.2091,1.1993,1.1918,1.185,1.1558,1.1226,1.088,1.0399,0.9846,0.9257,0.8872,0.852,0.8153,0.7979,0.7986,0.8155,0.7921,0.7489,0.6887,0.641,0.5564,0.4459,0.3807,0.3171,0.2602,0.2615,0.259,0.2601,0.2601,0.2583,0.256,0.256,0.256,0.256,0.256,0.256,0.256,0.256,0.2549,0.2537,0.2537,0.2517,0.2491,0.2514,0.2487,0.2459,0.2406,0.238,0.235,0.232,0.2267,0.2222,0.2064,0.1994,0.1926,0.1864,0.0,0.0,0.0,0.0,0.0,0.0,0.0,0.0,0.0,0.0,0.0,0.0,0.0,0.0,0.0,0.0,0.2158,0.2229,0.1517,0.1118,0.1199,0.0409,0.0,0.0,0.0,0.0,0.0,0.0,0.0,0.0,0.0,0.0,0.0,0.0,0.0,0.0,0.0,0.0,0.0,0.0,0.0,-0.0538,0.8893,0.9137,0.9458,0.9707,1.0025,1.0363,1.0595,1.0894,1.1002,1.088,1.1199,1.1511,1.1694,1.1925,1.2111,1.2145,1.2145,1.2159,1.2193,1.2193,1.2179,1.2145,1.1884,1.1456,1.0807,1.0306,0.964,0.8848,0.859,0.8309,0.7981,0.7885,0.7774,0.7671,0.7153,0.6425,0.5534,0.4607,0.4171,0.3961,0.2906,0.254,0.2581,0.2602,0.2615,0.262,0.262,0.262,0.262,0.262,0.2612,0.2601,0.2601,0.2601,0.2601,0.2601,0.2601,0.2601,0.2601,0.2586,0.2608,0.2608,0.2572,0.2536,0.2536,0.2478,0.2451,0.2414,0.2345,0.2252,0.2159,0.2124,0.2082,0.1949,0.0,0.0,0.0,0.0,0.0,0.0,0.0,0.0,0.0,0.0,0.0,0.0,0.0,0.1845,0.1984,0.2048,0.2139,0.2189,0.1467,0.1113,0.1195,0.0409,0.0,0.0,0.0,0.0,0.0,0.0,0.0,0.0,0.0,0.0,0.0,0.0,0.0,0.0,0.0,0.0,0.0,0.0,0.0,-0.0494,0.9496,0.9731,0.9988,1.0188,1.0575,1.0887,1.1111,1.1362,1.1504,1.1348,1.1484,1.1708,1.203,1.2084,1.2159,1.2257,1.2271,1.2325,1.2454,1.2461,1.2406,1.2277,1.2244,1.1381,0.9515,0.9247,0.822,0.6349,0.731,0.7302,0.6329,0.6964,0.6727,0.5759,0.5874,0.5319,0.4294,0.4305,0.3646,0.2575,0.2527,0.2524,0.2598,0.2601,0.2618,0.2684,0.2684,0.2684,0.2684,0.2684,0.2647,0.2601,0.2601,0.2601,0.2601,0.2601,0.2601,0.2601,0.2601,0.26,0.2598,0.2598,0.2593,0.2589,0.2589,0.2587,0.257,0.2512,0.239,0.2278,0.2201,0.2183,0.2167,0.2094,0.0,0.0,0.0,0.0,0.0,0.0,0.0,0.0,0.0,0.1792,0.0,0.0,0.1793,0.1826,0.1892,0.2037,0.2131,0.2195,0.1477,0.1137,0.118,0.0407,0.0,0.0,0.0,0.0,0.0,0.0,0.0,0.0,0.0,0.0,0.0,0.0,0.0,0.0,0.0,0.0,0.0,0.0,0.0,-0.0314,1.0127,1.0278,1.0495,1.0798,1.1036,1.1294,1.1531,1.1748,1.1925,1.204,1.2033,1.2067,1.2227,1.2277,1.2352,1.2413,1.242,1.244,1.2501,1.2501,1.205,1.1026,1.0871,0.9914,0.8026,0.7697,0.7104,0.6187,0.6426,0.6333,0.5926,0.611,0.5562,0.4483,0.4609,0.4057,0.3011,0.313,0.29,0.2485,0.2523,0.2574,0.2607,0.2626,0.2682,0.2692,0.2692,0.2692,0.2692,0.2692,0.2676,0.2656,0.2656,0.2656,0.2656,0.2656,0.2656,0.2656,0.2656,0.2656,0.2656,0.2656,0.2642,0.2587,0.2587,0.2615,0.2594,0.2571,0.2491,0.2405,0.2337,0.2305,0.2309,0.2226,0.2192,0.0,0.0,0.0,0.0,0.0,0.0,0.0,0.0,0.0,0.0,0.0,0.0,0.1833,0.191,0.2041,0.2124,0.2186,0.1473,0.1135,0.1217,0.0407,0.0,0.0,0.0,0.0,0.0,0.0,0.0,0.0,0.0,0.0,0.0,0.0,0.0,0.0,0.0,0.0,0.0,0.0,0.0,-0.0449,1.0683,1.0846,1.1063,1.1314,1.1484,1.1687,1.1949,1.2121,1.2336,1.2596,1.2549,1.2526,1.2526,1.2576,1.2637,1.2637,1.2161,1.1842,1.1842,1.1366,1.0544,0.9397,0.9247,0.8327,0.6523,0.626,0.5798,0.5124,0.5248,0.5211,0.4963,0.4831,0.4244,0.3338,0.3385,0.3022,0.2335,0.2416,0.2485,0.2547,0.2577,0.261,0.2621,0.2684,0.2692,0.2692,0.2692,0.2692,0.2692,0.2692,0.2692,0.2692,0.2692,0.2692,0.2692,0.2692,0.2692,0.2692,0.2692,0.2692,0.2692,0.2692,0.2676,0.2618,0.2618,0.2643,0.2626,0.2617,0.2562,0.2495,0.2431,0.2403,0.2375,0.2324,0.2298,0.2236,0.0,0.2243,0.0,0.0,0.0,0.0,0.1979,0.1949,0.0,0.0,0.0,0.0,0.1912,0.2069,0.2085,0.201,0.1417,0.1069,0.1026,0.0327,0.0,0.0,0.0,0.0,0.0,0.0,0.0,0.0,0.0,0.0,0.0,0.0,0.0,0.0,0.0,0.0,0.0,0.0,0.0,-0.0404,1.1159,1.1402,1.1617,1.1759,1.1952,1.2193,1.2447,1.2494,1.261,1.2955,1.2996,1.2989,1.2989,1.2996,1.2996,1.2996,1.1366,1.0311,1.0311,0.8657,0.7653,0.7613,0.7609,0.681,0.5053,0.5028,0.4153,0.233,0.3616,0.3823,0.3048,0.3034,0.2744,0.2209,0.2275,0.2338,0.2387,0.2487,0.2547,0.2604,0.2593,0.2624,0.2692,0.2692,0.2692,0.2692,0.2692,0.2692,0.2692,0.2692,0.2692,0.2692,0.2692,0.2692,0.2692,0.2692,0.2692,0.2692,0.2692,0.2692,0.2692,0.2692,0.2692,0.2691,0.2691,0.2691,0.2683,0.2611,0.2536,0.2514,0.2512,0.2463,0.2413,0.2382,0.2413,0.2356,0.0,0.2289,0.0,0.0,0.2206,0.2163,0.21,0.2035,0.0,0.0,0.0,0.0,0.0,0.2121,0.2011,0.1611,0.1269,0.0936,0.06,0.0207,0.0,0.0,0.0,0.0,0.0,0.0,0.0,0.0,0.0,0.0,0.0,0.0,0.0,0.0,0.0,0.0,0.0,0.0,0.0,0.0,1.1606,1.1864,1.2121,1.2264,1.1407,1.0816,1.0979,0.9964,0.9221,0.9444,0.9464,0.9493,0.9572,1.0541,1.0643,0.9431,0.8787,0.846,0.846,0.7936,0.7074,0.595,0.5907,0.5094,0.3416,0.3311,0.3002,0.2356,0.2759,0.2832,0.2528,0.2519,0.244,0.233,0.2378,0.2432,0.2519,0.2557,0.2597,0.2594,0.2665,0.2684,0.2692,0.2692,0.2692,0.2692,0.2692,0.2692,0.2692,0.2692,0.2692,0.2692,0.2692,0.2692,0.2692,0.2692,0.2692,0.2692,0.2692,0.2692,0.2692,0.2692,0.2692,0.2692,0.2692,0.2692,0.2684,0.2611,0.2583,0.2558,0.2578,0.2557,0.2542,0.2532,0.2497,0.2465,0.2446,0.2408,0.2367,0.2326,0.2294,0.2252,0.2159,0.2161,0.0,0.0,0.0,0.2112,0.2071,0.2145,0.2012,0.1612,0.127,0.0937,0.06,0.0207,0.0,0.0,0.0,0.0,0.0,0.0,0.0,0.0,0.0,0.0,0.0,0.0,0.0,0.0,0.0,0.0,0.0,0.0,0.0,-0.018,1.1145,1.0821,1.0559,1.0639,0.9842,0.9207,0.9354,0.8396,0.7738,0.7871,0.7884,0.7655,0.7083,0.7905,0.8285,0.7799,0.714,0.6772,0.6772,0.6117,0.5278,0.424,0.4212,0.3695,0.2619,0.2543,0.2534,0.2474,0.2444,0.242,0.2363,0.2363,0.2428,0.2474,0.2474,0.2518,0.2593,0.2612,0.2595,0.2624,0.2684,0.2692,0.2692,0.2692,0.2692,0.2692,0.2692,0.2692,0.2692,0.2692,0.2692,0.2692,0.2692,0.2692,0.2692,0.2692,0.2692,0.2692,0.2692,0.2692,0.2692,0.2692,0.2692,0.2692,0.2692,0.2692,0.2687,0.2626,0.2614,0.2599,0.2581,0.2609,0.2601,0.2601,0.2571,0.2547,0.2547,0.2514,0.248,0.0,0.0,0.2365,0.0,0.2238,0.2243,0.0,0.2238,0.223,0.2218,0.2069,0.1828,0.1407,0.1103,0.0751,0.0365,0.0125,0.0,0.0,0.0,0.0,0.0,0.0,0.0,0.0,0.0,0.0,0.0,0.0,0.0,0.0,0.0,0.0,0.0,0.0,0.0,-0.018,0.9922,0.8687,0.7625,0.7625,0.7508,0.7498,0.7622,0.751,0.75,0.7622,0.763,0.7003,0.5371,0.5203,0.5873,0.7509,0.6166,0.5203,0.5203,0.3614,0.2692,0.2692,0.2692,0.2679,0.2609,0.2606,0.2619,0.2603,0.2534,0.2521,0.2521,0.2521,0.2537,0.2606,0.2606,0.2597,0.2609,0.2609,0.2625,0.2692,0.2692,0.2692,0.2692,0.2692,0.2692,0.2692,0.2692,0.2692,0.2692,0.2692,0.2692,0.2692,0.2692,0.2692,0.2692,0.2692,0.2692,0.2692,0.2692,0.2692,0.2692,0.2692,0.2692,0.2692,0.2692,0.2692,0.2692,0.2692,0.2669,0.2609,0.2609,0.2627,0.2608,0.2608,0.2607,0.2605,0.2605,0.2602,0.2592,0.2606,0.255,0.2463,0.2436,0.2343,0.2308,0.2308,0.2308,0.2358,0.2386,0.1957,0.1483,0.1138,0.0786,0.0405,0.0,0.0,0.0,0.0,0.0,0.0,0.0,0.0,0.0,0.0,0.0,0.0,0.0,0.0,0.0,0.0,0.0,0.0,0.0,0.0,0.0,0.0,0.8188,0.7941,0.7758,0.7758,0.6742,0.5915,0.5971,0.4809,0.3938,0.395,0.395,0.3782,0.3363,0.3321,0.349,0.3908,0.3574,0.3321,0.3321,0.2943,0.2692,0.2692,0.2692,0.2688,0.2682,0.2617,0.2587,0.2592,0.2585,0.2581,0.2581,0.2581,0.2597,0.2586,0.2586,0.2647,0.2682,0.2682,0.2686,0.2692,0.2692,0.2692,0.2692,0.2692,0.2692,0.2692,0.2692,0.2692,0.2692,0.2692,0.2692,0.2692,0.2692,0.2692,0.2692,0.2692,0.2692,0.2692,0.2692,0.2692,0.2692,0.2692,0.2692,0.2692,0.2692,0.2692,0.2692,0.2692,0.2687,0.2682,0.2682,0.2676,0.2671,0.2671,0.2652,0.2595,0.2595,0.2616,0.26,0.2593,0.26,0.2575,0.2568,0.2493,0.2472,0.2472,0.2472,0.2474,0.2481,0.1794,0.1329,0.1168,0.0799,0.0408,0.0,0.0,0.0,0.0,0.0,0.0,0.0,0.0,0.0,0.0,0.0,0.0,0.0,0.0,0.0,0.0,0.0,0.0,0.0,0.0,0.0,0.0,0.6588,0.6002,0.549,0.549,0.4725,0.4159,0.4159,0.3321,0.2692,0.2692,0.2692,0.2692,0.2692,0.2692,0.2692,0.2692,0.2692,0.2692,0.2692,0.2692,0.2692,0.2692,0.2692,0.2692,0.2692,0.2676,0.266,0.2643,0.2643,0.2643,0.2643,0.2643,0.2652,0.2626,0.2626,0.2677,0.2692,0.2692,0.2692,0.2692,0.2692,0.2692,0.2692,0.2692,0.2692,0.2692,0.2692,0.2692,0.2692,0.2692,0.2692,0.2692,0.2692,0.2692,0.2692,0.2692,0.2692,0.2692,0.2692,0.2692,0.2692,0.2692,0.2692,0.2692,0.2692,0.2692,0.2692,0.2692,0.2692,0.2692,0.2692,0.2692,0.2692,0.2692,0.2679,0.2626,0.2626,0.2654,0.2643,0.2643,0.2617,0.26,0.26,0.2572,0.2555,0.2555,0.2555,0.248,0.2292,0.166,0.1293,0.1238,0.065,0.0206,0.0,0.0,0.0,0.0,0.0,0.0,0.0,0.0,0.0,0.0,0.0,0.0,0.0,0.0,0.0,0.0,0.0,0.0,0.0,0.0,0.0,0.0,0.4996,0.374,0.2692,0.2692,0.2692,0.2692,0.2692,0.2692,0.2692,0.2692,0.2692,0.2692,0.2692,0.2692,0.2692,0.2692,0.2692,0.2692,0.2692,0.2692,0.2692,0.2692,0.2692,0.2692,0.2692,0.2692,0.2692,0.2692,0.2692,0.2692,0.2692,0.2692,0.2692,0.2692,0.2692,0.2692,0.2692,0.2692,0.2692,0.2692,0.2692,0.2692,0.2692,0.2692,0.2692,0.2692,0.2692,0.2692,0.2692,0.2692,0.2692,0.2692,0.2692,0.2692,0.2692,0.2692,0.2692,0.2692,0.2692,0.2692,0.2692,0.2692,0.2692,0.2692,0.2692,0.2692,0.2692,0.2692,0.2692,0.2692,0.2692,0.2692,0.2692,0.2692,0.2692,0.2692,0.2692,0.2692,0.2692,0.2692,0.2669,0.2613,0.2613,0.2631,0.2615,0.2615,0.2615,0.2422,0.203,0.1535,0.1281,0.1228,0.0413,0.0,0.0,0.0,0.0,0.0,0.0,0.0,0.0,0.0,0.0,0.0,0.0,0.0,0.0,0.0,0.0,0.0,0.0,0.0,0.0,0.0,0.0,0.0,0.3111,0.2903,0.2692,0.2692,0.2692,0.2692,0.2692,0.2692,0.2692,0.2692,0.2692,0.2692,0.2692,0.2692,0.2692,0.2692,0.2692,0.2692,0.2692,0.2692,0.2692,0.2692,0.2692,0.2692,0.2692,0.2692,0.2692,0.2692,0.2692,0.2692,0.2692,0.2692,0.2692,0.2692,0.2692,0.2692,0.2692,0.2692,0.2692,0.2692,0.2692,0.2692,0.2692,0.2692,0.2692,0.2692,0.2692,0.2692,0.2692,0.2692,0.2692,0.2692,0.2692,0.2692,0.2692,0.2692,0.2692,0.2692,0.2692,0.2692,0.2692,0.2692,0.2692,0.2692,0.2692,0.2692,0.2692,0.2692,0.2692,0.2692,0.2692,0.2692,0.2692,0.2692,0.2692,0.2692,0.2692,0.2692,0.2692,0.2692,0.2688,0.2686,0.2686,0.2682,0.2679,0.2679,0.2679,0.2471,0.2013,0.1552,0.1132,0.0796,0.0294,0.0,0.0,0.0,0.0,0.0,0.0,0.0,0.0,0.0,0.0,0.0,0.0,0.0,0.0,0.0,0.0,0.0,0.0,0.0,0.0,0.0,0.0,0.0,0.2692,0.2692,0.2692,0.2692,0.2692,0.2692,0.2692,0.2692,0.2692,0.2692,0.2692,0.2692,0.2692,0.2692,0.2692,0.2692,0.2692,0.2692,0.2692,0.2692,0.2692,0.2692,0.2692,0.2692,0.2692,0.2692,0.2692,0.2692,0.2692,0.2692,0.2692,0.2692,0.2692,0.2692,0.2692,0.2692,0.2692,0.2692,0.2692,0.2692,0.2692,0.2692,0.2692,0.2692,0.2692,0.2692,0.2692,0.2692,0.2692,0.2692,0.2692,0.2692,0.2692,0.2692,0.2692,0.2692,0.2692,0.2692,0.2692,0.2692,0.2692,0.2692,0.2692,0.2692,0.2692,0.2692,0.2692,0.2692,0.2692,0.2692,0.2692,0.2692,0.2692,0.2692,0.2692,0.2692,0.2692,0.2692,0.2692,0.2692,0.2692,0.2692,0.2692,0.2692,0.2692,0.2692,0.2692,0.2398,0.1682,0.143,0.101,0.0337,0.0126,0.0,0.0,0.0,0.0,0.0,0.0,0.0,0.0,0.0,0.0,0.0,0.0,0.0,0.0,0.0,0.0,0.0,0.0,0.0,0.0,0.0,0.0,0.0,0.2692,0.2692,0.2692,0.2692,0.2692,0.2692,0.2692,0.2692,0.2692,0.2692,0.2692,0.2692,0.2692,0.2692,0.2692,0.2692,0.2692,0.2692,0.2692,0.2692,0.2692,0.2692,0.2692,0.2692,0.2692,0.2692,0.2692,0.2692,0.2692,0.2692,0.2692,0.2692,0.2692,0.2692,0.2692,0.2692,0.2692,0.2692,0.2692,0.2692,0.2692,0.2692,0.2692,0.2692,0.2692,0.2692,0.2692,0.2692,0.2692,0.2692,0.2692,0.2692,0.2692,0.2692,0.2692,0.2692,0.2692,0.2692,0.2692,0.2692,0.2692,0.2692,0.2692,0.2692,0.2692,0.2692,0.2692,0.2692,0.2692,0.2692,0.2692,0.2692,0.2692,0.2692,0.2692,0.2692,0.2692,0.2692,0.2692,0.2692,0.2692,0.2692,0.2692,0.2692,0.2692,0.2692,0.2692,0.2272,0.1346,0.1304,0.0884,0.0042,0.0,0.0,0.0,0.0,0.0,0.0,0.0,0.0,0.0,0.0,0.0,0.0,0.0,0.0,0.0,0.0,0.0,0.0,0.0,0.0,0.0,0.0,0.0,0.0,0.2692,0.2692,0.2692,0.2692,0.2692,0.2692,0.2692,0.2692,0.2692,0.2692,0.2692,0.2692,0.2692,0.2692,0.2692,0.2692,0.2692,0.2692,0.2692,0.2692,0.2692,0.2692,0.2692,0.2692,0.2692,0.2692,0.2692,0.2692,0.2692,0.2692,0.2692,0.2692,0.2692,0.2692,0.2692,0.2692,0.2692,0.2692,0.2692,0.2692,0.2692,0.2692,0.2692,0.2692,0.2692,0.2692,0.2692,0.2692,0.2692,0.2692,0.2692,0.2692,0.2692,0.2692,0.2692,0.2692,0.2692,0.2692,0.2692,0.2692,0.2692,0.2692,0.2692,0.2692,0.2692,0.2692,0.2692,0.2692,0.2692,0.2692,0.2692,0.2692,0.2692,0.2692,0.2692,0.2692,0.2692,0.2692,0.2692,0.2692,0.2692,0.2692,0.2692,0.2692,0.2692,0.2692,0.2692,0.2272,0.1346,0.1304,0.0884,0.0042,0.0,0.0,0.0,0.0,0.0,0.0,0.0,0.0,0.0,0.0,0.0,0.0,0.0,0.0,0.0,0.0,0.0,0.0,0.0,0.0,0.0,0.0,0.0,0.0,0.2692,0.2692,0.2692,0.2692,0.2692,0.2692,0.2692,0.2692,0.2692,0.2692,0.2692,0.2692,0.2692,0.2692,0.2692,0.2692,0.2692,0.2692,0.2692,0.2692,0.2692,0.2692,0.2692,0.2692,0.2692,0.2692,0.2692,0.2692,0.2692,0.2692,0.2692,0.2692,0.2692,0.2692,0.2692,0.2692,0.2692,0.2692,0.2692,0.2692,0.2692,0.2692,0.2692,0.2692,0.2692,0.2692,0.2692,0.2692,0.2692,0.2692,0.2692,0.2692,0.2692,0.2692,0.2692,0.2692,0.2692,0.2692,0.2692,0.2692,0.2692,0.2692,0.2692,0.2692,0.2692,0.2692,0.2692,0.2692,0.2692,0.2692,0.2692,0.2692,0.2692,0.2692,0.2692,0.2692,0.2692,0.2692,0.2692,0.2692,0.2692,0.2692,0.2692,0.2692,0.2692,0.2692,0.2692,0.2398,0.1766,0.122,0.0631,0.0,0.0,0.0,0.0,0.0,0.0,0.0,0.0,0.0,0.0,0.0,0.0,0.0,0.0,0.0,0.0,0.0,0.0,0.0,0.0,0.0,0.0,0.0,0.0,0.0,0.2692,0.2692,0.2692,0.2692,0.2692,0.2692,0.2692,0.2692,0.2692,0.2692,0.2692,0.2692,0.2692,0.2692,0.2692,0.2692,0.2692,0.2692,0.2692,0.2692,0.2692,0.2692,0.2692,0.2692,0.2692,0.2692,0.2692,0.2692,0.2692,0.2692,0.2692,0.2692,0.2692,0.2692,0.2692,0.2692,0.2692,0.2692,0.2692,0.2692,0.2692,0.2692,0.2692,0.2692,0.2692,0.2692,0.2692,0.2692,0.2692,0.2692,0.2692,0.2692,0.2692,0.2692,0.2692,0.2692,0.2692,0.2692,0.2692,0.2692,0.2692,0.2692,0.2692,0.2692,0.2692,0.2692,0.2692,0.2692,0.2692,0.2692,0.2692,0.2692,0.2692,0.2692,0.2692,0.2692,0.2692,0.2692,0.2692,0.2692,0.2692,0.2692,0.2692,0.2692,0.2692,0.2692,0.2692,0.244,0.1808,0.1094,0.0505,0.0,0.0,0.0,0.0,0.0,0.0,0.0,0.0,0.0,0.0,0.0,0.0,0.0,0.0,0.0,0.0,0.0,0.0,0.0,0.0,0.0,0.0,0.0,0.0,0.0,0.2692,0.2692,0.2692,0.2692,0.2692,0.2692,0.2692,0.2692,0.2692,0.2692,0.2692,0.2692,0.2692,0.2692,0.2692,0.2692,0.2692,0.2692,0.2692,0.2692,0.2692,0.2692,0.2692,0.2692,0.2692,0.2692,0.2692,0.2692,0.2692,0.2692,0.2692,0.2692,0.2692,0.2692,0.2692,0.2692,0.2692,0.2692,0.2692,0.2692,0.2692,0.2692,0.2692,0.2692,0.2692,0.2692,0.2692,0.2692,0.2692,0.2692,0.2692,0.2692,0.2692,0.2692,0.2692,0.2692,0.2692,0.2692,0.2692,0.2692,0.2692,0.2692,0.2692,0.2692,0.2692,0.2692,0.2692,0.2692,0.2692,0.2692,0.2692,0.2692,0.2692,0.2692,0.2692,0.2692,0.2692,0.2692,0.2692,0.2692,0.2692,0.2692,0.2692,0.2692,0.2692,0.2692,0.2692,0.2272,0.1346,0.0926,0.0505,0.0,0.0,0.0,0.0,0.0,0.0,0.0,0.0,0.0,0.0,0.0,0.0,0.0,0.0,0.0,0.0,0.0,0.0,0.0,0.0,0.0,0.0,0.0,0.0,0.0,0.2692,0.2692,0.2692,0.2692,0.2692,0.2692,0.2692,0.2692,0.2692,0.2692,0.2692,0.2692,0.2692,0.2692,0.2692,0.2692,0.2712,0.2681,0.2681,0.2705,0.2692,0.2692,0.2692,0.2692,0.2692,0.2692,0.2692,0.2692,0.2692,0.2692,0.2692,0.2692,0.2692,0.2692,0.2692,0.2692,0.2692,0.2692,0.2692,0.2692,0.2692,0.2692,0.2692,0.2692,0.2692,0.2692,0.2692,0.2692,0.2692,0.2692,0.2692,0.2692,0.2692,0.2692,0.2692,0.2692,0.2692,0.2692,0.2692,0.2692,0.2692,0.2692,0.2692,0.2692,0.2692,0.2692,0.2692,0.2692,0.2692,0.2692,0.2692,0.2692,0.2692,0.2692,0.2692,0.2692,0.2692,0.2692,0.2692,0.2692,0.2692,0.2692,0.2692,0.2692,0.2692,0.2692,0.2692,0.2272,0.1346,0.1178,0.0757,0.0042,0.0,0.0,0.0,0.0,0.0,0.0,0.0,0.0,0.0,0.0,0.0,0.0,0.0,0.0,0.0,0.0,0.0,0.0,0.0,0.0,0.0,0.0,0.0,0.0,0.2692,0.2692,0.2692,0.2692,0.2692,0.2692,0.2692,0.2692,0.2697,0.2709,0.271,0.2716,0.2727,0.2728,0.2728,0.2728,0.2746,0.2755,0.2755,0.2739,0.2728,0.2728,0.2728,0.2717,0.2692,0.2692,0.2692,0.2692,0.2692,0.2692,0.2692,0.2692,0.2692,0.2692,0.2692,0.2692,0.2692,0.2692,0.2692,0.2692,0.2692,0.2692,0.2692,0.2692,0.2692,0.2692,0.2692,0.2692,0.2692,0.2692,0.2692,0.2692,0.2692,0.2692,0.2692,0.2692,0.2692,0.2692,0.2692,0.2692,0.2692,0.2692,0.2692,0.2692,0.2692,0.2692,0.2692,0.2692,0.2692,0.2692,0.2692,0.2692,0.2692,0.2692,0.2692,0.2692,0.2692,0.2692,0.2692,0.2692,0.2692,0.2692,0.2692,0.2692,0.2692,0.2692,0.2524,0.2103,0.1346,0.1136,0.0715,0.0042,0.0,0.0,0.0,0.0,0.0,0.0,0.0,0.0,0.0,0.0,0.0,0.0,0.0,0.0,0.0,0.0,0.0,0.0,0.0,0.0,0.0,0.0,0.0,0.0,0.2692,0.2695,0.2697,0.2697,0.2699,0.2701,0.2701,0.2701,0.271,0.2695,0.2699,0.2752,0.278,0.2784,0.2784,0.2784,0.2784,0.2784,0.2787,0.2785,0.2784,0.2784,0.2784,0.2758,0.2702,0.2698,0.2697,0.2697,0.2694,0.2692,0.2692,0.2692,0.2692,0.2692,0.2692,0.2692,0.2692,0.2692,0.2692,0.2692,0.2692,0.2692,0.2692,0.2692,0.2692,0.2692,0.2692,0.2692,0.2692,0.2692,0.2692,0.2692,0.2692,0.2692,0.2692,0.2692,0.2692,0.2692,0.2692,0.2692,0.2692,0.2692,0.2692,0.2692,0.2692,0.2692,0.2692,0.2692,0.2692,0.2692,0.2692,0.2692,0.2692,0.2692,0.2692,0.2692,0.2692,0.2692,0.2692,0.2692,0.2692,0.2692,0.2692,0.2692,0.2692,0.265,0.223,0.1766,0.1262,0.0884,0.0505,0.0,0.0,0.0,0.0,0.0,0.0,0.0,0.0,0.0,0.0,0.0,0.0,0.0,0.0,0.0,0.0,0.0,0.0,0.0,0.0,0.0,0.0,0.0,0.0,0.0,0.2692,0.2712,0.2685,0.2685,0.2747,0.2763,0.2763,0.2763,0.2766,0.2773,0.2773,0.2776,0.2782,0.2784,0.2784,0.2784,0.2784,0.2793,0.2816,0.2796,0.2784,0.2784,0.2784,0.2777,0.2763,0.274,0.2685,0.2685,0.2703,0.2692,0.2692,0.2692,0.2692,0.2692,0.2692,0.2692,0.2692,0.2692,0.2692,0.2692,0.2692,0.2692,0.2692,0.2692,0.2692,0.2692,0.2692,0.2692,0.2692,0.2692,0.2692,0.2692,0.2692,0.2692,0.2692,0.2692,0.2692,0.2692,0.2692,0.2692,0.2692,0.2692,0.2692,0.2692,0.2692,0.2692,0.2692,0.2692,0.2692,0.2692,0.2692,0.2692,0.2692,0.2692,0.2692,0.2692,0.2692,0.2692,0.2692,0.2692,0.2692,0.2692,0.2692,0.2692,0.2566,0.2188,0.2061,0.1641,0.0884,0.0758,0.0505,0.0,0.0,0.0,0.0,0.0,0.0,0.0,0.0,0.0,0.0,0.0,0.0,0.0,0.0,0.0,0.0,0.0,0.0,0.0,0.0,0.0,0.0,0.0,0.0,0.0,0.2736,0.2748,0.2759,0.2759,0.2773,0.2784,0.2784,0.2784,0.2788,0.2803,0.2804,0.2811,0.2825,0.2826,0.2826,0.2826,0.2826,0.2833,0.2849,0.2836,0.2826,0.2826,0.2826,0.2826,0.2826,0.2797,0.2731,0.2759,0.2743,0.2728,0.2714,0.2714,0.2706,0.2692,0.2692,0.2692,0.2692,0.2692,0.2692,0.2692,0.2692,0.2692,0.2692,0.2692,0.2692,0.2692,0.2692,0.2692,0.2692,0.2692,0.2692,0.2692,0.2692,0.2692,0.2692,0.2692,0.2692,0.2692,0.2692,0.2692,0.2692,0.2692,0.2692,0.2692,0.2692,0.2692,0.2692,0.2692,0.2692,0.2692,0.2692,0.2692,0.2692,0.2692,0.2692,0.2692,0.2692,0.2692,0.2692,0.2692,0.2692,0.2608,0.2398,0.2356,0.2188,0.1682,0.1473,0.1179,0.0716,0.0505,0.0253,0.0,0.0,0.0,0.0,0.0,0.0,0.0,0.0,0.0,0.0,0.0,0.0,0.0,0.0,0.0,0.0,0.0,0.0,0.0,0.0,0.0,0.0,0.0,0.0,0.0,0.2565,0.2612,0.266,0.266,0.2751,0.2799,0.2799,0.2799,0.2808,0.2833,0.2836,0.2846,0.2916,0.2919,0.2919,0.2919,0.2919,0.2919,0.2919,0.2919,0.2919,0.2919,0.2919,0.2919,0.2919,0.2849,0.2822,0.2791,0.2785,0.277,0.2703,0.2703,0.2732,0.2707,0.2702,0.2701,0.2699,0.2695,0.2692,0.2692,0.2692,0.2692,0.2692,0.2692,0.2692,0.2692,0.2692,0.2692,0.2692,0.2692,0.2692,0.2692,0.2692,0.2692,0.2692,0.2692,0.2692,0.2692,0.2692,0.2692,0.2692,0.2692,0.2692,0.2692,0.2692,0.2692,0.2692,0.2692,0.2692,0.2692,0.2692,0.2692,0.2692,0.2692,0.2692,0.2692,0.2692,0.2692,0.2692,0.2692,0.2692,0.2566,0.2146,0.2061,0.1808,0.1346,0.0926,0.0674,0.0589,0.021,0.0,0.0,0.0,0.0,0.0,0.0,0.0,0.0,0.0,0.0,0.0,0.0,0.0,0.0,0.0,0.0,0.0,0.0,0.0,0.0,0.0,0.0,0.0,0.0,0.0,0.0,0.1522,0.1883,0.2205,0.2205,0.2577,0.2906,0.2906,0.2906,0.2908,0.2867,0.2868,0.287,0.2919,0.2919,0.2919,0.2919,0.2919,0.2919,0.2919,0.2919,0.2919,0.2919,0.2919,0.2919,0.2919,0.287,0.2853,0.2778,0.2796,0.2781,0.2777,0.2777,0.2774,0.277,0.2743,0.2689,0.2687,0.2703,0.2692,0.2692,0.2692,0.2692,0.2692,0.2692,0.2692,0.2692,0.2692,0.2692,0.2692,0.2692,0.2692,0.2692,0.2692,0.2692,0.2692,0.2692,0.2692,0.2692,0.2692,0.2692,0.2692,0.2692,0.2692,0.2692,0.2692,0.2692,0.2692,0.2692,0.2692,0.2692,0.2692,0.2692,0.2692,0.2692,0.2692,0.2692,0.2692,0.2692,0.2692,0.2692,0.2692,0.2692,0.2608,0.223,0.1808,0.1346,0.0926,0.0505,0.0126,0.0042,0.0,0.0,0.0,0.0,0.0,0.0,0.0,0.0,0.0,0.0,0.0,0.0,0.0,0.0,0.0,0.0,0.0,0.0,0.0,0.0,0.0,0.0,0.0,0.0,0.0,0.0,0.1372,0.1555,0.1694,0.1694,0.2148,0.2515,0.2515,0.2739,0.2919,0.2919,0.2919,0.2919,0.2919,0.2919,0.2919,0.2919,0.2919,0.2919,0.2919,0.2919,0.2919,0.2919,0.2919,0.2919,0.2919,0.2919,0.2867,0.2855,0.2841,0.2825,0.2808,0.2808,0.28,0.2782,0.2769,0.2763,0.2761,0.2731,0.2718,0.2716,0.2699,0.2692,0.2692,0.2692,0.2692,0.2692,0.2692,0.2692,0.2692,0.2692,0.2692,0.2692,0.2692,0.2692,0.2692,0.2692,0.2692,0.2692,0.2692,0.2692,0.2692,0.2692,0.2692,0.2692,0.2692,0.2692,0.2692,0.2692,0.2692,0.2692,0.2692,0.2692,0.2692,0.2692,0.2692,0.2692,0.2692,0.2692,0.2692,0.2692,0.2482,0.2188,0.1934,0.1515,0.1094,0.0589,0.0421,0.021,0.0,0.0,0.0,0.0,0.0,0.0,0.0,0.0,0.0,0.0,0.0,0.0,0.0,0.0,0.0,0.0,0.0,0.0,0.0,0.0,0.0,0.0,0.0,0.0,0.0,0.0,0.0,0.0]},{"header":{"parameterUnit":"m.s-1","parameterCategory":1,"la1":30.6,"la2":28.766,"lo1":-90.7593,"lo2":-88.6598,"dx":0.0162,"dy":0.0183,"nx":116,"ny":114,"refTime":"2022-11-28T18:00:00:Z","depth":0,"parameterNumber":3,"parameterNumberName":"V-component_of_WINDS"},"data":[0.0,0.0,0.0,0.0,0.0,0.0,0.0,0.0,0.0,0.0,0.0,0.0,0.0,0.0,0.0,0.0,0.0,0.0,0.0,0.0,0.0,0.0,0.0,0.0,0.0,0.0,0.0,0.0,0.0,0.0,0.0,0.0,0.0,0.0,0.0,0.0,0.0,0.0,0.0,0.0,0.0,0.0,0.0,0.0,0.0,0.0,0.0,0.0,0.0,0.0,0.0,0.0,0.0,0.0,0.0,0.0,0.0,0.0,0.0,0.0,0.0,0.0,0.0,0.0,0.0,0.0,0.0,0.0,0.0,0.0,0.0,0.0,0.0,0.0,0.0,0.0,0.0,0.0,0.0,0.0,0.0,0.0,0.0,0.0,0.0,0.0,0.0,0.0,0.0,0.0,0.0,0.0,0.0,0.0,0.0,0.0,0.0,0.0,0.0,0.0,0.0,0.0,0.0,0.0,0.0,0.0,0.0,0.0,0.0,0.0,0.0,0.0,0.0,0.0,0.0,0.0,0.0,0.0,0.0,0.0,0.0,0.0,0.0,0.0,0.0,0.0,0.0,0.0,0.0,0.0,0.0,0.0,0.0,0.0,0.0,0.0,0.0,0.0,0.0,0.0,0.0,0.0,0.0,0.0,0.0,0.0,0.0,0.0,0.0,0.0,0.0,0.0,0.0,0.0,0.0,0.0,0.0,0.0,0.0,0.0,0.0,0.0,0.0,0.0,0.0,0.0,0.0,0.0,0.0,0.0,0.0,0.0,0.0,0.0,0.0,0.0,0.0,0.0,0.0,0.0,0.0,0.0,0.0,0.0,0.0,0.0,0.0,0.0,0.0,0.0,0.0,0.0,0.0,0.0,0.0,0.0,0.0,0.0,0.0,0.0,0.0,0.0,0.0,0.0,0.0,0.0,0.0,0.0,0.0,0.0,0.0,0.0,0.0,0.0,0.0,0.0,0.0,0.0,0.0,0.0,0.0,0.0,0.0,0.0,0.0,0.0,0.0,0.0,0.0,0.0,0.0,0.0,0.0,0.0,0.0,0.0,0.0,0.0,0.0,0.0,0.0,0.0,0.0,0.0,0.0,0.0,0.0,0.0,0.0,0.0,0.0,0.0,0.0,0.0,0.0,0.0,0.0,0.0,0.0,0.0,0.0,0.0,0.0,0.0,0.0,0.0,0.0,0.0,0.0,0.0,0.0,0.0,0.0,0.0,0.0,0.0,0.0,0.0,0.0,0.0,0.0,0.0,0.0,0.0,0.0,0.0,0.0,0.0,0.0,0.0,0.0,0.0,0.0,0.0,0.0,0.0,0.0,0.0,0.0,0.0,0.0,0.0,0.0,0.0,0.0,0.0,0.0,0.0,0.0,0.0,0.0,0.0,0.0,0.0,0.0,0.0,0.0,0.0,0.0,0.0,0.0,0.0,0.0,0.0,0.0,0.0,0.0,0.0,0.0,0.0,0.0,0.0,0.0,0.0,0.0,0.0,0.0,0.0,0.0,0.0,0.0,0.0,0.0,0.0,0.0,0.0,0.0,0.0,0.0,0.0,0.0,0.0,0.0,0.0,0.0,0.0,0.0,0.0,0.0,0.0,0.0,0.0,0.0,0.0,0.0,0.0,0.0,0.0,0.0,0.0,0.0,0.0,0.0,0.0,0.0,0.0,0.0,0.0,0.0,0.0,0.0,0.0,0.0,0.0,0.0,0.0,0.0,0.0,0.0,0.0,0.0,0.0,0.0,0.0,0.0,0.0,0.0,0.0,0.0,0.0,0.0,0.0,0.0,0.0,0.0,0.0,0.0,0.0,0.0,0.0,0.0,0.0,0.0,0.0,0.0,0.0,0.0,0.0,0.0,0.0,0.0,0.0,0.0,0.0,0.0,0.0,0.0,0.0,0.0,0.0,0.0,0.0,0.0,0.0,0.0,0.0,0.0,0.0,0.0,0.0,0.0,0.0,0.0,0.0,0.0,0.0,0.0,0.0,0.0,0.0,0.0,0.0,0.0,0.0,0.0,0.0,0.0,0.0,0.0,0.0,0.0,0.0,0.0,0.0,0.0,0.0,0.0,0.0,0.0,0.0,0.0,0.0,0.0,0.0,0.0,0.0,0.0,0.0,0.0,0.0,0.0,0.0,0.0,0.0,0.0,0.0,0.0,0.0,0.0,0.0,0.0,0.0,0.0,0.0,0.0,0.0,0.0,0.0,0.0,0.0,0.0,0.0,0.0,0.0,0.0,0.0,0.0,0.0,0.0,0.0,0.0,0.0,0.0,0.0,0.0,0.0,0.0,0.0,0.0,0.0,0.0,0.0,0.0,0.0,0.0,0.0,0.0,0.0,0.0,0.0,0.0,0.0,0.0,0.0,0.0,0.0,0.0,0.0,0.0,0.0,0.0,0.0,0.0,0.0,0.0,0.0,0.0,0.0,0.0,0.0,0.0,0.0,0.0,0.0,0.0,0.0,0.0,0.0,0.0,0.0,0.0,0.0,0.0,0.0,0.0,0.0,0.0,0.0,0.0,0.0,0.0,0.0,0.0,0.0,0.0,0.0,0.0,0.0,0.0,0.0,0.0,0.0,0.0,0.0,0.0,0.0,0.0,0.0,0.0,0.0,0.0,0.0,0.0,0.0,0.0,0.0,0.0,0.0,0.0,0.0,0.0,0.0,0.0,0.0,0.0,0.0,0.0,0.0,0.0,0.0,0.0,0.0,0.0,0.0,0.0,0.0,0.0,0.0,0.0,0.0,0.0,0.0,0.0,0.0,0.0,0.0,0.0,0.0,0.0,0.0,0.0,0.0,0.0,0.0,0.0,0.0,0.0,0.0,0.0,0.0,0.0,0.0,0.0,0.0,0.0,0.0,0.0,0.0,0.0,0.0,0.0,0.0,0.0,0.0,0.0,0.0,0.0,0.0,0.0,0.0,0.0,0.0,0.0,0.0,0.0,0.0,0.0,0.0,0.0,0.0,0.0,0.0,0.0,0.0,0.0,0.0,0.0,0.0,0.0,0.0,0.0,0.0,0.0,0.0,0.0,0.0,0.0,0.0,0.0,0.0,0.0,0.0,0.0,0.0,0.0,0.0,0.0,0.0,0.0,0.0,0.0,0.0,0.0,0.0,0.0,0.0,0.0,0.0,0.0,0.0,0.0,0.0,0.0,0.0,0.0,0.0,0.0,0.0,0.0,0.0,0.0,0.0,0.0,0.0,0.0,0.0,0.0,0.0,0.0,0.0,0.0,0.0,0.0,0.0,0.0,0.0,0.0,0.0,0.0,0.0,0.0,0.0,0.0,0.0,0.0,0.0,0.0,0.0,0.0,0.0,0.0,0.0,0.0,0.0,0.0,0.0,0.0,0.0,0.0,0.0,0.0,0.0,0.0,0.0,0.0,0.0,0.0,0.0,0.0,0.0,0.0,0.0,0.0,0.0,0.0,0.0,0.0,0.0,0.0,0.0,0.0,0.0,0.0,0.0,0.0,0.0,0.0,0.0,0.0,0.0,0.0,0.0,0.0,0.0,0.0,0.0,0.0,0.0,0.0,0.0,0.0,0.0,0.0,0.0,0.0,0.0,0.0,0.0,0.0,0.0,0.0,0.0,0.0,0.0,0.0,0.0,0.0,0.0,0.0,0.0,0.0,0.0,0.0,0.0,0.0,0.0,0.0,0.0,0.0,0.0,0.0,0.0,0.0,0.0,0.0,0.0,0.0,0.0,0.0,0.0,0.0,0.0,0.0,0.0,0.0,0.0,0.0,0.0,0.0,0.0,0.0,0.0,0.0,0.0,0.0,0.0,0.0,0.0,0.0,0.0,0.0,0.0,0.0,0.0,0.0,0.0,0.0,0.0,0.0,0.0,0.0,0.0,0.0,0.0,0.0,0.0,0.0,0.0,0.0,0.0,0.0,0.0,0.0,0.0,0.0,0.0,0.0,0.0,0.0,0.0,0.0,0.0,0.0,0.0,0.0,0.0,0.0,0.0,0.0,0.0,0.0,0.0,0.0,0.0,0.0,0.0,0.0,0.0,0.0,0.0,0.0,0.0,0.0,0.0,0.0,0.0,0.0,0.0,0.0,0.0,0.0,0.0,0.0,0.0,0.0,0.0,0.0,0.0,0.0,0.0,0.0,0.0,0.0,0.0,0.0,0.0,0.0,0.0,0.0,0.0,0.0,0.0,0.0,0.0,0.0,0.0,0.0,0.0,0.0,0.0,0.0,0.0,0.0,0.0,0.0,0.0,0.0,0.0,0.0,0.0,0.0,0.0,0.0,0.0,0.0,0.0,0.0,0.0,0.0,0.0,0.0,0.0,0.0,0.0,0.0,0.0,0.0,0.0,0.0,0.0,0.0,0.0,0.0,0.0,0.0,0.0,0.0,0.0,0.0,0.0,0.0,0.0,0.0,0.0,0.0,0.0,0.0,0.0,0.0,0.0,0.0,0.0,0.0,0.0,0.0,0.0,0.0,0.0,0.0,0.0,0.0,0.0,0.0,0.0,0.0,0.0,0.0,0.0,0.0,0.0,0.0,0.0,0.0,0.0,0.0,0.0,0.0,0.0,0.0,0.0,0.0,0.0,0.0,0.0,0.0,0.0,0.0,0.0,0.0,0.0,0.0,0.0,0.0,0.0,0.0,0.0,0.0,0.0,0.0,0.0,0.0,0.0,0.0,0.0,0.0,0.0,0.0,0.0,0.0,0.0,0.0,0.0,0.0,0.0,0.0,0.0,0.0,0.0,0.0,0.0,0.0,0.0,0.0,0.0,0.0,0.0,0.0,0.0,0.0,0.0,0.0,0.0,0.0,0.0,0.0,0.0,0.0,0.0,0.0,0.0,0.0,0.0,0.0,0.0,0.0,0.0,0.0,0.0,0.0,0.0,0.0,0.0,0.0,0.0,0.0,0.0,0.0,0.0,0.0,0.0,0.0,0.0,0.0,0.0,0.0,0.0,0.0,0.0,0.0,0.0,0.0,0.0,0.0,0.0,0.0,0.0,0.0,0.0,0.0,0.0,0.0,0.0,0.0,0.0,0.0,0.0,0.0,0.0,0.0,0.0,0.0,0.0,0.0,0.0,0.0,0.0,0.0,0.0,0.0,0.0,0.0,0.0,0.0,0.0,0.0,0.0,0.0,0.0,0.0,0.0,0.0,0.0,0.0,0.0,0.0,0.0,0.0,0.0,0.0,0.0,0.0,0.0,0.0,0.0,0.0,0.0,0.0,0.0,0.0,0.0,0.0,0.0,0.0,0.0,0.0,0.0,0.0,0.0,0.0,0.0,0.0,0.0,0.0,0.0,0.0,0.0,0.0,0.0,0.0,0.0,0.0,0.0,0.0,0.0,0.0,0.0,0.0,0.0,0.0,0.0,0.0,0.0,0.0,0.0,0.0,0.0,0.0,0.0,0.0,0.0,0.0,0.0,0.0,0.0,0.0,0.0,0.0,0.0,0.0,0.0,0.0,0.0,0.0,0.0,0.0,0.0,0.0,0.0,0.0,0.0,0.0,0.0,0.0,0.0,0.0,0.0,0.0,0.0,0.0,0.0,0.0,0.0,0.0,0.0,0.0,0.0,0.0,0.0,0.0,0.0,0.0,0.0,0.0,0.0,0.0,0.0,0.0,0.0,0.0,0.0,0.0,0.0,0.0,0.0,0.0,0.0,0.0,0.0,0.0,0.0,0.0,0.0,0.0,0.0,0.0,0.0,0.0,0.0,0.0,0.0,0.0,0.0,0.0,0.0,0.0,0.0,0.0,0.0,0.0,0.0,0.0,0.0,0.0,0.0,0.0,0.0,0.0,0.0,0.0,0.0,0.0,0.0,0.0,0.0,0.0,0.0,0.0,0.0,0.0,0.0,0.0,0.0,0.0,0.0,0.0,0.0,0.0,0.0,0.0,0.0,0.0,0.0,0.0,0.0,0.0,0.0,0.0,0.0,0.0,0.0,0.0,0.0,0.0,0.0,0.0,0.0,0.0,0.0,0.0,0.0,0.0,0.0,0.0,0.0,0.0,0.0,0.0,0.0,0.0,0.0,0.0,0.0,0.0,0.0,0.0,0.0,0.0,0.0,0.0,0.0,0.0,0.0,0.0,0.0,0.0,0.0,0.0,0.0,0.0,0.0,2.7936,2.578,0.0,0.0,0.0,0.0,0.0,0.0,0.0,0.0,0.0,0.0,0.0,0.0,0.0,0.0,0.0,0.0,0.0,0.0,0.0,0.0,0.0,0.0,0.0,1.1232,1.1303,1.0906,1.1232,0.0,0.0,0.0,0.0,0.0,0.0,0.0,0.0,0.0,1.3429,1.5013,1.5854,1.7285,1.923,1.8353,1.7549,1.6775,0.0,0.0,0.0,0.0,0.0,0.0,0.0,0.0,0.0,0.0,0.0,0.0,0.0,0.0,0.0,0.0,0.0,0.0,0.0,0.0,0.0,0.0,0.0,0.0,0.0,0.0,0.0,0.0,0.0,0.0,0.0,0.0,0.0,0.0,0.0,0.0,0.0,0.0,0.0,0.0,0.0,0.0,0.0,0.0,0.0,0.0,0.0,0.0,0.0,0.0,0.0,0.0,0.0,0.0,0.0,0.0,0.0,0.0,0.0,0.0,0.0,0.0,0.0,0.0,0.0,0.0,0.0,0.0,0.0,0.0,3.1193,2.9035,0.0,0.0,0.0,0.0,0.0,0.0,0.0,0.0,0.0,0.0,0.0,0.0,0.0,0.0,0.0,0.0,0.0,0.0,0.0,0.0,0.0,1.1558,1.2226,1.2556,1.2664,1.2517,1.2666,1.2666,1.2517,1.2517,0.0,0.0,0.0,0.0,1.392,1.457,1.5774,1.7532,1.8753,2.056,2.2877,2.3671,2.2937,2.0927,1.9561,0.0,0.0,0.0,0.0,0.0,0.0,0.0,0.0,0.0,0.0,0.0,0.0,0.0,0.0,0.0,0.0,0.0,0.0,0.0,0.0,0.0,0.0,0.0,0.0,0.0,0.0,0.0,0.0,0.0,0.0,0.0,0.0,0.0,0.0,0.0,0.0,0.0,0.0,0.0,0.0,0.0,0.0,0.0,0.0,0.0,0.0,0.0,0.0,0.0,0.0,0.0,0.0,0.0,0.0,0.0,0.0,0.0,0.0,0.0,0.0,0.0,0.0,0.0,3.6139,3.6881,3.7176,3.7727,3.8231,3.8526,3.4745,3.2876,3.2406,3.0737,0.0,0.0,0.0,0.0,0.0,0.0,0.0,0.0,0.0,0.0,0.0,0.0,0.0,0.0,0.0,0.0,0.0,0.0,0.0,1.3004,1.3115,1.4398,1.494,1.4237,1.4829,1.494,1.4237,1.4163,0.0,0.0,0.0,1.4894,1.6395,1.6542,1.7715,2.003,2.2983,2.5338,2.7021,2.7818,2.8033,2.7556,2.396,2.1914,2.1115,0.0,0.0,0.0,0.0,0.0,0.0,0.0,0.0,0.0,0.0,0.0,0.0,0.0,0.0,0.0,0.0,0.0,0.0,0.0,0.0,0.0,0.0,0.0,0.0,0.0,0.0,0.0,0.0,0.0,0.0,0.0,0.0,0.0,0.0,0.0,0.0,0.0,0.0,0.0,0.0,0.0,2.47,2.6135,0.0,0.0,0.0,0.0,0.0,0.0,0.0,0.0,0.0,0.0,0.0,0.0,0.0,3.3362,3.5432,3.6059,3.7094,3.8487,3.8757,3.9615,4.0963,4.0699,4.1014,4.1727,4.1447,0.0,3.619,3.5925,0.0,0.0,0.0,0.0,0.0,0.0,0.0,0.0,0.0,0.0,0.0,0.0,0.0,0.0,0.0,0.0,0.0,0.0,0.0,0.0,0.0,1.7039,1.7586,1.7215,1.7513,1.7586,1.7215,1.7215,0.0,0.0,1.7215,1.7726,1.8889,1.9414,2.129,2.4593,2.6943,2.8925,3.0503,3.0864,3.1262,3.1598,2.9396,2.6937,2.4447,2.3607,0.0,0.0,0.0,0.0,0.0,0.0,0.0,0.0,0.0,0.0,0.0,0.0,0.0,0.0,0.0,0.0,0.0,0.0,0.0,0.0,0.0,0.0,0.0,0.0,0.0,0.0,0.0,0.0,0.0,0.0,0.0,0.0,0.0,0.0,0.0,0.0,0.0,0.0,0.0,2.4953,2.6346,2.7819,2.8514,2.8912,0.0,0.0,0.0,0.0,0.0,0.0,0.0,0.0,0.0,3.5214,3.6527,3.7814,3.9045,4.0535,4.1844,4.2967,4.3451,4.43,4.5396,4.5217,4.5358,4.5695,4.5859,4.4675,4.2456,3.9927,3.8031,3.663,0.0,0.0,0.0,0.0,3.4352,3.4411,0.0,0.0,0.0,0.0,0.0,0.0,0.0,0.0,0.0,0.0,0.0,0.0,1.857,1.9638,2.0156,1.9976,2.0119,2.0156,1.994,1.994,1.994,1.994,1.994,2.0413,2.1428,2.2905,2.5296,2.871,3.054,3.2149,3.3543,3.3984,3.4497,3.5018,3.4424,3.1818,2.7787,2.6985,2.5227,2.2946,0.0,0.0,0.0,0.0,0.0,0.0,0.0,0.0,0.0,0.0,0.0,0.0,0.0,0.0,0.0,0.0,0.0,0.0,0.0,0.0,0.0,0.0,0.0,0.0,0.0,0.0,0.0,0.0,0.0,0.0,0.0,0.0,0.0,0.0,0.0,0.0,0.0,2.7433,2.8735,3.0337,3.1548,3.2176,0.0,0.0,0.0,0.0,0.0,0.0,3.5799,3.6926,3.8081,3.9243,4.1028,4.2283,4.293,4.4737,4.5911,4.6507,4.7122,4.7856,4.8636,4.8636,4.8746,4.892,4.892,4.848,4.7433,4.367,4.1515,4.05,3.9553,3.9048,3.8903,3.9004,3.904,3.9095,0.0,0.0,0.0,0.0,0.0,0.0,0.0,0.0,0.0,0.0,0.0,1.9458,2.0287,2.1832,2.2497,2.1739,2.2354,2.2497,2.1702,2.1666,2.1666,2.1666,2.1666,2.24,2.3969,2.7042,2.9506,3.1213,3.3617,3.5224,3.6156,3.7698,3.8424,3.8461,3.8424,3.5716,3.1097,3.0283,2.8552,2.6277,2.5485,0.0,0.0,0.0,0.0,0.0,0.0,0.0,0.0,0.0,0.0,0.0,0.0,0.0,0.0,0.0,0.0,0.0,0.0,0.0,0.0,0.0,0.0,0.0,0.0,0.0,0.0,0.0,0.0,0.0,0.0,0.0,0.0,0.0,0.0,0.0,0.0,0.0,0.0,3.5022,3.6106,0.0,0.0,0.0,0.0,3.7425,3.7738,3.8604,4.0172,4.0354,4.1967,4.5342,4.5572,4.6379,4.7929,4.8039,4.815,4.8196,4.8223,4.8673,4.9537,4.9537,4.9968,5.0655,5.0655,5.0215,4.9344,4.7507,4.5615,4.3864,4.3799,4.3071,4.2102,4.2517,4.2648,4.2804,0.0,0.0,0.0,1.0386,1.0712,1.1404,1.2986,1.4386,1.5934,1.7773,1.9719,2.1404,2.2758,2.4332,2.5212,2.4924,2.5621,2.5731,2.4924,2.4887,2.4887,2.4887,2.5406,2.6654,2.8784,3.098,3.3146,3.5326,3.7221,3.8579,3.9415,3.9966,4.0259,4.0259,4.0259,3.8982,3.6714,3.4314,3.1892,2.9555,2.8264,2.6576,0.0,0.0,0.0,0.0,0.0,0.0,0.0,0.0,0.0,0.0,0.0,0.0,0.0,0.0,0.0,0.0,0.0,0.0,0.0,0.0,0.0,0.0,0.0,0.0,0.0,0.0,0.0,0.0,0.0,0.0,0.0,0.0,0.0,0.0,0.0,0.0,0.0,3.7405,3.8366,0.0,4.0113,4.0604,4.0994,4.1401,4.2519,4.3422,4.3971,4.4995,4.6139,4.7379,4.8489,4.9334,4.9911,5.0939,5.1709,5.2234,5.2234,5.2674,5.3455,5.3455,5.3602,5.3896,5.3896,5.3419,5.2648,5.205,4.9805,4.6795,4.6795,4.6545,4.6193,4.6318,4.6366,4.6495,0.0,0.0,0.0,1.0746,1.1113,1.2033,1.416,1.5634,1.7292,1.9418,2.1404,2.3203,2.4814,2.646,2.7414,2.7414,2.8154,2.8264,2.7451,2.7414,2.7414,2.7414,2.8448,3.0142,3.2559,3.4217,3.6127,3.83,3.9908,4.0965,4.1507,4.1764,4.1911,4.1911,4.1911,4.1479,4.0569,3.8388,3.5745,3.2896,3.1268,2.9653,2.797,0.0,0.0,0.0,0.0,0.0,0.0,0.0,0.0,0.0,0.0,0.0,0.0,0.0,0.0,0.0,0.0,0.0,0.0,0.0,0.0,0.0,0.0,0.0,0.0,0.0,0.0,0.0,0.0,0.0,0.0,0.0,0.0,0.0,0.0,3.6308,3.821,3.9976,4.0957,4.2004,4.3184,4.3697,4.4259,4.5039,4.6104,4.6948,4.7535,4.8553,4.9507,5.0325,5.1426,5.2123,5.2417,5.3482,5.4289,5.4803,5.4803,5.5071,5.5585,5.5585,5.5585,5.5585,5.5585,5.5291,5.4803,5.4803,5.3225,5.0729,5.0168,4.9948,4.9948,4.9948,4.9948,5.0021,0.0,0.0,1.0027,1.082,1.1631,1.2737,1.4347,1.6622,1.875,2.0323,2.268,2.485,2.646,2.8106,2.9097,2.9097,2.9867,3.002,2.9207,2.9133,2.9164,2.9201,3.0723,3.2669,3.5071,3.6743,3.8374,3.9981,4.1552,4.2323,4.2359,4.3139,4.3506,4.3506,4.3506,4.3065,4.2323,4.2323,4.0084,3.6347,3.4614,3.2963,3.128,0.0,0.0,0.0,0.0,0.0,0.0,0.0,0.0,0.0,0.0,0.0,0.0,0.0,0.0,0.0,0.0,0.0,0.0,0.0,0.0,0.0,0.0,0.0,0.0,0.0,0.0,0.0,0.0,0.0,0.0,0.0,0.0,0.0,3.7639,3.968,4.1629,4.2885,4.4044,4.526,4.6481,4.6986,4.7562,4.8333,4.8443,4.9187,5.0839,5.0949,5.2013,5.4363,5.4473,5.484,5.5622,5.5658,5.5658,5.5658,5.5658,5.5658,5.5658,5.5658,5.5658,5.5658,5.5658,5.5658,5.5658,5.5658,5.5658,5.5511,5.3911,5.3287,5.3287,5.3287,5.3287,5.3324,1.1604,1.1457,1.1677,1.2488,1.3325,1.4383,1.5991,1.8306,2.0217,2.1294,2.3575,2.5668,2.7278,2.9445,3.098,3.1555,3.2876,3.3353,3.2522,3.2485,3.2736,3.331,3.4394,3.5826,3.7654,3.9268,4.0598,4.1625,4.2662,4.3176,4.3176,4.3396,4.3506,4.3506,4.3506,4.3396,4.3176,4.3176,4.2184,4.0414,3.7595,3.587,3.4695,0.0,0.0,0.0,0.0,0.0,0.0,0.0,0.0,0.0,0.0,0.0,0.0,0.0,0.0,0.0,0.0,0.0,0.0,0.0,0.0,0.0,0.0,0.0,0.0,0.0,0.0,0.0,0.0,0.0,0.0,0.0,3.9386,4.0965,4.0965,4.2037,4.3609,4.5699,4.625,4.7048,4.8619,4.9385,5.0105,5.0912,5.205,5.2931,5.3371,5.3959,5.4594,5.5254,5.5831,5.6271,5.6455,5.7042,5.7347,5.7347,5.7347,5.7347,5.7347,5.7347,5.7347,5.7347,5.7347,5.7347,5.7347,5.7347,5.7347,5.72,5.5574,5.495,5.495,5.495,5.5317,5.582,1.2262,1.2116,1.2336,1.3154,1.3988,1.5041,1.6648,1.8962,2.0804,2.1702,2.4199,2.6507,2.8117,3.0142,3.1868,3.2993,3.427,3.4814,3.4314,3.4945,3.5716,3.6509,3.7367,3.8542,4.0157,4.1103,4.1984,4.28,4.3286,4.3506,4.3506,4.3506,4.3506,4.3506,4.3506,4.3506,4.3506,4.3506,4.3212,4.2616,4.0385,3.8843,3.7595,3.5459,3.4137,3.33,3.2118,3.0907,2.9696,2.9035,0.0,0.0,0.0,0.0,0.0,0.0,0.0,0.0,0.0,0.0,0.0,0.0,0.0,0.0,0.0,0.0,0.0,0.0,0.0,0.0,0.0,0.0,0.0,0.0,4.2249,4.4048,4.4709,4.4929,4.5773,4.7902,4.8443,4.9287,5.0949,5.183,5.2637,5.3455,5.4373,5.506,5.539,5.5831,5.6271,5.6576,5.7042,5.7299,5.7299,5.7776,5.7997,5.7997,5.7997,5.7997,5.7997,5.7997,5.7997,5.7997,5.7997,5.7997,5.7997,5.7997,5.7997,5.7923,0.0,0.0,0.0,0.0,5.6895,5.7322,1.2519,1.237,1.2593,1.3298,1.4169,1.5261,1.6685,1.9039,2.0919,2.1702,2.452,2.7084,2.8693,3.0393,3.2051,3.366,3.4614,3.5202,3.5275,3.6861,3.8072,3.8799,3.968,4.0842,4.2308,4.2455,4.2848,4.3597,4.3597,4.3597,4.3597,4.3555,4.3566,4.3566,4.3523,4.3506,4.3506,4.3506,4.3506,4.3433,4.2727,4.1515,4.0018,3.8476,3.7412,3.6523,3.5018,3.3917,3.2919,3.1494,0.0,0.0,0.0,0.0,0.0,0.0,0.0,0.0,0.0,0.0,0.0,0.0,0.0,0.0,0.0,0.0,0.0,0.0,0.0,0.0,0.0,0.0,0.0,0.0,4.4782,4.6874,4.8489,4.8186,4.8333,4.9821,5.0729,5.1783,5.3324,5.4216,5.495,5.5695,5.5805,5.6172,5.6884,5.6921,0.0,0.0,0.0,5.7997,5.7997,5.7997,5.7997,5.7997,5.8107,5.8143,5.8143,5.8217,5.8253,5.8253,5.8253,5.8253,5.8253,5.8253,5.8288,5.8345,5.8162,5.8088,5.8051,5.8108,5.813,5.8186,1.4053,1.4053,1.409,1.4239,1.5481,1.6542,1.6832,1.9561,2.1629,2.178,2.4052,2.6256,2.7866,3.0032,3.2051,3.366,3.5214,3.6389,3.7058,3.858,3.9504,3.9651,4.1075,4.2095,4.2602,4.3306,4.3839,4.4213,4.4213,4.4213,4.4213,4.4017,4.3892,4.3876,4.3634,4.3506,4.3506,4.3506,4.3506,4.3506,4.3322,4.2698,4.1735,4.0773,3.99,3.9174,3.8843,3.7779,3.6501,3.62,3.5174,3.3842,3.3043,3.1804,0.0,0.0,0.0,0.0,0.0,0.0,0.0,0.0,0.0,0.0,0.0,0.0,0.0,0.0,0.0,0.0,0.0,0.0,0.0,4.5911,4.7682,4.9454,5.1069,5.1709,5.215,5.248,5.3225,5.4069,5.5034,5.5868,5.6407,5.6565,5.7152,5.7593,5.7776,5.7776,5.785,5.7997,5.7997,5.7997,5.7997,5.7997,5.7997,5.7997,5.8646,0.0,5.8976,5.9636,5.9942,5.9942,5.9942,5.9942,5.9942,5.9942,6.0151,6.0362,5.9027,5.8461,5.8503,5.885,5.8978,5.8988,1.449,1.449,1.449,1.449,1.5845,1.6905,1.6905,1.9675,2.1817,2.1817,2.391,2.5862,2.7127,2.901,3.09,3.2643,3.5053,3.6902,3.7905,3.9688,4.0755,4.091,4.2478,4.3409,4.3534,4.3975,4.4272,4.439,4.439,4.439,4.439,4.4272,4.4147,4.3978,4.3812,4.3676,4.3506,4.3506,4.3506,4.3506,4.3506,4.3249,4.2873,4.2433,4.1809,4.1111,4.1111,4.0341,3.9247,3.8843,3.8146,3.725,3.6016,3.4805,3.3703,0.0,0.0,0.0,0.0,0.0,0.0,0.0,0.0,0.0,0.0,0.0,0.0,0.0,0.0,4.1735,4.3718,0.0,4.6902,4.8159,5.0068,5.1683,5.2491,5.3985,5.4866,5.4436,5.5097,5.5757,5.6161,5.6932,5.7409,5.7409,5.7776,5.7997,5.7997,5.7997,5.7997,5.7997,5.84,5.8609,5.8609,5.8988,5.9208,5.9208,5.96,5.9783,5.982,6.0224,6.0525,6.0757,6.0757,6.0867,6.106,6.106,6.1209,6.1324,6.0727,6.0369,6.0165,6.0369,6.021,5.9938,1.449,1.449,1.449,1.449,1.5701,1.6725,1.6872,1.9418,2.1445,2.178,2.3612,2.5316,2.6349,2.771,2.9429,3.1629,3.4426,3.6614,3.7907,4.0035,4.1441,4.1819,4.3499,4.4418,4.4472,4.4472,4.4499,4.4559,4.4559,4.4559,4.4559,4.4499,4.4341,4.417,4.4041,4.3836,4.3609,4.354,4.3506,4.3506,4.3506,4.3506,4.3506,4.3506,4.3102,4.2543,4.2543,4.2139,4.147,4.0826,4.0495,4.0128,3.8851,3.7669,3.6633,3.5922,3.4564,0.0,0.0,0.0,0.0,0.0,0.0,0.0,0.0,3.8469,4.0084,4.169,4.3204,4.4718,4.6333,4.7939,4.9297,5.0151,5.2197,5.3728,5.3875,5.5563,5.6638,5.6136,5.6638,5.7031,5.7031,5.7629,5.7997,5.7997,5.7997,5.8116,5.8366,5.8377,5.8496,5.8707,5.936,5.9681,5.9681,6.0345,6.064,6.064,6.0799,6.0909,6.0898,6.1045,6.1348,6.1672,6.1672,6.1865,6.2174,6.2174,6.2241,6.2371,6.277,6.2736,6.2406,6.2104,6.1567,6.112,1.449,1.449,1.449,1.449,1.523,1.6078,1.6798,1.8427,2.0123,2.1596,2.2648,2.3878,2.5444,2.6428,2.8281,3.1587,3.329,3.4966,3.6764,3.9107,4.076,4.1496,4.3395,4.4506,4.4745,4.4751,4.4904,4.5208,4.5208,4.5208,4.5203,4.4898,4.4732,4.4682,4.4199,4.3963,4.3908,4.3642,4.3506,4.3506,4.3506,4.3506,4.3506,4.3506,4.3433,4.3359,4.3359,4.3322,4.3212,4.3139,4.2616,4.1992,4.1809,4.023,3.8395,3.8314,3.7147,3.5906,3.5906,3.6347,3.6831,3.6942,3.8146,3.957,0.0,4.1809,4.3433,4.5039,4.6058,4.7195,4.8866,5.0518,5.183,5.2664,5.4216,5.5585,5.6297,5.6627,5.7042,5.7666,5.7813,5.7886,5.7886,5.796,5.7997,5.7997,5.7997,5.8496,5.9648,5.9706,6.0193,6.1259,6.1381,6.1408,6.1408,6.1521,6.1558,6.1558,6.2271,6.2636,6.2636,6.3365,6.3712,6.3763,6.3763,6.3806,6.3906,6.3906,6.4208,6.463,6.468,6.4886,6.4982,6.3504,6.2891,6.2822,1.449,1.449,1.449,1.449,1.516,1.5967,1.6798,1.8291,1.9783,2.0964,2.1806,2.2787,2.4089,2.598,2.8106,3.0471,3.258,3.4367,3.5775,3.8508,4.0506,4.1449,4.3214,4.4452,4.5093,4.5093,4.5148,4.5283,4.5283,4.5213,4.4992,4.4887,4.4624,4.4329,4.4109,4.3876,4.3681,4.3575,4.3506,4.3506,4.3506,4.3506,4.3506,4.3506,4.3506,4.3506,4.3506,4.3506,0.0,4.3506,4.3286,4.291,4.2433,4.1625,4.07,4.0223,3.9635,3.9085,3.9085,3.968,4.0275,4.0275,4.1854,4.3461,4.3828,4.5149,4.6617,4.7755,4.8673,4.9764,5.1389,5.2637,5.3665,5.4473,5.5537,5.6481,5.7085,5.7534,5.8074,5.8621,5.8689,5.8597,5.8369,5.8545,5.8923,5.9438,5.9438,5.9892,6.0878,6.0963,6.1184,6.1761,6.2203,6.2457,6.2457,6.2936,6.3162,6.3162,6.3491,6.3718,6.3775,6.4105,6.4417,6.4675,6.5395,6.574,6.5811,6.6314,6.6648,6.6881,6.6895,6.7029,6.6975,6.5207,6.4266,6.3927,1.449,1.449,1.449,1.449,1.4973,1.5637,1.6435,1.778,1.9092,2.0134,2.0952,2.1935,2.3198,2.537,2.7398,2.9034,3.1295,3.3236,3.4756,3.7366,3.9531,4.0973,4.2741,4.406,4.4934,4.5168,4.5283,4.5283,4.5283,4.5121,4.4794,4.4794,4.4546,4.4117,4.4025,4.3852,4.3614,4.3549,4.3506,4.3506,4.3506,4.3506,4.3469,4.3249,4.3176,4.3212,4.3433,4.3359,4.3176,4.3176,4.3176,4.3065,4.247,4.2286,4.2176,4.1617,4.158,4.1764,4.1764,4.2681,4.3636,4.3636,4.5104,4.6617,4.6884,4.7792,4.893,4.9968,5.0875,5.1934,5.3429,5.4517,5.5455,5.6145,5.6953,5.7598,5.7886,5.844,5.9015,5.9533,5.9698,5.9766,5.9683,5.9609,5.991,6.0755,6.0858,6.1271,6.2211,6.2276,6.2451,6.2854,6.3405,6.3728,6.3728,6.4287,6.4704,6.4931,6.4931,6.5127,6.5434,6.5434,6.561,6.5932,6.6856,6.7271,6.733,6.799,6.8227,6.8248,6.8304,6.8171,6.7825,6.6758,6.6015,6.5554,1.449,1.449,1.449,1.449,1.453,1.4827,1.5603,1.6438,1.7586,1.9206,2.0138,2.1355,2.3203,2.4242,2.5552,2.7514,2.8995,3.0948,3.3577,3.5365,3.7381,3.9849,4.1794,4.3211,4.4006,4.4857,4.5283,4.5283,4.5283,4.5121,4.4794,4.4794,4.465,4.4369,4.4132,4.3978,4.3947,4.3651,4.3506,4.3506,4.3506,4.3506,4.3396,4.2616,4.2323,4.2433,4.3212,4.2992,4.2323,4.2323,4.2323,4.2323,4.2323,4.2286,4.2286,4.2286,4.2808,4.3433,4.3433,4.514,4.6966,4.6966,4.7599,4.8453,4.9307,4.949,4.9921,5.1583,5.2564,5.3508,5.4711,5.6256,5.7427,5.7875,5.864,5.9221,5.9239,5.931,5.9682,6.0548,6.0996,6.1537,6.2298,6.1234,6.0792,6.1591,6.1732,6.2291,6.3592,6.372,6.4283,6.5451,6.5496,6.5527,6.5527,6.5566,6.5994,6.6806,6.6806,6.7266,6.8086,6.8086,6.8086,6.81,6.8146,6.8189,6.8258,6.8297,6.8331,6.8385,6.8385,6.7891,6.7244,6.8007,6.8308,6.8154,1.449,1.449,1.449,1.449,1.449,1.4603,1.4863,1.5625,1.6573,1.7658,1.9085,0.0,0.0,0.0,0.0,0.0,2.7523,2.9336,3.1329,3.3563,3.5694,3.764,3.9897,4.1556,4.2379,4.3229,4.3634,4.3634,4.3634,4.3787,4.3992,4.3768,4.383,4.414,4.3804,4.3684,4.3639,4.2969,4.269,4.2653,4.2139,4.1911,4.1801,4.1001,4.0716,4.0679,0.0,4.0954,4.1753,4.1753,4.1753,4.1903,4.2597,4.2723,4.2791,4.3894,4.4412,4.4798,4.5653,4.6865,4.8003,4.8553,4.9738,5.0839,5.1143,5.1573,5.2113,5.2674,5.3445,5.4207,5.484,5.6315,5.7572,5.7928,5.8756,5.9668,6.0516,6.0649,6.1056,6.2162,6.2424,6.2825,6.3667,6.2848,6.2559,6.3436,6.3505,6.3947,6.4923,6.4984,6.5224,6.5715,6.6252,6.6528,6.6528,6.7104,6.7526,6.784,6.7881,6.8055,6.8324,6.8324,6.8324,6.8363,6.8946,6.9229,6.9287,6.9787,7.0032,7.0052,7.0052,6.9898,6.9667,6.9937,7.0052,6.986,1.449,1.449,1.449,1.449,1.449,0.0,0.0,0.0,0.0,0.0,0.0,0.0,0.0,0.0,0.0,0.0,0.0,2.7687,2.9314,3.154,3.3517,3.5204,3.7677,3.9419,4.0248,4.1365,4.192,4.1901,4.1901,4.2197,4.2692,4.2473,4.2636,4.3109,4.2889,4.2725,4.258,4.1772,4.1956,4.258,4.092,4.0773,4.1323,3.935,3.8623,0.0,3.769,3.8228,3.9426,4.0237,4.0681,4.1111,4.2207,4.3078,4.3968,4.5065,4.6005,4.6898,4.7699,4.8935,5.0129,5.0648,5.1824,5.2766,5.2655,5.3131,5.3561,5.341,5.4129,5.4887,5.5266,5.6497,5.7699,5.8319,5.8971,5.9886,6.1359,6.1562,6.2112,6.3482,6.3623,6.3969,6.4845,6.443,6.4288,6.4803,6.4868,6.515,6.5642,6.5708,6.5895,6.6256,6.6755,6.7178,6.7486,6.8062,6.8485,6.8799,6.9147,6.9276,6.9276,6.9276,6.9276,6.9314,6.9898,7.0129,7.0167,7.0706,7.0898,7.0898,7.0898,7.0706,7.0514,7.0783,7.0734,7.0382,1.449,1.449,1.449,0.0,0.0,0.0,0.0,0.0,0.0,0.0,0.0,0.0,0.0,0.0,0.0,0.0,0.0,0.0,2.7739,2.9349,3.0982,3.2634,3.5164,3.6876,3.7612,3.9295,4.0117,4.0039,4.0035,4.032,4.0918,4.0906,4.108,4.1416,4.1393,4.122,4.092,4.0084,4.1046,4.2845,3.9717,3.9827,4.1442,3.7588,3.6127,3.6009,3.5114,3.5011,3.5664,3.789,3.9278,4.0165,4.1171,4.3422,4.5681,4.5763,4.7499,4.9416,4.9491,5.1257,5.3128,5.3165,5.375,5.4193,5.3823,5.3988,5.4109,5.374,5.4595,5.5488,5.5905,5.674,5.7724,5.896,5.9306,6.0038,6.1805,6.213,6.2787,6.4474,6.4666,6.4974,6.582,6.5904,6.5808,6.5622,6.5722,6.5838,6.5877,6.5942,6.6327,6.7135,6.7212,6.7628,6.8468,6.8507,6.893,6.9783,7.0552,7.0898,7.0898,7.0898,7.0898,7.0898,7.0898,7.0898,7.0898,7.0898,7.0898,7.0898,7.0912,7.0457,6.988,7.0669,7.0527,6.9965,0.0,0.0,0.0,0.0,0.0,0.0,0.0,0.0,0.0,0.0,0.0,0.0,0.0,0.0,0.0,0.0,0.0,0.0,2.6813,2.7928,2.9003,3.003,3.2493,3.3971,3.4152,3.5753,3.6602,3.6552,3.6523,3.7198,3.8575,3.835,3.8904,4.0019,3.9733,3.9505,3.9232,3.7808,3.7558,3.7962,3.5862,3.5422,3.5789,3.4167,3.3543,3.3433,3.2596,3.3125,3.4609,3.7225,3.9577,4.1407,4.1496,4.3407,4.5758,4.6381,4.789,4.958,5.085,5.2135,5.3232,5.3854,5.4146,5.4262,5.4167,5.3723,5.3307,5.3213,5.3474,5.3809,5.4184,5.5541,5.7062,5.8252,5.9013,6.0296,6.2636,6.3,6.3628,6.5359,6.5551,6.5667,6.5859,6.5904,6.5885,6.5846,6.5865,6.6141,6.6718,6.6776,6.7205,6.8045,6.8706,6.9129,6.936,6.9975,7.036,7.0591,7.0783,7.0898,7.0898,7.0898,7.0898,7.0898,7.0898,7.0898,7.0898,7.0898,7.0898,7.0919,7.1047,7.1008,7.0876,7.1203,7.1256,7.1176,0.0,0.0,0.0,0.0,0.0,0.0,0.0,0.0,0.0,0.0,0.0,0.0,0.0,0.0,0.0,0.0,0.0,0.0,0.0,2.6641,2.753,2.7992,3.0077,3.1223,3.1239,3.2505,3.3123,3.3094,3.3069,3.388,3.5492,3.5354,3.6058,3.7438,3.7143,3.6908,3.6592,3.5243,3.5312,0.0,0.0,3.2852,3.355,3.1347,3.0717,3.0968,3.0497,3.2075,3.4635,3.6544,3.9215,4.177,4.1942,4.393,4.6433,4.7787,4.9338,5.0952,5.24,5.3429,5.4231,5.4671,5.4777,5.4625,5.4099,5.3747,5.3376,5.2847,5.2929,5.3097,5.3302,5.453,5.5879,5.6898,5.8125,5.9858,6.2397,6.3089,6.3929,6.5705,6.5904,6.5904,6.5904,6.6211,6.6442,6.6442,6.6442,6.6635,6.7096,6.7475,6.809,6.893,6.9436,6.986,7.0206,7.0667,7.0898,7.0898,7.0898,7.0898,7.0898,7.0898,7.0898,7.0898,7.0898,7.1165,7.1589,7.1589,7.1855,7.228,7.237,7.242,7.2434,7.2539,7.2664,7.2801,0.0,0.0,0.0,0.0,0.0,0.0,0.0,0.0,0.0,1.7704,1.8262,1.8752,1.8958,1.9812,0.0,0.0,0.0,0.0,0.0,0.0,2.6222,2.6233,2.7884,2.8782,2.8775,2.961,3.0038,2.9986,2.9922,3.0679,3.2176,3.2157,3.2843,3.4073,3.3911,3.3683,3.3358,3.2384,3.3213,3.4842,3.1201,3.098,3.2449,0.0,2.8075,2.8724,2.9023,3.1629,3.5004,3.5973,3.8604,4.1601,4.2381,4.4624,4.729,4.911,5.097,5.2622,5.3746,5.4683,5.5396,5.5396,5.532,5.4956,5.3912,5.3677,5.3396,5.2359,5.2334,5.2543,5.2658,5.336,5.4282,5.5434,5.6824,5.8742,6.1556,6.2627,6.3782,6.5513,6.582,6.5904,6.5904,6.6635,6.7096,6.7096,6.7327,6.7443,6.7443,6.8167,6.8968,6.9821,6.986,7.0206,7.0898,7.0898,7.0898,7.0898,7.0898,7.0898,7.0898,7.0898,7.0996,7.1113,7.1113,7.1735,7.2705,7.2705,7.321,7.3988,7.4009,7.406,7.4021,7.4044,7.4172,7.434,0.0,0.0,0.0,0.0,0.0,0.0,0.0,0.0,0.0,0.0,2.059,2.0604,0.0,0.0,0.0,0.0,0.0,0.0,0.0,0.0,0.0,2.4441,2.6112,2.7048,2.7015,2.7832,2.8234,2.8222,2.7992,2.8399,2.9372,2.9208,2.9568,3.0343,3.0307,3.0134,2.9816,2.8979,2.8894,2.9151,2.7781,2.7488,2.7781,2.7084,0.0,0.0,2.9286,3.1708,3.4247,3.5789,3.847,4.1303,4.212,4.4518,4.7323,4.8595,5.087,5.3055,5.3548,5.4531,5.5396,5.5396,5.4861,5.4295,5.4142,5.2503,5.1014,5.0866,5.0374,5.0174,5.087,5.1191,5.2308,5.5192,5.539,5.6511,6.0479,6.1787,6.2941,6.4628,6.5474,6.5904,6.5904,6.6635,6.7096,6.7096,6.8436,6.9244,6.9244,6.9398,6.986,7.0667,7.0706,7.0744,7.0898,7.0898,7.0898,7.0898,7.0898,7.0898,7.0898,7.0898,7.1377,7.2208,7.2208,7.2809,7.3743,7.3743,7.3842,7.4039,7.4165,7.4248,7.426,7.4386,7.4458,7.4586,0.0,0.0,0.0,0.0,0.0,0.0,0.0,2.2166,2.2575,2.2983,2.2747,2.2378,2.1995,2.2025,2.2117,0.0,0.0,0.0,0.0,0.0,0.0,2.3103,2.4333,2.4993,2.497,2.5825,2.6218,2.6194,0.0,2.6412,2.724,2.7122,2.7524,2.8259,2.8156,2.8029,2.7896,2.7364,2.7163,2.7126,2.6287,2.5993,2.592,2.5511,0.0,0.0,2.9323,3.1488,3.3507,3.5605,3.8175,4.0744,4.2405,4.4562,4.6994,4.9594,5.1345,5.2714,5.4164,5.4955,5.5396,5.5396,5.4753,5.3887,5.3062,5.1649,5.0079,4.8833,4.8313,4.8198,4.8582,4.9413,5.0861,5.3318,5.4511,5.628,5.9665,6.0864,6.221,6.4359,6.4974,6.5397,6.5865,6.7051,6.7782,6.7782,6.936,7.0129,6.9706,7.009,7.0514,7.0898,7.0898,7.0898,7.0898,7.0898,7.0898,7.0898,7.1011,7.1073,7.1079,7.1601,7.2107,7.2633,7.3064,7.3881,7.4813,7.4813,7.5129,7.5619,7.5705,7.5762,7.5766,7.5841,7.5852,7.5891,0.0,0.0,0.0,0.0,0.0,0.0,0.0,2.3153,2.3488,2.4116,2.4186,2.3732,2.2448,2.2412,2.2425,0.0,0.0,0.0,0.0,0.0,0.0,0.0,0.0,0.0,2.3483,0.0,0.0,2.4719,2.4678,0.0,0.0,0.0,0.0,0.0,2.6386,2.6312,2.6302,2.6144,2.6093,0.0,0.0,2.5154,2.5081,0.0,0.0,0.0,0.0,3.0938,3.2956,3.5238,3.7669,4.0157,4.2558,4.4693,4.6935,5.0276,5.171,5.2598,5.4511,5.5211,5.5339,5.5186,5.4358,5.3203,5.1802,5.0391,4.8872,4.6935,4.6285,4.6158,4.6312,4.7432,4.8971,5.1043,5.3203,5.5631,5.855,5.9858,6.1473,6.4012,6.4474,6.5013,6.6051,6.7513,6.8468,6.866,7.0052,7.0629,6.9975,7.0552,7.0898,7.0898,7.0898,7.0898,7.0898,7.092,7.0953,7.0953,7.1175,7.1366,7.1565,7.2353,7.2943,7.3371,7.404,7.4947,7.5915,7.5915,7.6388,7.7101,7.7101,7.7101,7.7101,7.7101,7.7101,7.7101,0.0,0.0,0.0,0.0,0.0,0.0,0.0,2.3634,2.4116,2.419,2.4194,2.4126,2.4016,2.4031,2.3786,0.0,0.0,0.0,0.0,0.0,0.0,0.0,0.0,0.0,0.0,0.0,0.0,2.4719,2.4501,0.0,0.0,0.0,0.0,0.0,0.0,2.4448,2.4444,2.4424,0.0,0.0,0.0,0.0,0.0,0.0,0.0,0.0,0.0,2.9989,3.2876,3.4557,3.6929,3.9597,4.2025,4.4928,4.7706,4.9131,5.1383,5.3481,5.3729,5.4565,5.5217,5.449,5.3115,5.1716,5.0893,4.826,4.5898,4.5726,4.4509,4.3662,4.4393,4.4662,4.5855,4.9086,5.0476,5.2592,5.667,5.8588,6.055,6.3121,6.4122,6.5243,6.6827,6.7859,6.8737,6.9513,7.0398,7.086,7.0783,7.086,7.0898,7.0898,7.0898,7.0898,7.0898,7.1071,7.1181,7.1186,7.1367,7.1849,7.2587,7.2642,7.3674,7.536,7.5438,7.6044,7.6975,7.6975,7.7019,7.7101,7.7101,7.7101,7.7101,7.7101,7.7101,7.7101,0.0,0.0,0.0,0.0,0.0,0.0,2.3529,2.4006,2.4194,2.4194,2.4194,2.4194,2.4194,2.4223,2.4095,2.375,0.0,0.0,0.0,0.0,0.0,0.0,0.0,0.0,0.0,0.0,2.441,2.441,2.4321,0.0,0.0,0.0,0.0,0.0,0.0,2.4194,2.4194,2.4194,0.0,0.0,0.0,0.0,0.0,0.0,0.0,0.0,0.0,0.0,3.2118,3.3727,3.6108,3.8677,4.0252,4.3148,4.6398,4.8862,5.0426,5.1589,5.2784,5.3468,5.3656,5.2877,5.1796,5.0462,4.8715,4.6849,4.5096,4.3611,4.2777,4.2427,4.2735,4.3624,4.524,4.8163,5.0202,5.2549,5.5785,5.7703,5.9704,6.2281,6.332,6.4666,6.6904,6.7898,6.8968,7.0321,7.0706,7.0934,7.1059,7.0953,7.0979,7.1065,7.1065,7.1141,7.1244,7.1329,7.1372,7.1372,7.21,7.2559,7.2913,7.4046,7.4999,7.5735,7.6281,7.6725,7.7101,7.7101,7.7101,7.7101,7.7101,7.7101,7.7101,7.7101,7.7101,7.7101,0.0,0.0,0.0,0.0,0.0,2.2326,2.3937,2.4194,2.4194,2.4194,2.4194,2.4194,2.4194,2.4194,2.4194,2.4194,2.273,0.0,0.0,0.0,0.0,0.0,0.0,0.0,0.0,0.0,2.4194,2.4194,2.4194,2.4194,0.0,0.0,2.4194,2.4194,0.0,0.0,0.0,0.0,0.0,0.0,0.0,0.0,0.0,0.0,0.0,0.0,0.0,0.0,0.0,0.0,0.0,3.7219,3.897,4.135,4.4142,4.7491,4.9017,4.9898,5.1311,5.1906,5.1897,5.114,5.0134,4.883,4.6897,4.5374,4.3918,4.215,4.1581,4.1354,4.1081,4.2431,4.4316,4.6586,4.9312,5.212,5.4934,5.7049,5.9242,6.1787,6.282,6.4391,6.7205,6.8475,6.9622,7.0821,7.0979,7.1067,7.1209,7.1118,7.1147,7.127,7.1275,7.1349,7.1481,7.1533,7.1672,7.1948,7.271,7.3347,7.3858,7.5209,7.5932,7.6205,7.6828,7.7101,7.7101,7.7101,7.7101,7.7101,7.7101,7.7101,7.7101,7.7101,7.7101,7.7101,0.0,0.0,0.0,0.0,0.0,0.0,2.3937,2.4194,2.4194,2.4194,2.4194,2.4194,2.4194,2.4194,2.4194,2.4194,2.273,0.0,0.0,0.0,0.0,0.0,0.0,0.0,0.0,0.0,2.4194,2.4194,2.4194,2.4194,2.4194,2.4194,2.4194,2.4194,0.0,0.0,0.0,0.0,0.0,0.0,0.0,0.0,2.4194,0.0,0.0,0.0,0.0,0.0,0.0,0.0,0.0,0.0,0.0,3.9905,4.1027,4.436,4.7117,4.9104,4.9142,4.9761,5.0243,4.9444,4.8,4.6637,4.5808,4.3662,4.185,4.1812,4.1123,4.0285,3.9473,4.07,4.2389,4.4085,4.7201,5.0625,5.401,5.6703,5.9242,6.1787,6.282,6.4622,6.8045,6.9898,7.0898,7.0898,7.1077,7.1214,7.1214,7.1377,7.1477,7.152,7.152,7.1481,7.1481,7.1634,7.2128,7.2986,7.32,7.4172,7.5775,7.5775,7.6283,7.7101,7.7101,7.7101,7.7101,7.7101,7.7101,7.7101,7.7101,7.7101,7.7101,7.7101,7.7101,7.7101,0.0,0.0,0.0,0.0,0.0,0.0,0.0,2.4194,2.4194,2.4194,2.4194,2.4194,2.4194,2.4194,2.4194,2.4194,2.3235,0.0,0.0,0.0,0.0,0.0,0.0,0.0,0.0,2.3786,2.4451,2.5007,2.5007,2.5296,2.5836,2.5836,2.5548,2.5007,2.5007,2.4708,0.0,0.0,0.0,0.0,0.0,2.4194,2.4194,0.0,0.0,0.0,0.0,0.0,0.0,0.0,0.0,0.0,0.0,0.0,0.0,4.2226,4.4544,4.6679,4.7247,4.805,4.8409,4.7002,4.6297,4.5403,4.3457,4.2389,4.1619,4.105,4.0704,4.0439,4.0169,4.1046,4.2543,4.4821,4.7552,5.0394,5.3203,5.6319,5.9011,6.0979,6.4512,6.7199,6.8276,7.0027,7.1101,7.1101,7.128,7.1452,7.1527,7.1618,7.1641,7.1641,7.1641,7.1683,7.1837,7.2489,7.2929,7.3202,7.4438,7.5307,7.5814,7.6439,7.6828,7.7101,7.7101,7.7101,7.7101,7.7101,7.7101,7.7101,7.7101,7.7101,7.7101,7.7101,7.7101,7.7101,0.0,0.0,0.0,0.0,0.0,0.0,0.0,2.4006,2.4194,2.4194,2.4194,2.4194,2.4194,2.4194,2.4194,2.4194,2.3749,0.0,0.0,0.0,0.0,0.0,0.0,0.0,2.3451,2.4231,2.4897,2.5416,2.5705,2.6104,2.6607,2.6607,2.6319,2.5847,2.5526,2.5117,0.0,0.0,0.0,0.0,2.4194,2.4194,2.4194,0.0,0.0,0.0,0.0,0.0,0.0,0.0,0.0,0.0,0.0,0.0,0.0,0.0,4.1954,4.3719,4.4862,4.5571,4.5802,4.4795,4.4314,4.367,4.2146,4.1542,4.1162,4.0631,4.0516,4.04,4.0092,4.1008,4.2543,4.4744,4.7514,5.0279,5.2851,5.6121,5.916,6.1473,6.5759,6.8511,6.8511,7.0208,7.13,7.13,7.1481,7.1615,7.1697,7.178,7.18,7.18,7.18,7.202,7.2495,7.304,7.3625,7.4251,7.5307,7.5971,7.6322,7.6867,7.7101,7.7101,7.7101,7.7101,0.0,7.7101,7.7101,7.7101,7.7101,7.7101,7.7101,7.7101,7.7101,7.7101,0.0,0.0,0.0,0.0,0.0,0.0,0.0,2.3634,2.4158,2.419,2.4194,2.4194,2.4194,2.4194,2.4194,2.4194,0.0,0.0,0.0,0.0,0.0,0.0,0.0,0.0,2.4268,2.5081,2.5521,2.5668,2.6465,2.6901,2.6937,2.6937,2.6864,2.6754,2.5993,2.5563,2.5343,0.0,0.0,0.0,2.4194,2.4194,0.0,0.0,0.0,0.0,0.0,0.0,0.0,0.0,0.0,0.0,0.0,0.0,0.0,0.0,0.0,0.0,0.0,4.2651,4.2828,4.2919,4.2322,4.1716,4.1723,4.1085,0.0,4.0516,4.0516,4.0285,3.9588,4.0816,4.2466,4.4278,4.7355,5.0394,5.301,5.6395,5.9775,6.3083,6.656,6.8705,6.8782,7.0459,7.1501,7.1501,7.1644,7.1713,7.1713,7.1915,7.1987,7.1987,7.2065,7.2495,7.3274,7.3352,7.4212,7.5814,7.5853,7.6322,7.7101,7.7101,7.7101,7.7101,7.7101,7.7101,7.7101,7.7101,7.7101,7.7101,7.7101,7.7101,7.7101,7.7101,7.7101,7.7101,0.0,0.0,0.0,0.0,0.0,0.0,0.0,0.0,0.0,0.0,2.4194,2.4194,2.4194,2.4194,2.4194,0.0,0.0,0.0,0.0,0.0,0.0,0.0,0.0,0.0,2.5081,2.592,2.6901,2.8148,2.8956,2.9659,3.0252,3.0252,2.9622,2.8436,2.8253,2.7126,2.5343,2.4525,0.0,0.0,2.4194,2.4194,0.0,0.0,0.0,0.0,2.6607,2.7629,0.0,0.0,0.0,0.0,0.0,0.0,0.0,0.0,3.8652,3.9478,3.9862,0.0,4.2812,4.2244,4.1949,4.1607,0.0,4.0666,4.0516,4.0516,4.0516,4.0666,4.1123,4.2085,4.3778,4.674,4.9009,5.1515,5.4664,5.8632,6.221,6.4974,6.7326,6.8937,6.9556,7.0845,7.1656,7.1656,7.18,7.1925,7.1925,7.198,7.1987,7.1987,7.2651,7.3079,7.3313,7.39,7.4759,7.5814,7.6477,7.6906,7.7101,7.7101,7.7101,7.7101,7.7101,7.7101,7.7101,7.7101,7.7101,7.7101,7.7101,7.7101,7.7101,7.7101,7.7101,7.7101,0.0,0.0,0.0,0.0,0.0,0.0,0.0,0.0,0.0,0.0,0.0,2.4194,2.4194,2.4194,0.0,0.0,0.0,0.0,0.0,0.0,0.0,0.0,0.0,2.4672,2.592,2.7084,2.8479,3.0093,3.0901,3.1715,3.2492,3.2118,3.1494,3.0601,2.9103,2.731,2.5343,2.4525,2.4194,2.4194,2.4194,0.0,0.0,0.0,0.0,0.0,2.6607,2.7629,0.0,2.95,3.0208,3.1185,0.0,0.0,0.0,0.0,3.7793,3.8651,3.9055,4.0466,4.1767,4.1308,4.12,4.1085,4.0593,4.0516,4.0631,4.1012,4.1085,4.147,4.2739,4.3662,4.5201,4.8202,5.0471,5.3285,5.7478,6.0364,6.3066,6.5693,6.7647,6.9122,7.0023,7.1171,7.185,7.185,7.1929,7.1987,7.1987,7.1987,7.1987,7.1987,7.2845,7.3469,7.386,7.4681,7.5541,7.64,7.6867,7.7101,7.7101,7.7101,7.7101,7.7101,7.7101,7.7101,7.7101,7.7101,7.7101,7.7101,7.7101,7.7101,7.7101,7.7101,7.7101,7.7101,0.0,0.0,0.0,0.0,0.0,0.0,0.0,0.0,0.0,0.0,0.0,0.0,0.0,0.0,0.0,0.0,0.0,0.0,0.0,0.0,0.0,0.0,2.4672,2.5815,2.6754,2.8479,3.0204,3.1941,3.2889,3.369,3.4364,3.3653,3.3066,3.2472,2.9255,2.6985,2.5521,2.4598,2.4194,2.4194,2.4194,0.0,0.0,0.0,0.0,0.0,0.0,0.0,0.0,2.9033,2.9795,3.0889,3.1845,0.0,0.0,0.0,0.0,0.0,3.8819,3.9718,4.0503,4.0504,4.0516,4.0516,4.0666,4.0704,4.0935,4.1812,4.2081,4.2658,4.4201,4.5436,4.6975,4.9394,5.2276,5.5799,6.0382,6.2039,6.3687,6.6235,6.8053,6.9525,7.0489,7.1441,7.1987,7.1987,7.1987,7.1987,7.1987,7.1987,7.2065,7.2182,7.3041,7.386,7.4681,7.5424,7.6244,7.7101,7.7101,7.7101,7.7101,7.7101,7.7101,7.7101,7.7101,7.7101,7.7101,7.7101,7.7101,7.7101,7.7101,7.7101,7.7101,7.7101,7.7101,7.7101,0.0,0.0,0.0,0.0,0.0,0.0,0.0,0.0,0.0,0.0,0.0,0.0,0.0,0.0,0.0,0.0,0.0,0.0,0.0,0.0,0.0,2.5007,2.5269,2.6109,2.7567,2.9848,3.2155,3.4454,3.5973,3.6795,3.6942,3.6795,3.5245,3.2472,2.9255,2.7273,2.6319,2.4814,2.4194,2.4194,2.4194,0.0,0.0,0.0,0.0,0.0,0.0,0.0,0.0,2.9195,2.9504,3.011,3.1801,0.0,0.0,0.0,0.0,0.0,3.8074,3.9285,4.0508,4.0512,4.0516,4.0704,4.1431,4.1581,4.185,4.2739,4.3431,4.4201,4.5205,4.7283,4.9394,5.1236,5.561,5.9552,6.1747,6.4183,6.6418,6.8264,6.9497,7.052,7.1427,7.179,7.1987,7.1987,7.1987,7.1987,7.1987,7.1987,7.2339,7.3079,7.39,7.472,7.558,7.5736,7.6244,7.7101,7.7101,7.7101,7.7101,7.7101,7.7101,7.7101,7.7101,7.7101,7.7101,7.7101,7.7101,7.7101,7.7101,7.7101,7.7101,7.7101,7.7101,7.7103,0.0,0.0,0.0,0.0,0.0,0.0,0.0,0.0,0.0,0.0,0.0,0.0,0.0,0.0,0.0,0.0,0.0,0.0,0.0,0.0,2.4562,2.5379,2.6219,2.7646,2.9702,3.1274,3.3653,3.6993,3.7771,3.8579,3.9423,3.8109,3.5759,3.2509,3.013,2.8154,2.6534,2.5333,2.4598,2.4194,0.0,0.0,0.0,0.0,0.0,0.0,0.0,0.0,0.0,0.0,2.9421,2.9926,3.1798,0.0,0.0,0.0,0.0,0.0,3.8527,3.9577,4.0631,4.1085,4.12,4.1316,4.1696,4.2504,4.3393,4.4282,4.547,4.6778,4.8091,4.9663,5.1626,5.4332,5.7949,6.1061,6.2857,6.5002,6.7062,6.8848,6.9843,7.0795,7.1778,7.1932,7.1987,7.1987,7.1987,7.1987,7.1987,7.1987,7.2417,7.3274,7.4095,7.4915,7.5775,7.6283,7.6711,7.7101,7.7101,7.7101,7.7101,7.7101,7.7101,7.7101,7.7101,7.7101,7.7101,7.7101,7.7101,7.7101,7.7101,7.7101,7.7103,7.7111,7.7114,7.7115,0.0,0.0,0.0,0.0,0.0,0.0,0.0,0.0,0.0,0.0,0.0,0.0,0.0,0.0,0.0,0.0,0.0,0.0,0.0,2.4194,2.4635,2.5631,2.7021,2.8931,3.136,3.2779,3.5268,3.8982,3.9342,4.0076,4.1058,3.8623,3.5833,3.2809,3.1011,2.8956,2.6833,2.5815,2.5044,2.4451,0.0,0.0,0.0,0.0,0.0,0.0,0.0,0.0,0.0,0.0,0.0,0.0,0.0,0.0,0.0,3.5856,3.7256,3.82,3.905,4.005,4.1012,4.1889,4.2081,4.2196,4.2581,4.4008,4.5432,4.6321,4.7817,4.9389,5.0741,5.2016,5.3995,5.7516,5.9977,6.2133,6.4185,6.5982,6.7717,6.9358,7.0264,7.1109,7.1905,7.1987,7.1987,7.1987,7.1987,7.1987,7.1987,7.2182,7.269,7.3547,7.4369,7.5227,7.6088,7.6789,7.7101,7.7101,7.7101,7.7101,7.7101,7.7101,7.7101,7.7101,7.7101,7.7101,7.7101,7.7101,7.7101,7.7101,7.7101,7.7103,7.7108,7.7118,7.7085,7.7089,0.0,0.0,0.0,0.0,0.0,0.0,0.0,0.0,0.0,0.0,0.0,0.0,0.0,0.0,0.0,0.0,0.0,0.0,0.0,2.4194,2.4887,2.646,2.7346,2.8931,3.136,3.4438,3.7265,3.9798,4.1295,4.1727,4.1058,3.8623,3.617,3.3623,3.1237,2.9255,2.7609,2.6072,2.5379,2.5269,2.4488,0.0,0.0,0.0,0.0,0.0,0.0,0.0,0.0,0.0,0.0,0.0,0.0,0.0,3.3297,3.5856,3.7256,3.82,3.905,4.0469,4.1927,4.2777,4.3008,4.3393,4.4975,4.6624,4.8086,4.8933,5.0466,5.1654,5.1774,5.3955,5.6794,6.0174,6.1839,6.3548,6.6047,6.7994,6.9518,7.0497,7.1357,7.1905,7.1987,7.1987,7.1987,7.1987,7.1987,7.1987,7.1987,7.2768,7.3586,7.4408,7.5268,7.6127,7.6984,7.7062,7.7101,7.7101,7.7101,7.7101,7.7101,7.7101,7.7101,7.7101,7.7101,7.7101,7.7101,7.7101,7.7101,7.7101,7.7101,7.711,7.7082,7.7083,7.709,7.7098,0.0,0.0,0.0,0.0,0.0,0.0,0.0,0.0,0.0,0.0,0.0,0.0,0.0,0.0,0.0,0.0,0.0,0.0,0.0,2.4194,2.4924,2.6534,2.7855,2.991,3.2816,3.4608,3.7176,4.0663,4.2249,4.2396,4.1067,3.9129,3.692,3.4454,3.2008,3.0063,2.8479,2.7352,2.6581,2.6135,2.5805,2.5401,0.0,0.0,0.0,0.0,0.0,0.0,0.0,0.0,2.9662,3.0116,3.2138,3.2791,3.3416,3.6504,3.7697,3.843,4.0315,4.17,4.3081,4.5004,4.624,4.7048,4.7124,4.8851,5.0543,5.089,5.2736,5.4587,5.5698,5.7632,5.9555,6.0942,6.2959,6.4913,6.6484,6.8266,6.9723,7.058,7.148,7.1987,7.1987,7.1987,7.1987,7.1987,7.1987,7.1987,7.1987,7.2845,7.3664,7.4486,7.5346,7.6205,7.7101,7.7101,7.7101,7.7101,7.7101,7.7101,7.7101,7.7101,7.7101,7.7101,7.7101,7.7101,7.7101,7.7101,7.7101,7.7103,7.7111,7.7118,7.7124,7.7136,7.7141,7.7182,0.0,0.0,0.0,0.0,0.0,0.0,0.0,0.0,0.0,0.0,0.0,0.0,0.0,0.0,0.0,0.0,0.0,0.0,2.4194,2.4194,2.4924,2.6534,2.8143,3.0381,3.3366,3.4718,3.7132,4.0736,4.2066,4.2176,4.1067,3.9203,3.714,3.4931,3.2736,3.0907,2.9317,2.8515,2.7714,2.6979,2.6717,2.6135,0.0,0.0,0.0,0.0,0.0,0.0,0.0,0.0,2.9565,3.0241,3.2183,3.2806,3.3458,3.6907,3.7939,3.8546,4.1119,4.262,4.4085,4.6658,4.8735,5.0164,5.0125,5.1659,5.3082,5.3082,5.4934,5.7077,5.8846,6.0205,6.1403,6.2416,6.4172,6.5927,6.7416,6.8631,6.984,7.0972,7.1636,7.1987,7.1987,7.1987,7.1987,7.1987,7.1987,7.2104,7.2417,7.3236,7.4056,7.4876,7.5775,7.6516,7.7101,7.7101,7.7101,7.7101,7.7101,7.7101,7.7101,7.7101,7.7101,7.7101,7.7101,7.7101,7.7101,7.7101,7.7104,7.711,7.7084,7.7091,7.7133,7.7182,7.7185,7.7186,0.0,0.0,0.0,0.0,0.0,0.0,0.0,0.0,0.0,0.0,0.0,0.0,0.0,0.0,0.0,0.0,0.0,0.0,2.4194,2.4194,2.4924,2.6534,2.8143,3.0124,3.2509,3.5018,3.7485,3.9908,4.07,4.1095,4.103,3.8623,3.6597,3.4924,3.3316,3.1708,3.0173,2.9354,2.8552,2.7756,2.6943,2.614,2.5416,0.0,0.0,0.0,0.0,0.0,0.0,0.0,2.9173,3.0245,3.2183,3.2809,3.3496,3.6907,3.7978,3.8584,4.1119,4.3047,4.4932,4.7509,5.0043,5.239,5.4126,5.5131,5.5708,5.5747,5.7126,5.8897,6.0678,6.1213,6.2222,6.4875,6.5468,6.6483,6.9022,6.9412,7.0037,7.1792,7.1987,7.1987,7.1987,7.1987,7.1987,7.1987,7.1987,7.2378,7.3235,7.4056,7.4915,7.5775,7.6633,7.7101,7.7101,7.7101,7.7101,7.7101,7.7101,7.7101,7.7101,7.7101,7.7101,7.7101,7.7101,7.7101,7.7101,7.7101,7.7111,7.7085,7.7095,7.7141,7.7184,7.7184,7.7186,7.7187,0.0,0.0,0.0,0.0,0.0,0.0,0.0,0.0,0.0,0.0,0.0,0.0,0.0,0.0,0.0,0.0,0.0,0.0,2.4194,2.4194,2.4672,2.5705,2.7315,2.9035,3.0864,3.3837,3.6883,3.9908,4.07,4.081,4.023,3.8366,3.6934,3.5819,3.358,3.2326,3.1818,3.0424,2.9696,2.9439,2.862,2.7488,2.6245,0.0,0.0,0.0,0.0,0.0,0.0,0.0,0.0,0.0,3.2064,3.3227,3.4257,3.7136,3.8808,4.0204,4.2162,4.4389,4.674,4.9283,5.1395,5.3428,5.5747,5.6439,5.7132,5.8902,5.9704,6.0635,6.2491,6.3459,6.4241,6.5148,6.5938,6.7148,6.9139,6.9412,7.0037,7.1792,7.1987,7.1987,7.1987,7.1987,7.1987,7.1987,7.1987,7.2378,7.3235,7.4056,7.4915,7.5775,7.6633,7.7101,7.7101,7.7101,7.7101,7.7101,7.7101,7.7101,7.7101,7.7101,7.7101,7.7101,7.7101,7.7101,7.7101,7.7112,7.7085,7.7095,7.7141,7.7183,7.7184,7.7187,7.7187,7.7187,0.0,0.0,0.0,0.0,0.0,0.0,0.0,0.0,2.2253,2.3566,2.4006,2.4194,0.0,0.0,0.0,2.3708,2.3708,0.0,2.3708,2.4006,2.4562,2.5379,2.6654,2.838,3.0613,3.2589,3.5011,3.7955,3.8799,3.9129,3.8917,3.7265,3.6266,3.5708,3.3874,3.2919,3.2509,3.1237,3.0503,3.013,2.9317,2.8033,2.6607,0.0,0.0,0.0,0.0,0.0,0.0,0.0,0.0,0.0,3.1213,3.2627,3.4117,3.6727,3.8703,4.055,4.2931,4.5432,4.8005,5.0548,5.2472,5.4395,5.694,5.7747,5.8632,6.0864,6.1325,6.1896,6.3833,6.4706,6.5268,6.5821,6.6696,6.781,6.9217,6.9684,7.0426,7.1831,7.1987,7.1987,7.1987,7.1987,7.1987,7.1987,7.2339,7.2885,7.3743,7.4564,7.5424,7.6283,7.6828,7.7101,7.7101,7.7101,7.7101,7.7101,7.7101,7.7101,7.7101,7.7101,7.7101,7.7101,7.7107,7.711,7.7112,7.7129,7.7137,7.7142,7.7185,7.7186,7.7186,7.7187,7.7187,7.7187,0.0,0.0,0.0,0.0,0.0,0.0,0.0,2.1167,2.1979,2.2786,2.3529,2.3974,0.0,0.0,0.0,2.2896,2.2969,2.3006,2.3006,2.3749,2.4525,2.5269,2.6062,2.7934,3.1023,3.1133,3.2302,3.4557,3.5635,3.6604,3.7345,3.5745,3.4997,3.4961,3.4167,3.3403,3.2662,3.1861,3.1054,3.0246,2.9427,2.8106,2.6607,2.6628,0.0,0.0,0.0,0.0,0.0,0.0,0.0,0.0,2.9992,3.1559,3.3502,3.5993,3.8046,4.0204,4.3359,4.6163,4.8774,5.1197,5.3313,5.5472,5.7852,5.9088,6.0204,6.1864,6.2267,6.2932,6.4862,6.5202,6.5576,6.6622,6.7537,6.8396,6.9295,7.0152,7.101,7.1909,7.1987,7.1987,7.1987,7.1987,7.1987,7.1987,7.2807,7.3664,7.4447,7.5346,7.6205,7.7062,7.7101,7.7101,7.7101,7.7101,7.7101,7.7101,7.7101,7.7101,7.7101,7.7101,7.7101,7.7104,7.7117,7.7085,7.7127,7.7181,7.7184,7.7185,7.7187,7.7187,7.7187,7.7187,7.7187,7.7187,0.0,0.0,0.0,0.0,0.0,0.0,2.0323,2.0557,2.0969,2.1942,2.2216,2.2326,2.2326,2.2143,0.0,2.2069,2.2644,2.3006,2.3006,2.3749,2.4268,2.4451,2.5227,2.6586,2.8527,2.9176,3.0093,3.1231,3.394,3.5708,3.653,3.5488,3.4997,3.4961,3.4167,3.3697,3.347,3.2662,3.1898,3.106,3.0283,2.8589,2.6623,2.6713,2.5773,0.0,0.0,0.0,0.0,0.0,0.0,0.0,2.9828,3.1975,3.4308,3.6154,3.8888,4.1581,4.297,4.6163,4.9433,5.0668,5.4241,5.778,5.8973,6.0435,6.1826,6.282,6.367,6.4575,6.5809,6.6176,6.6408,6.6745,6.7537,6.8396,6.9295,7.0152,7.101,7.1909,7.1987,7.1987,7.1987,7.1987,7.1987,7.1987,7.2807,7.3664,7.4447,7.5346,7.6205,7.7062,7.7101,7.7101,7.7101,7.7101,7.7101,7.7101,7.7101,7.7101,7.7101,7.7101,7.7108,7.7118,7.7082,7.7132,7.7181,7.7184,7.7186,7.7187,7.7187,7.7187,7.7187,7.7187,7.7187,7.7187,0.0,0.0,0.0,0.0,0.0,0.0,0.0,0.0,2.0304,2.0857,2.1252,2.1502,2.1639,2.1328,0.0,0.0,2.1575,2.1979,2.2391,2.3199,2.3786,2.419,2.4598,2.5411,2.6623,2.7058,2.8038,2.9616,3.1702,3.3323,3.4534,3.4461,3.4424,3.4424,3.399,3.3807,3.3733,3.2956,3.2149,3.1329,3.0628,2.9125,2.7352,2.7494,2.685,2.5878,2.6037,0.0,0.0,0.0,0.0,0.0,0.0,0.0,3.3391,3.5503,3.8234,4.1046,4.3124,4.6163,4.9394,5.19,5.5434,5.839,5.8813,6.0858,6.2781,6.3198,6.4095,6.5127,6.6124,6.6471,6.6782,6.7332,6.8161,6.902,6.9918,7.0777,7.148,7.1948,7.1987,7.1987,7.1987,7.1987,7.1987,7.1987,7.3158,7.4056,7.4486,7.5735,7.6633,7.7101,7.7101,7.7101,7.7101,7.7101,7.7101,7.7101,7.7101,7.7106,7.7112,7.7112,7.7116,7.7084,7.7133,7.7179,7.7184,7.7186,7.7187,7.7187,7.7187,7.7187,7.7187,7.7187,7.7187,7.7187,0.0,0.0,0.0,0.0,0.0,0.0,0.0,0.0,0.0,1.9798,2.031,2.0777,2.1043,2.0454,2.012,0.0,0.0,0.0,2.1739,2.2685,2.3488,2.4153,2.4194,2.4525,2.5191,2.5343,2.6434,2.8583,2.9653,3.0938,3.2406,3.3366,3.388,3.402,3.402,3.402,3.3954,3.3286,3.2511,3.163,3.1111,3.0002,2.8599,2.8809,2.8453,2.7831,2.7739,2.7341,2.6919,2.6771,0.0,0.0,0.0,0.0,3.1965,3.4542,3.7084,3.9781,4.3008,4.6163,4.9548,5.3664,5.6511,5.8352,5.8467,6.1006,6.3314,6.3314,6.4243,6.5324,6.6132,6.6489,6.6958,6.7958,6.8825,6.9684,7.058,7.1441,7.1987,7.1987,7.1987,7.1987,7.1987,7.1987,7.1987,7.1987,7.3549,7.4486,7.4486,7.6164,7.7101,7.7101,7.7101,7.7101,7.7101,7.7101,7.7101,7.7101,7.7104,7.7112,7.7084,7.7126,7.7128,7.7129,7.7181,7.7184,7.7185,7.7187,7.7187,7.7187,7.7187,7.7187,7.7187,7.7187,7.7187,7.7187,0.0,0.0,0.0,0.0,0.0,0.0,0.0,0.0,0.0,0.0,1.9002,1.9088,1.9315,1.9228,1.9267,1.9443,2.0111,2.0882,2.1739,0.0,0.0,2.4194,2.4194,2.4268,2.4378,2.5044,2.5883,2.6937,2.9103,3.0687,3.1574,3.3109,3.4167,3.4857,3.4857,3.4857,3.4821,3.474,3.3933,3.2763,3.2681,3.18,3.0532,3.0742,3.0358,2.9562,2.8987,2.8715,2.857,2.787,2.7618,0.0,0.0,0.0,3.1077,3.3625,3.6164,3.8738,4.1427,4.6163,5.1207,5.467,5.6934,5.8467,5.9165,6.1391,6.3314,6.3314,6.4793,6.6132,6.6268,6.6559,6.706,6.7965,6.8825,6.9684,7.058,7.1441,7.1987,7.1987,7.1987,7.1987,7.1987,7.1987,7.1987,7.1987,7.3549,7.4486,7.4486,7.6164,7.7101,7.7101,7.7101,7.7101,7.7101,7.7101,7.7101,7.7101,7.7115,7.7082,7.7084,7.7178,7.7182,7.7182,7.7184,7.7186,7.7187,7.7187,7.7187,7.7187,7.7187,7.7187,7.7187,7.7187,7.7187,7.7187,0.0,0.0,0.0,0.0,0.0,0.0,0.0,0.0,0.0,0.0,0.0,1.8793,1.8981,1.9006,1.9081,1.9263,1.9605,2.0376,2.1702,2.2868,2.3749,2.4194,2.4194,2.4194,2.4194,2.4562,2.5333,2.6607,2.8117,2.9738,3.1433,3.2596,3.38,3.4997,3.4997,3.5261,3.5723,3.5373,3.4623,3.3651,3.343,3.2702,3.1772,3.1973,3.1817,3.147,3.1214,3.0841,3.0334,2.9489,2.89,2.861,2.897,0.0,0.0,0.0,3.5353,3.7465,4.1466,4.5817,4.9933,5.2856,5.5203,5.7203,5.8511,6.0435,6.2207,6.3241,6.4631,6.577,6.6233,6.6571,6.7265,6.8591,6.9137,6.9879,7.1245,7.1753,7.1987,7.1987,7.1987,7.1987,7.1987,7.1987,7.2182,7.269,7.3822,7.472,7.519,7.6438,7.7101,7.7101,7.7101,7.7101,7.7101,7.7101,7.7106,7.7114,7.7087,7.7134,7.7177,7.7185,7.7186,7.7184,7.7186,7.7187,7.7187,7.7187,7.7187,7.7187,7.7187,7.7187,7.7187,7.7187,7.7187,7.7187,0.0,0.0,0.0,0.0,0.0,0.0,0.0,0.0,0.0,0.0,0.0,1.9093,1.9319,0.0,0.0,0.0,1.9426,1.9903,2.1368,2.2244,2.2978,2.357,2.3786,2.3896,2.3896,2.408,2.4887,2.6282,2.7315,2.8931,3.1133,3.2112,3.3463,3.4997,3.5224,3.5721,3.6371,3.6137,3.564,3.4979,3.4673,3.4229,3.3768,3.3932,3.4022,3.3999,3.3811,3.3391,3.2732,3.1639,3.0748,3.0047,2.9816,3.0044,0.0,0.0,0.0,3.7119,4.1542,4.5235,4.8351,5.0697,5.3356,5.578,5.7319,5.9281,6.1202,6.2636,6.4071,6.5284,6.5938,6.6473,6.7382,6.9139,6.9412,6.9998,7.1753,7.1987,7.1987,7.1987,7.1987,7.1987,7.1987,7.1987,7.2378,7.3235,7.4056,7.4876,7.5736,7.6633,7.7101,7.7101,7.7101,7.7101,7.7101,7.7101,7.7108,7.7084,7.7094,7.7141,7.7184,7.7187,7.7187,7.7186,7.7187,7.7187,7.7187,7.7187,7.7187,7.7187,7.7187,7.7187,7.7187,7.7187,7.7187,7.7187,0.0,0.0,0.0,0.0,0.0,0.0,0.0,0.0,0.0,0.0,0.0,1.9953,2.0219,2.0241,2.0306,2.0421,1.9748,1.9679,2.0507,2.1368,2.1886,2.1923,2.2648,0.0,2.3043,2.3823,2.4598,2.5453,2.7027,2.8631,3.0283,3.1855,3.3463,3.5034,3.5855,3.6406,3.6718,3.7454,3.7572,3.722,3.7202,3.7281,3.744,3.7526,3.7572,3.7527,3.6692,3.6438,3.6185,3.4452,3.3355,3.2583,3.1814,3.1041,3.0577,0.0,0.0,0.0,4.1158,4.435,4.7389,4.9086,5.2087,5.478,5.5631,5.8401,6.0855,6.1075,6.3257,6.5164,6.5319,6.6163,6.7382,6.9139,6.9412,6.9998,7.1753,7.1987,7.1987,7.1987,7.1987,7.1987,7.1987,7.1987,7.2378,7.3235,7.4056,7.4876,7.5736,7.6633,7.7101,7.7101,7.7101,7.7101,7.7101,7.7101,7.7108,7.7084,7.7094,7.7141,7.7184,7.7187,7.7187,7.7187,7.7187,7.7187,7.7187,7.7187,7.7187,7.7187,7.7187,7.7187,7.7187,7.7187,7.7187,7.7187,0.0,0.0,0.0,0.0,0.0,0.0,0.0,0.0,0.0,0.0,0.0,0.0,0.0,2.1249,2.1271,2.1327,2.1078,2.1041,2.1331,2.1629,2.1817,2.1817,2.2069,2.2464,2.3006,2.3267,2.408,2.5416,2.6507,2.7855,2.9464,3.1091,3.2507,3.3771,3.5109,3.636,3.7487,3.7502,3.778,3.8145,3.779,3.7703,3.776,3.7852,3.8187,3.8625,3.8385,3.8297,3.8128,3.6982,3.5685,3.4426,3.3583,3.2352,3.1311,3.1618,3.3926,3.6811,3.8811,4.1466,4.4312,4.7081,4.9933,5.2554,5.4477,5.6709,5.8901,6.0781,6.2408,6.3842,6.5256,6.6196,6.7382,6.9139,6.9412,6.9998,7.1753,7.1987,7.1987,7.1987,7.1987,7.1987,7.1987,7.1987,7.2378,7.3235,7.4056,7.4876,7.5736,7.6633,7.7101,7.7101,7.7101,7.7101,7.7101,7.7111,7.7083,7.7093,7.714,7.7184,7.7187,7.7187,7.7187,7.7187,7.7187,7.7187,7.7187,7.7187,7.7187,7.7187,7.7187,7.7187,7.7187,7.7187,7.7187,7.7187,0.0,0.0,0.0,0.0,0.0,0.0,0.0,0.0,0.0,2.1466,0.0,0.0,0.0,0.0,2.2102,2.1812,2.1817,2.1817,2.1817,2.1519,2.1368,2.1368,2.1368,2.173,2.2575,2.2611,2.3387,2.5007,2.581,2.7016,2.8626,3.0293,3.1793,3.3039,3.4275,3.5883,3.7716,3.7721,3.8307,3.9158,3.9088,3.9086,3.9129,3.981,4.0372,4.088,4.1212,4.1156,4.0745,3.9638,3.8304,3.693,3.5507,3.3891,3.2545,3.2545,3.3926,3.5885,3.7546,3.9662,4.2124,4.5235,4.7932,5.0438,5.2708,5.4996,5.7197,5.917,6.0971,6.2619,6.4045,6.5468,6.707,6.9061,6.9412,6.9998,7.1753,7.1987,7.1987,7.1987,7.1987,7.1987,7.1987,7.1987,7.2378,7.3235,7.4056,7.4876,7.5736,7.6633,7.7101,7.7101,7.7101,7.7104,7.7108,7.7118,7.7091,7.7141,7.7183,7.7186,7.7187,7.7187,7.7187,7.7187,7.7187,7.7187,7.7187,7.7187,7.7187,7.7187,7.7187,7.7187,7.7187,7.7187,7.7187,7.7187,0.0,0.0,0.0,0.0,0.0,0.0,0.0,0.0,2.1849,2.189,0.0,0.0,0.0,0.0,0.0,2.1923,2.1886,2.1849,2.1853,2.1029,2.0543,2.0507,2.0507,2.0919,2.1776,2.1817,2.2584,2.4194,2.5044,2.6224,2.7809,2.9639,3.1387,3.2962,3.3401,3.4993,3.7445,3.8248,3.9277,4.0425,4.1293,4.1661,4.1866,4.3682,4.4404,4.452,4.5331,4.5089,4.4158,4.2424,4.1288,4.0127,3.7542,3.5584,3.4241,3.4205,3.4814,3.5808,0.0,0.0,0.0,4.3551,4.6124,4.8471,5.0207,5.329,5.5865,5.6126,5.8932,6.1439,6.1631,6.3788,6.6327,6.8826,6.9295,6.9959,7.1675,7.1948,7.1948,7.1948,7.1987,7.1987,7.1987,7.1987,7.2339,7.3196,7.4017,7.4876,7.5736,7.6594,7.7101,7.7101,7.7101,7.7108,7.7083,7.7084,7.7133,7.7184,7.7184,7.7186,7.7187,7.7187,7.7187,7.7187,7.7187,7.7187,7.7187,7.7187,7.7187,7.7187,7.7187,7.7187,7.7187,7.7187,7.7187,7.7187,0.0,0.0,0.0,0.0,0.0,2.1996,2.2575,2.268,2.2868,0.0,0.0,0.0,2.3933,2.3859,2.3786,2.357,2.3534,2.3277,2.2717,2.2456,2.1758,2.0543,2.0507,2.0919,2.1776,2.1817,2.2584,2.4194,2.5585,2.6559,2.721,2.9461,3.0925,3.1765,3.3038,3.4759,3.6793,3.7593,3.9213,4.1331,4.2186,4.2955,4.3759,4.5507,4.6525,4.714,4.7991,4.7769,4.6889,4.5837,4.4077,4.1816,3.8623,3.6504,3.5003,3.4395,3.4356,3.4814,3.5888,0.0,0.0,0.0,0.0,0.0,4.7702,5.0553,5.3433,5.4945,5.7005,5.8992,6.0493,6.2384,6.414,6.5508,6.7264,6.8864,6.9957,7.066,7.105,7.105,7.1636,7.1987,7.1987,7.1987,7.2104,7.2339,7.3705,7.4603,7.4837,7.6281,7.7101,7.7101,7.7101,7.7108,7.7083,7.7091,7.7139,7.7184,7.7187,7.7187,7.7187,7.7187,7.7187,7.7187,7.7187,7.7187,7.7187,7.7187,7.7187,7.7187,7.7187,7.7187,7.7187,7.7187,7.7144,7.7038,0.0,0.0,2.1685,2.2208,2.2579,2.3056,2.3896,2.4006,2.43,0.0,0.0,0.0,2.6203,2.5915,2.57,2.57,2.5076,2.4488,2.4043,2.3377,2.2566,2.1575,2.1212,2.1437,2.2285,2.2036,2.2665,2.4284,2.5315,2.6196,2.7004,2.8849,3.0255,3.1252,3.2666,3.4475,3.6595,3.7415,3.9269,4.1703,4.2994,4.3998,4.5062,4.7529,4.8779,4.9356,5.0548,5.0433,4.9505,4.8351,4.6009,4.3124,4.0431,3.8661,3.7276,3.5699,3.5238,3.5353,3.585,3.6965,3.8392,4.0092,0.0,0.0,4.6086,4.8462,5.0966,5.2893,5.4686,5.6519,5.8467,6.0237,6.1642,6.2541,6.4219,6.6247,6.8513,6.9294,6.9878,7.0619,7.1167,7.1597,7.1948,7.1987,7.1987,7.1987,7.3236,7.429,7.4993,7.636,7.7101,7.7101,7.7107,7.7117,7.709,7.7138,7.7144,7.7186,7.7187,7.7187,7.7187,7.7187,7.7187,7.7187,7.7187,7.7187,7.7187,7.7187,7.7187,7.7187,7.7187,7.7187,7.7187,7.7187,7.7101,7.6975,0.0,0.0,2.3043,2.3116,2.3786,2.4562,2.5306,2.5563,2.5925,0.0,2.7493,2.8411,2.9317,2.8589,2.8086,2.8086,2.6612,2.5709,2.5709,2.4215,2.3267,2.3189,2.2429,2.2318,2.3042,2.2473,2.2929,2.4447,2.4708,2.5613,2.714,2.8159,2.9496,3.1138,3.2283,3.4159,3.6534,3.7604,3.9555,4.2066,4.3759,4.5024,4.6301,4.9692,5.1053,5.1323,5.301,5.3005,5.1928,5.024,4.7471,4.4432,4.285,4.1585,4.0165,3.7811,3.7004,3.685,3.685,3.7465,3.8507,3.9973,4.1666,0.0,4.4821,4.6584,4.8368,5.013,5.1952,5.3754,5.5654,5.738,5.8786,5.969,6.0627,6.2734,6.695,6.7615,6.8318,7.0073,7.0346,7.0738,7.1636,7.1714,7.1753,7.1831,7.2767,7.3978,7.558,7.6477,7.6945,7.6945,7.7038,7.7089,7.7098,7.7182,7.7186,7.7187,7.7187,7.7187,7.7187,7.7187,7.7187,7.7187,7.7187,7.7187,7.7187,7.7187,7.7187,7.7187,7.7187,7.7187,7.7187,7.7187,7.7099,7.6963,2.2204,2.2786,2.3189,2.3859,2.4635,2.5232,2.5379,2.6513,2.7389,2.7535,2.8815,3.0283,3.1739,3.0607,2.9732,2.9732,2.8402,2.7554,2.7554,2.6155,2.5057,2.439,2.36,2.3221,2.3405,2.3289,2.3671,2.4657,2.5318,2.6244,2.7343,2.8218,2.9224,3.0487,3.207,3.3826,3.5688,3.7963,4.0816,4.384,4.4856,4.6617,4.8923,5.1659,5.3164,5.3977,5.567,5.5285,5.3741,5.2005,4.962,4.7197,4.6197,4.3889,4.1316,4.0127,3.8819,3.7738,3.7738,3.8392,3.9127,3.9434,4.0816,0.0,4.2466,4.3849,4.5403,4.6587,4.8193,4.9992,5.1964,5.3699,5.5155,5.6133,5.7582,5.9846,6.3477,6.4609,6.5664,6.7343,6.8161,6.8942,6.9801,6.9919,7.0191,7.0893,7.2415,7.3743,7.4681,7.558,7.6049,7.6049,7.6726,7.7089,7.7098,7.7182,7.7186,7.7187,7.7187,7.7187,7.7187,7.7187,7.7187,7.7187,7.7187,7.7187,7.7187,7.7187,7.7187,7.7187,7.7187,7.7187,7.7187,7.7187,7.7043,7.6835,2.2809,2.3304,2.3859,2.4672,2.5117,2.5815,2.7016,2.8227,2.9292,3.0099,3.1598,3.3278,3.504,3.3789,3.3006,3.358,3.1875,3.0562,3.0183,2.8663,2.7403,2.6567,2.5351,2.4704,2.4704,2.436,2.4389,2.479,2.5294,2.6257,2.7563,2.7982,2.9181,3.0956,3.2283,3.403,3.612,3.8316,4.1211,4.4397,4.5704,4.776,5.0284,5.2395,5.3972,5.5285,5.6555,5.617,5.4972,5.4087,5.2082,4.9774,4.8543,4.6658,4.4543,4.2435,4.0893,3.97,3.8892,3.8973,3.9281,3.9281,4.0242,0.0,0.0,4.2466,4.3454,4.4878,4.5838,4.7129,4.9563,5.0678,5.171,5.3126,5.4068,5.5513,5.8128,6.0744,6.3166,6.5313,6.5546,6.6249,6.7928,6.7732,6.82,6.9918,7.1675,7.3002,7.3861,7.5112,7.5817,7.5785,7.6656,7.7135,7.7142,7.7185,7.7187,7.7187,7.7187,7.7187,7.7187,7.7187,7.7187,7.7187,7.7187,7.7187,7.7187,7.7187,7.7187,7.7187,7.7187,7.7187,7.7187,7.7187,7.7051,7.6965,2.3226,2.3749,2.4451,2.5269,2.5673,2.6618,2.8882,3.0167,3.1598,3.3507,3.5103,3.6692,3.8424,3.7311,3.6813,3.7734,3.5586,3.3922,3.3266,3.1527,3.0133,2.9272,2.7602,2.6658,2.6503,2.5822,2.5389,2.5196,2.5523,2.6388,2.7729,2.7944,2.9305,3.1654,3.2676,3.4539,3.7094,3.9154,4.1974,4.5163,4.6932,4.8971,5.113,5.2972,5.4626,5.6055,5.694,5.6901,5.6395,5.6242,5.4626,5.2351,5.0856,4.9433,4.7778,4.4893,4.3355,4.22,4.0666,4.0165,3.9973,3.9819,4.0127,4.0666,0.0,0.0,0.0,4.3441,4.3856,4.4715,4.7218,4.7802,4.83,4.9445,5.0238,5.0984,5.1882,5.5708,5.9612,6.2892,6.2696,6.3204,6.5585,6.5546,6.6327,6.8709,7.0505,7.187,7.2767,7.4564,7.5548,7.556,7.6547,7.7141,7.7184,7.7187,7.7187,7.7187,7.7187,7.7187,7.7187,7.7187,7.7187,7.7187,7.7187,7.7187,7.7187,7.7187,7.7187,7.7187,7.7187,7.7187,7.7187,7.7187,7.7101,7.7139,2.4043,2.4153,2.4451,2.5269,2.6586,2.8086,2.98,3.1971,3.4504,3.758,3.8995,4.007,4.1069,4.059,4.0262,4.0437,3.8371,3.7015,3.6896,3.4785,3.3123,3.2237,3.0622,2.9383,2.8663,2.7863,2.7084,2.6323,2.7139,2.7605,2.7797,2.8531,2.9857,3.1652,3.3265,3.5395,3.8042,4.1316,4.4586,4.7817,4.9553,5.0856,5.2043,5.4472,5.6016,5.6978,5.7857,5.855,5.8973,5.8242,5.678,5.5126,5.4203,5.1779,4.9048,4.7855,4.6394,4.4975,4.3974,4.3201,4.247,4.1696,4.1008,4.0516,4.0631,0.0,4.0712,4.0927,0.0,4.2491,4.3692,0.0,0.0,4.3533,4.5964,4.7275,4.5169,4.8563,5.3365,5.9025,5.9611,6.0274,6.2109,6.3594,6.5196,6.6952,6.8709,7.0074,7.0932,7.3315,7.4688,7.4741,7.6274,7.7141,7.7184,7.7187,7.7187,7.7187,7.7187,7.7187,7.7187,7.7187,7.7187,7.7187,7.7187,7.7187,7.7187,7.7187,7.7187,7.7187,7.7187,7.7187,7.7187,7.7187,7.7101,7.7092,2.4194,2.4562,2.5154,2.5957,2.742,2.9213,3.1268,3.4461,3.7515,4.0,4.1156,4.2235,4.3441,4.3364,4.3523,4.4216,4.2503,4.1164,4.0682,3.8333,3.66,3.5733,3.314,3.1541,3.1199,2.9912,2.8806,2.7962,2.8358,2.8555,2.8555,2.9421,3.0976,3.3147,3.4371,3.6874,4.0312,4.2277,4.5316,4.9048,5.1241,5.2933,5.4203,5.528,5.717,5.9363,6.0704,6.1127,6.0864,6.0012,5.8934,5.7665,5.6362,5.4631,5.2779,5.1433,4.9856,4.8245,4.6894,4.5624,4.445,4.3495,4.2318,4.1366,4.1262,4.0858,4.0516,4.0516,0.0,0.0,0.0,0.0,0.0,0.0,4.4321,4.5129,4.4543,4.5987,4.9188,5.4732,5.5396,5.6255,5.8518,6.1211,6.3516,6.5235,6.6913,6.8708,7.058,7.2689,7.4063,7.4585,7.6235,7.7141,7.7184,7.7187,7.7187,7.7187,7.7187,7.7187,7.7187,7.7187,7.7187,7.7187,7.7187,7.7187,7.7187,7.7187,7.7187,7.7187,7.7187,7.7187,7.7187,7.7187,7.7498,7.7998,2.485,2.5154,2.5705,2.6759,2.8442,3.0711,3.3896,3.7348,4.0273,4.2073,4.3336,4.4581,4.5937,4.6346,4.6893,4.7702,4.6455,4.526,4.4397,4.2368,4.0637,3.9316,3.6489,3.4693,3.4194,3.2554,3.1175,3.0058,3.0115,3.0047,2.9817,3.0683,3.2311,3.4622,3.5965,3.8619,4.2273,4.3816,4.6624,5.0317,5.2856,5.5164,5.7093,5.7093,5.8934,6.1627,6.2852,6.2935,6.2326,6.1704,6.0935,5.9946,5.8555,5.7343,5.6202,5.4761,5.3158,5.1494,4.9971,4.8233,4.6587,4.5599,4.3952,4.2584,4.2498,4.1623,4.0858,4.0858,4.0204,0.0,0.0,0.0,0.0,0.0,0.0,4.2513,4.2239,4.3176,4.5753,5.0712,5.1922,5.3367,5.5981,5.8713,6.1211,6.3439,6.5157,6.7264,6.9839,7.2103,7.3712,7.4585,7.6235,7.7141,7.7184,7.7187,7.7187,7.7187,7.7187,7.7187,7.7187,7.7187,7.7187,7.7187,7.7187,7.7187,7.7187,7.7187,7.7187,7.7187,7.7187,7.7187,7.7187,7.7187,7.7734,7.8594,2.6534,2.592,2.5888,2.7499,2.9738,3.3018,3.8123,4.06,4.2498,4.4194,4.6108,4.7727,4.868,4.9767,5.0455,5.0548,4.974,4.8875,4.7991,4.7064,4.5428,4.284,4.1153,3.9445,3.7759,3.6175,3.45,3.2772,3.2776,3.2388,3.1618,3.2429,3.3772,3.5577,3.8084,4.0627,4.3278,4.6547,4.9428,5.2043,5.4587,5.7632,6.0633,6.0633,6.1704,6.3237,6.3275,6.3275,6.3275,6.3237,6.2666,6.1867,6.1118,5.9721,5.8261,5.7501,5.6071,5.4531,5.3495,5.1405,4.9235,4.8218,4.609,4.4248,4.4205,4.2931,4.1773,4.1773,4.1085,0.0,0.0,0.0,0.0,0.0,0.0,0.0,0.0,0.0,0.0,0.0,0.0,0.0,0.0,5.6216,5.8166,0.0,6.3399,6.5508,6.8043,7.1439,7.3712,7.4585,7.6235,7.7141,7.7184,7.7187,7.7187,7.7187,7.7187,7.7187,7.7187,7.7187,7.7187,7.7187,7.7187,7.7187,7.7187,7.7187,7.7187,7.7187,7.7187,7.7187,7.7187,7.7187,7.7734,7.8593,2.6894,2.7482,2.8234,2.874,3.0843,3.4215,3.9439,4.1707,4.3718,4.6183,4.8091,4.9651,5.0769,5.1704,5.2267,5.2351,5.1543,5.0923,5.0639,4.9298,4.7866,4.6425,4.4209,4.2218,4.0523,3.8846,3.7161,3.5427,3.4888,3.4196,3.3356,3.4234,3.5234,3.6427,3.8973,4.182,4.4898,4.7163,5.0236,5.3933,5.7594,6.0787,6.3205,6.2095,6.2704,6.4243,6.482,6.5013,6.496,6.4475,6.4105,6.3761,6.3081,6.2059,6.0988,6.0218,5.9151,5.7826,5.5796,5.4287,5.2822,5.1181,4.8909,4.7041,4.6878,4.5086,4.3431,4.3431,4.1897,0.0,0.0,0.0,0.0,0.0,0.0,0.0,0.0,0.0,0.0,0.0,0.0,0.0,0.0,0.0,0.0,0.0,6.1602,0.0,6.7068,6.945,7.1642,7.3686,7.5414,7.6594,7.7184,7.7187,7.7187,7.7187,7.7187,7.7187,7.7187,7.7187,7.7187,7.7187,7.7187,7.7187,7.7187,7.7187,7.7187,7.7187,7.7187,7.7187,7.7265,7.7851,7.8594,7.9452,2.8748,2.9851,3.0771,3.0465,3.3231,3.6954,4.1222,4.3375,4.55,4.8252,5.0126,5.1742,5.3096,5.4001,5.4633,5.4967,5.4505,5.4044,5.3741,5.2395,5.1125,4.9966,4.7471,4.5316,4.3658,4.1931,4.0089,3.8046,3.7234,3.6392,3.5549,3.6119,3.6965,3.8161,4.0704,4.359,4.6629,4.862,5.1587,5.528,5.9209,6.2512,6.4936,6.3865,6.4288,6.559,6.6474,6.6852,6.68,6.6332,6.6008,6.5678,6.4998,6.4192,6.3349,6.2574,6.1731,6.0638,5.8612,5.7284,5.6006,5.4022,5.1936,5.0175,4.9707,4.7847,4.6154,4.5841,4.4025,0.0,0.0,0.0,0.0,0.0,0.0,0.0,0.0,3.7516,0.0,0.0,0.0,0.0,0.0,0.0,0.0,0.0,0.0,0.0,0.0,6.8124,7.0472,7.2748,7.4828,7.6163,7.6715,7.7031,7.7187,7.7187,7.7187,7.7187,7.7187,7.7187,7.7187,7.7187,7.7187,7.7187,7.7187,7.7187,7.7187,7.7187,7.7187,7.7187,7.7305,7.8164,7.9178,8.0259,3.2045,3.2981,3.3554,3.2816,3.6806,4.0987,4.3493,4.5581,4.7794,5.033,5.2216,5.3933,5.5593,5.6593,5.7478,5.828,5.839,5.8088,5.7247,5.6362,5.5164,5.3505,5.101,4.8856,4.712,4.5393,4.3205,4.0631,3.9819,3.8973,3.8046,3.8046,3.8934,4.0593,4.3166,4.5701,4.8274,5.0851,5.3554,5.6384,5.9727,6.3048,6.6057,6.6095,6.6596,6.7366,6.8155,6.8553,6.8726,6.8736,6.8251,6.7567,6.6955,6.6171,6.5374,6.4672,6.3868,6.2959,6.1922,6.0385,5.865,5.6861,5.5124,5.3613,5.275,5.1239,4.9767,4.8912,4.7393,4.5913,0.0,0.0,0.0,0.0,0.0,0.0,0.0,0.0,0.0,0.0,0.0,0.0,0.0,0.0,0.0,0.0,0.0,0.0,0.0,6.7343,7.0003,7.1888,7.4438,7.5812,7.5895,7.6757,7.7187,7.7187,7.7187,7.7187,7.7187,7.7187,7.7187,7.7187,7.7187,7.7187,7.7187,7.7187,7.7187,7.7187,7.7187,7.7265,7.7422,7.8242,7.9522,8.0953,3.4366,3.6184,3.8115,3.915,3.9913,4.1446,4.459,4.6589,4.8683,5.1216,5.3615,5.5478,5.6555,5.7978,5.8934,5.9165,5.9781,6.005,5.9825,5.9011,5.8088,5.7044,5.4549,5.2087,4.9784,4.8009,4.5586,4.2431,4.1585,4.0392,3.8973,3.8973,3.9511,4.0593,4.3166,4.5701,4.8312,5.1505,5.6241,6.1766,6.3887,6.6109,6.8212,6.8867,6.9216,6.9348,6.8794,6.8728,6.8885,6.9006,6.8948,6.8761,6.87,6.8528,6.8182,6.7377,6.6522,6.5506,6.4009,6.2796,6.1493,5.9657,5.8355,5.7289,5.6302,5.4302,5.2558,5.2325,5.0425,4.8562,4.7704,0.0,0.0,0.0,0.0,0.0,0.0,0.0,0.0,0.0,0.0,0.0,0.0,0.0,0.0,0.0,0.0,0.0,6.3125,6.4766,6.7271,7.0914,7.2955,7.4602,7.5896,7.6757,7.7187,7.7187,7.7187,7.7187,7.7187,7.7187,7.7187,7.7187,7.7187,7.7187,7.7187,7.7187,7.7187,7.7187,7.7187,7.7969,7.9101,7.9297,8.0381,8.1774,3.6884,3.9055,4.1623,4.3658,4.391,4.4589,4.6857,4.8644,5.0697,5.3236,5.5472,5.728,5.8517,5.9825,6.0781,6.1121,6.1627,6.1897,6.1897,6.1089,6.0435,5.9973,5.7511,5.5126,5.2938,5.0818,4.812,4.4774,4.3508,4.2047,4.0392,4.0012,4.0473,4.1743,4.3897,4.6475,4.9558,5.413,5.8993,6.3748,6.5535,6.7527,0.0,7.0013,7.0487,7.0763,7.0211,7.0044,7.0129,7.0242,7.0101,6.9869,6.9947,6.9723,6.9295,6.8825,6.8318,6.7655,6.6327,6.5312,6.4212,6.2423,6.1324,6.0457,5.951,5.8178,5.6933,5.6154,5.4285,5.238,5.1131,4.8937,0.0,0.0,0.0,0.0,0.0,0.0,0.0,0.0,0.0,0.0,0.0,0.0,0.0,0.0,0.0,0.0,0.0,6.34,6.5904,6.9468,7.1978,7.3938,7.531,7.6562,7.7187,7.7187,7.7187,7.7187,7.7187,7.7187,7.7187,7.7187,7.7187,7.7187,7.7187,7.7187,7.7187,7.7226,7.7617,7.8555,7.9765,8.0117,8.1045,8.2087,3.9843,4.1959,4.4509,4.6812,4.8082,4.9086,5.0087,5.1351,5.3121,5.5555,5.7473,5.9242,6.0787,6.1826,6.2749,6.3583,6.3737,6.3852,6.3968,6.3205,6.271,6.2595,6.0242,5.8088,5.6247,5.3813,5.089,4.7389,4.5778,4.4008,4.2119,4.1358,4.1858,4.3508,4.5167,4.8032,5.1924,5.7557,6.1526,6.4145,6.6,6.8317,7.0622,7.0622,7.1206,7.2074,7.2074,7.1918,7.1723,7.1723,7.1349,7.0854,7.0854,7.0348,6.9724,6.9724,6.9646,6.9411,6.8669,6.781,6.6757,6.5196,6.4219,6.3438,6.2578,6.2304,6.1758,6.0118,5.844,5.6683,5.4849,5.1648,0.0,0.0,0.0,0.0,0.0,0.0,0.0,0.0,0.0,0.0,0.0,0.0,0.0,0.0,0.0,0.0,0.0,0.0,6.5005,6.7708,7.104,7.3313,7.4411,7.6171,7.7109,7.7187,7.7187,7.7187,7.7187,7.7187,7.7187,7.7187,7.7187,7.7187,7.7187,7.7187,7.7187,7.7305,7.8281,7.9062,7.9805,8.082,8.1594,8.21,4.4435,4.5953,4.7586,4.8779,5.0818,5.2818,5.4357,5.428,5.4703,5.6516,5.8863,6.0748,6.1749,6.3249,6.4512,6.5359,6.6051,6.6744,6.7468,6.6705,6.5942,6.525,6.3435,6.1314,5.8896,5.7055,5.4093,5.0014,4.9014,4.6894,4.3855,4.3705,4.4167,4.5244,4.6894,5.0772,5.6256,5.9425,6.2836,6.624,6.801,7.033,7.2771,7.2771,7.3288,7.4,7.4,7.3103,7.1932,7.1932,7.1861,7.1753,7.1753,7.1675,7.1558,7.1558,7.105,7.0424,7.0307,6.9606,6.8709,6.7693,6.7303,6.699,6.6092,6.539,6.4648,6.3595,6.1993,6.004,5.7582,5.4343,5.1415,0.0,0.0,0.0,0.0,0.0,0.0,0.0,0.0,0.0,0.0,0.0,0.0,0.0,0.0,0.0,0.0,0.0,6.2619,6.594,6.8655,7.1202,7.3507,7.5272,7.6484,7.7187,7.7187,7.7187,7.7187,7.7187,7.7187,7.7187,7.7187,7.7187,7.7187,7.7187,7.7187,7.7344,7.8906,7.957,7.9883,8.1484,8.2148,8.222,4.7552,4.8933,5.0505,5.1818,5.378,5.5736,5.7396,5.8094,5.8555,5.8902,6.121,6.3089,6.398,6.5551,6.6737,6.7167,6.7552,6.7936,6.8353,6.8013,6.759,6.7205,6.5551,6.3666,6.1506,5.8973,5.6016,5.2669,5.0476,4.8317,4.624,4.5398,4.5436,4.6398,4.9487,5.3502,5.8187,6.1306,6.4408,6.747,6.974,7.1727,7.3352,7.3743,7.4173,7.4486,7.4486,7.3978,7.3315,7.3315,7.3315,7.3315,7.3315,7.3315,7.3315,7.3315,7.3002,7.2651,7.2651,7.2065,7.1324,7.0893,7.0112,6.9331,6.8903,6.8161,6.7303,6.6444,6.4921,6.2656,5.9104,5.7113,5.5162,5.2545,0.0,0.0,0.0,0.0,0.0,0.0,0.0,0.0,0.0,0.0,0.0,0.0,0.0,0.0,0.0,0.0,6.1798,6.4844,6.7834,7.0655,7.3271,7.5038,7.6328,7.7187,7.7187,7.7187,7.7187,7.7187,7.7187,7.7187,7.7187,7.7187,7.7187,7.7187,7.7461,7.8008,7.9219,7.9961,8.0547,8.1836,8.2304,8.2264,5.0433,5.1818,5.3467,5.5049,5.6857,5.8583,6.0089,6.1781,6.2595,6.1704,6.3512,6.5282,6.632,6.7628,6.8468,6.866,6.866,6.8737,6.893,6.893,6.8853,6.866,6.7398,6.5807,6.3937,6.0971,5.8191,5.5668,5.2386,4.982,4.7855,4.7277,4.7572,4.8775,5.2562,5.6118,5.9509,6.2917,6.5844,6.844,7.0995,7.2729,7.39,7.4525,7.4876,7.5032,7.5032,7.5032,7.5032,7.5032,7.4798,7.4486,7.4486,7.4486,7.4486,7.4486,7.4486,7.4486,7.4486,7.4056,7.3547,7.3547,7.2532,7.1517,7.1517,7.0972,7.0191,6.9137,6.7146,6.4492,6.086,5.9884,5.8713,5.5825,0.0,0.0,0.0,0.0,0.0,0.0,0.0,0.0,0.0,0.0,0.0,0.0,0.0,5.3679,5.5941,5.8636,6.1252,6.3673,6.7249,7.0382,7.2998,7.4921,7.6328,7.7187,7.7187,7.7187,7.7187,7.7187,7.7187,7.7187,7.7187,7.7187,7.7187,7.7187,7.7695,7.8594,7.9375,8.0234,8.1094,8.1992,8.2304,8.2264,5.3857,5.5362,5.6824,5.778,5.9973,6.1941,6.2814,6.4436,6.5243,6.4359,6.5128,6.6397,6.8007,6.8314,6.8737,6.9513,6.959,6.9898,7.0629,7.0667,7.036,6.9629,6.9436,6.8237,6.5879,6.4023,6.1918,5.9467,5.6718,5.2581,4.7273,5.0144,5.2422,5.4226,5.6178,5.8587,6.1412,6.4074,6.6775,6.9405,7.1244,7.3433,7.558,7.5658,7.6166,7.6867,7.6867,7.6867,7.6867,7.6867,7.5813,7.4486,7.4486,7.4486,7.4486,7.4486,7.4486,7.4486,7.4486,7.4447,7.4408,7.4408,7.4251,7.4134,7.4134,7.4095,7.3588,7.1948,6.8435,6.5234,6.4025,6.2501,6.1094,5.9963,0.0,0.0,0.0,0.0,0.0,0.0,0.0,0.0,0.0,4.9772,0.0,0.0,5.2157,5.3133,5.4186,5.7425,6.0079,6.1875,6.6038,6.9483,7.21,7.4647,7.6328,7.7187,7.7187,7.7187,7.7187,7.7187,7.7187,7.7187,7.7187,7.7187,7.7187,7.7187,7.7695,7.8594,7.9375,8.0234,8.1094,8.1992,8.2304,8.2265,5.7434,5.8478,5.971,6.1044,6.2589,6.4051,6.5397,6.6628,6.7628,6.8282,6.8244,6.8436,6.9122,6.9629,7.0052,7.0398,7.0437,7.0552,7.0898,7.0898,7.1056,7.138,7.0376,6.9176,6.7808,6.5644,6.3274,6.078,5.8672,5.6128,5.3304,5.4148,5.5542,5.7364,5.8569,6.088,6.4148,6.6684,6.9001,7.1167,7.3394,7.4877,7.5853,7.64,7.6789,7.7101,7.7101,7.7101,7.7101,7.7101,7.6633,7.6047,7.6047,7.6047,7.6047,7.6047,7.6047,7.6047,7.6047,7.6047,7.6047,7.6047,7.5657,7.5268,7.5268,7.4876,7.429,7.3627,7.1324,6.8864,6.6912,6.6014,6.5115,6.375,6.2774,0.0,0.0,0.0,0.0,0.0,0.0,0.0,0.0,0.0,0.0,0.0,0.0,5.3328,5.4693,5.7542,5.9884,6.1641,6.5843,6.9366,7.1982,7.4608,7.6328,7.7187,7.7187,7.7187,7.7187,7.7187,7.7187,7.7187,7.7187,7.7187,7.7226,7.7773,7.8476,7.9297,8.0156,8.1015,8.1836,8.2187,8.2304,8.2264,6.0589,6.1512,6.2743,6.4166,6.5128,6.6282,6.7981,6.8744,6.9738,7.1437,7.1168,7.0815,7.0815,7.1321,7.1668,7.1668,7.171,7.1724,7.1724,7.1762,7.2163,7.2912,7.175,7.0683,6.9735,6.7719,6.5447,6.2917,6.1142,5.9185,5.7089,5.6277,5.7539,6.0533,6.1391,6.3639,6.6873,6.9176,7.1167,7.2924,7.4956,7.5932,7.6244,7.6867,7.7101,7.7101,7.7101,7.7101,7.7101,7.7101,7.7101,7.7101,7.7101,7.7101,7.7101,7.7101,7.7101,7.7101,7.7101,7.7101,7.7101,7.7101,7.6633,7.6166,7.6166,7.5696,7.5188,7.4954,7.3354,7.1441,6.9606,6.8825,6.8005,6.6561,6.5819,6.504,0.0,6.3241,0.0,0.0,0.0,0.0,5.5785,5.5825,0.0,0.0,0.0,0.0,5.5631,5.8323,6.0667,6.2428,6.6625,6.9992,7.2375,7.4999,7.6601,7.7187,7.7187,7.7187,7.7187,7.7187,7.7187,7.7187,7.7187,7.7187,7.7265,7.8125,7.8984,7.9805,8.0664,8.1523,8.2304,8.2304,8.2304,8.2264,6.3083,6.4666,6.6096,6.6904,6.7782,6.893,7.0591,7.086,7.1514,7.3238,7.3469,7.343,7.343,7.3469,7.3469,7.3469,7.358,7.3657,7.3657,7.383,7.398,7.3984,7.3945,7.3239,7.1697,7.0798,6.9133,6.6717,6.4938,6.1404,5.6402,5.5581,5.8451,6.4259,6.5155,6.6951,6.9451,7.1206,7.2924,7.4564,7.5424,7.6322,7.7101,7.7101,7.7101,7.7101,7.7101,7.7101,7.7101,7.7101,7.7101,7.7101,7.7101,7.7101,7.7101,7.7101,7.7101,7.7101,7.7101,7.7101,7.7101,7.7101,7.7101,7.7062,7.7062,7.7062,7.6828,7.5971,7.3784,7.1987,7.1948,7.0543,6.9098,6.82,6.8043,6.7459,0.0,6.5546,0.0,0.0,6.2187,6.0977,5.922,5.8285,0.0,0.0,0.0,0.0,0.0,5.9806,6.2467,6.4198,6.8426,7.1517,7.3279,7.5898,7.7187,7.7187,7.7187,7.7187,7.7187,7.7187,7.7187,7.7187,7.7187,7.7187,7.7265,7.8125,7.8984,7.9805,8.0664,8.1523,8.2304,8.2304,8.2304,8.2304,6.582,6.7282,6.8744,6.9552,7.0529,7.157,7.2651,7.2916,7.3447,7.456,7.4715,7.4948,7.5568,7.4413,7.3688,7.3814,7.3893,7.3892,7.3892,7.395,7.4312,7.5077,7.4532,7.4004,7.3632,7.2229,7.0522,6.8553,6.7404,6.5681,6.3465,6.3231,6.4798,6.7772,6.8083,6.9645,7.2143,7.3236,7.4369,7.5463,7.632,7.6867,7.7101,7.7101,7.7101,7.7101,7.7101,7.7101,7.7101,7.7101,7.7101,7.7101,7.7101,7.7101,7.7101,7.7101,7.7101,7.7101,7.7101,7.7101,7.7101,7.7101,7.7101,7.7101,7.7101,7.7101,7.6867,7.5971,7.5151,7.4409,7.3822,7.3236,7.2807,7.2495,7.1519,7.0582,7.0035,6.8942,6.7771,6.66,6.5702,6.4492,6.2814,6.1876,0.0,0.0,0.0,6.0471,5.8401,6.047,6.2507,6.4237,6.8465,7.1556,7.3279,7.5898,7.7187,7.7187,7.7187,7.7187,7.7187,7.7187,7.7187,7.7187,7.7187,7.7187,7.7305,7.8711,7.9453,7.9844,8.1328,8.207,8.2304,8.2304,8.2304,8.2304,6.9146,7.0305,7.145,7.1991,7.2617,7.333,7.4178,7.441,7.4796,7.5685,7.5802,7.6022,7.6626,7.5603,7.4895,7.4986,7.5012,7.5046,7.5046,7.5103,7.548,7.6132,7.5625,7.5222,7.4993,7.398,7.2573,7.0855,6.9996,6.9294,6.8748,6.8748,6.9528,7.0855,7.0855,7.2104,7.4251,7.4798,7.5502,7.6322,7.6867,7.7101,7.7101,7.7101,7.7101,7.7101,7.7101,7.7101,7.7101,7.7101,7.7101,7.7101,7.7101,7.7101,7.7101,7.7101,7.7101,7.7101,7.7101,7.7101,7.7101,7.7101,7.7101,7.7101,7.7101,7.7101,7.6945,7.64,7.6049,7.5619,7.5073,7.472,7.4486,7.4486,7.3627,7.2924,7.2924,7.1987,7.1011,0.0,0.0,6.7732,0.0,6.5118,6.4219,0.0,6.4101,6.3867,6.2539,6.3208,6.4427,6.6157,6.9757,7.2496,7.4257,7.6211,7.7187,7.7187,7.7187,7.7187,7.7187,7.7187,7.7187,7.7187,7.7187,7.7383,7.7773,7.914,7.9883,8.0312,8.1758,8.2304,8.2304,8.2304,8.2304,8.2304,7.2606,7.3394,7.4101,7.4101,7.4152,7.4467,7.5279,7.5408,7.5723,7.6535,7.6613,7.6673,7.6804,7.6816,7.6768,7.6664,7.6745,7.6816,7.6816,7.6985,7.7101,7.7101,7.7101,7.6711,7.5893,7.5814,7.4993,7.3391,7.2573,7.2182,7.2182,7.2182,7.2651,7.3469,7.3469,7.4369,7.5893,7.5893,7.6361,7.7101,7.7101,7.7101,7.7101,7.7101,7.7101,7.7101,7.7101,7.7101,7.7101,7.7101,7.7101,7.7101,7.7101,7.7101,7.7101,7.7101,7.7101,7.7101,7.7101,7.7101,7.7101,7.7101,7.7101,7.7101,7.7101,7.7101,7.7101,7.7101,7.6438,7.5893,7.5893,7.5227,7.4681,7.4681,7.4642,7.4603,7.4603,7.4525,7.4212,7.3469,7.1908,7.0543,6.9762,6.8163,6.7148,6.7148,6.7148,6.7537,6.8318,6.7667,6.7952,6.9522,7.2066,7.4217,7.5898,7.6758,7.7187,7.7187,7.7187,7.7187,7.7187,7.7187,7.7187,7.7187,7.7187,7.7695,7.8555,7.9375,8.0195,8.1094,8.1953,8.2304,8.2304,8.2304,8.2304,8.2304,7.3648,7.4382,7.499,7.499,7.5637,7.6216,7.6407,7.6568,7.6735,7.6969,7.6969,7.6977,7.7036,7.7038,7.703,7.6971,7.7026,7.7038,7.7038,7.7053,7.7101,7.7101,7.7101,7.6984,7.6789,7.6127,7.5268,7.4212,7.4017,7.39,7.39,7.39,7.4369,7.5229,7.5229,7.5813,7.6789,7.6789,7.6906,7.7101,7.7101,7.7101,7.7101,7.7101,7.7101,7.7101,7.7101,7.7101,7.7101,7.7101,7.7101,7.7101,7.7101,7.7101,7.7101,7.7101,7.7101,7.7101,7.7101,7.7101,7.7101,7.7101,7.7101,7.7101,7.7101,7.7101,7.7101,7.7101,7.6945,7.6789,7.6789,7.6633,7.6477,7.6477,7.593,7.5502,7.5502,7.4915,7.4447,7.4251,7.3313,7.261,7.2415,7.1402,7.0777,7.0777,7.0777,7.0855,7.105,7.1501,7.1667,7.1397,7.3277,7.4803,7.5898,7.6758,7.7187,7.7187,7.7187,7.7187,7.7187,7.7187,7.7187,7.7187,7.7187,7.7695,7.8555,7.9375,8.0195,8.1094,8.1953,8.2304,8.2304,8.2304,8.2304,8.2304,7.5298,7.5739,7.613,7.613,7.6573,7.6958,7.6958,7.7038,7.7101,7.7101,7.7101,7.7101,7.7101,7.7101,7.7101,7.7101,7.7101,7.7101,7.7101,7.7101,7.7101,7.7101,7.7101,7.7101,7.7101,7.6633,7.6164,7.5696,7.5696,7.5696,7.5696,7.5696,7.593,7.64,7.64,7.6672,7.7101,7.7101,7.7101,7.7101,7.7101,7.7101,7.7101,7.7101,7.7101,7.7101,7.7101,7.7101,7.7101,7.7101,7.7101,7.7101,7.7101,7.7101,7.7101,7.7101,7.7101,7.7101,7.7101,7.7101,7.7101,7.7101,7.7101,7.7101,7.7101,7.7101,7.7101,7.7101,7.7101,7.7101,7.7101,7.7101,7.7101,7.7101,7.6711,7.64,7.64,7.6008,7.5696,7.5696,7.4954,7.4447,7.4447,7.3666,7.3158,7.3158,7.3158,7.3317,7.3714,7.42,7.409,7.3232,7.4489,7.5625,7.6484,7.6953,7.7187,7.7187,7.7187,7.7187,7.7187,7.7187,7.7187,7.7226,7.7617,7.8281,7.9101,7.9961,8.082,8.164,8.2109,8.2304,8.2304,8.2304,8.2304,8.2304,7.6869,7.6979,7.7101,7.7101,7.7101,7.7101,7.7101,7.7101,7.7101,7.7101,7.7101,7.7101,7.7101,7.7101,7.7101,7.7101,7.7101,7.7101,7.7101,7.7101,7.7101,7.7101,7.7101,7.7101,7.7101,7.7101,7.7101,7.7101,7.7101,7.7101,7.7101,7.7101,7.7101,7.7101,7.7101,7.7101,7.7101,7.7101,7.7101,7.7101,7.7101,7.7101,7.7101,7.7101,7.7101,7.7101,7.7101,7.7101,7.7101,7.7101,7.7101,7.7101,7.7101,7.7101,7.7101,7.7101,7.7101,7.7101,7.7101,7.7101,7.7101,7.7101,7.7101,7.7101,7.7101,7.7101,7.7101,7.7101,7.7101,7.7101,7.7101,7.7101,7.7101,7.7101,7.7101,7.7101,7.7101,7.7101,7.7101,7.7101,7.6438,7.601,7.601,7.5345,7.4876,7.4876,7.4876,7.5234,7.5949,7.6039,7.5731,7.5029,7.5702,7.6445,7.7187,7.7187,7.7187,7.7187,7.7187,7.7187,7.7187,7.7187,7.7265,7.7422,7.8164,7.9023,7.9961,8.0703,8.1523,8.2304,8.2304,8.2304,8.2304,8.2304,8.2304,8.2304,7.7046,7.7094,7.7101,7.7101,7.7101,7.7101,7.7101,7.7101,7.7101,7.7101,7.7101,7.7101,7.7101,7.7101,7.7101,7.7101,7.7101,7.7101,7.7101,7.7101,7.7101,7.7101,7.7101,7.7101,7.7101,7.7101,7.7101,7.7101,7.7101,7.7101,7.7101,7.7101,7.7101,7.7101,7.7101,7.7101,7.7101,7.7101,7.7101,7.7101,7.7101,7.7101,7.7101,7.7101,7.7101,7.7101,7.7101,7.7101,7.7101,7.7101,7.7101,7.7101,7.7101,7.7101,7.7101,7.7101,7.7101,7.7101,7.7101,7.7101,7.7101,7.7101,7.7101,7.7101,7.7101,7.7101,7.7101,7.7101,7.7101,7.7101,7.7101,7.7101,7.7101,7.7101,7.7101,7.7101,7.7101,7.7101,7.7101,7.7101,7.6984,7.6906,7.6906,7.6789,7.6711,7.6711,7.6711,7.6757,7.6888,7.6898,7.6866,7.6793,7.6913,7.707,7.7187,7.7187,7.7187,7.7187,7.7187,7.7187,7.7187,7.7187,7.7617,7.832,7.8437,7.9375,8.082,8.0937,8.1523,8.2304,8.2304,8.2304,8.2304,8.2304,8.2304,8.2304,7.7101,7.7101,7.7101,7.7101,7.7101,7.7101,7.7101,7.7101,7.7101,7.7101,7.7101,7.7101,7.7101,7.7101,7.7101,7.7101,7.7101,7.7101,7.7101,7.7101,7.7101,7.7101,7.7101,7.7101,7.7101,7.7101,7.7101,7.7101,7.7101,7.7101,7.7101,7.7101,7.7101,7.7101,7.7101,7.7101,7.7101,7.7101,7.7101,7.7101,7.7101,7.7101,7.7101,7.7101,7.7101,7.7101,7.7101,7.7101,7.7101,7.7101,7.7101,7.7101,7.7101,7.7101,7.7101,7.7101,7.7101,7.7101,7.7101,7.7101,7.7101,7.7101,7.7101,7.7101,7.7101,7.7101,7.7101,7.7101,7.7101,7.7101,7.7101,7.7101,7.7101,7.7101,7.7101,7.7101,7.7101,7.7101,7.7101,7.7101,7.7101,7.7101,7.7101,7.7101,7.7101,7.7101,7.7101,7.7111,7.7091,7.7096,7.7142,7.7187,7.7187,7.7187,7.7187,7.7187,7.7187,7.7187,7.7187,7.7187,7.7187,7.7187,7.7695,7.8515,7.8945,7.9844,8.1054,8.1523,8.1953,8.2304,8.2304,8.2304,8.2304,8.2304,8.2304,8.2304,7.7101,7.7101,7.7101,7.7101,7.7101,7.7101,7.7101,7.7101,7.7101,7.7101,7.7101,7.7101,7.7101,7.7101,7.7101,7.7101,7.7101,7.7101,7.7101,7.7101,7.7101,7.7101,7.7101,7.7101,7.7101,7.7101,7.7101,7.7101,7.7101,7.7101,7.7101,7.7101,7.7101,7.7101,7.7101,7.7101,7.7101,7.7101,7.7101,7.7101,7.7101,7.7101,7.7101,7.7101,7.7101,7.7101,7.7101,7.7101,7.7101,7.7101,7.7101,7.7101,7.7101,7.7101,7.7101,7.7101,7.7101,7.7101,7.7101,7.7101,7.7101,7.7101,7.7101,7.7101,7.7101,7.7101,7.7101,7.7101,7.7101,7.7101,7.7101,7.7101,7.7101,7.7101,7.7101,7.7101,7.7101,7.7101,7.7101,7.7101,7.7101,7.7101,7.7101,7.7101,7.7101,7.7101,7.7101,7.7115,7.7097,7.7098,7.7143,7.7187,7.7187,7.7187,7.7187,7.7187,7.7187,7.7187,7.7187,7.7187,7.7226,7.7422,7.7969,7.8828,7.9648,8.0508,8.1367,8.2031,8.2304,8.2304,8.2304,8.2304,8.2304,8.2304,8.2304,8.2304,7.7101,7.7101,7.7101,7.7101,7.7101,7.7101,7.7101,7.7101,7.7101,7.7101,7.7101,7.7101,7.7101,7.7101,7.7101,7.7101,7.7101,7.7101,7.7101,7.7101,7.7101,7.7101,7.7101,7.7101,7.7101,7.7101,7.7101,7.7101,7.7101,7.7101,7.7101,7.7101,7.7101,7.7101,7.7101,7.7101,7.7101,7.7101,7.7101,7.7101,7.7101,7.7101,7.7101,7.7101,7.7101,7.7101,7.7101,7.7101,7.7101,7.7101,7.7101,7.7101,7.7101,7.7101,7.7101,7.7101,7.7101,7.7101,7.7101,7.7101,7.7101,7.7101,7.7101,7.7101,7.7101,7.7101,7.7101,7.7101,7.7101,7.7101,7.7101,7.7101,7.7101,7.7101,7.7101,7.7101,7.7101,7.7101,7.7101,7.7101,7.7101,7.7101,7.7101,7.7101,7.7101,7.7101,7.7101,7.7115,7.7097,7.7098,7.7143,7.7187,7.7187,7.7187,7.7187,7.7187,7.7187,7.7187,7.7187,7.7187,7.7226,7.8047,7.8867,7.9648,8.0547,8.1406,8.2226,8.2265,8.2304,8.2304,8.2304,8.2304,8.2304,8.2304,8.2304,8.2304,7.7101,7.7101,7.7101,7.7101,7.7101,7.7101,7.7101,7.7101,7.7101,7.7101,7.7101,7.7101,7.7101,7.7101,7.7101,7.7101,7.7101,7.7101,7.7101,7.7101,7.7101,7.7101,7.7101,7.7101,7.7101,7.7101,7.7101,7.7101,7.7101,7.7101,7.7101,7.7101,7.7101,7.7101,7.7101,7.7101,7.7101,7.7101,7.7101,7.7101,7.7101,7.7101,7.7101,7.7101,7.7101,7.7101,7.7101,7.7101,7.7101,7.7101,7.7101,7.7101,7.7101,7.7101,7.7101,7.7101,7.7101,7.7101,7.7101,7.7101,7.7101,7.7101,7.7101,7.7101,7.7101,7.7101,7.7101,7.7101,7.7101,7.7101,7.7101,7.7101,7.7101,7.7101,7.7101,7.7101,7.7101,7.7101,7.7101,7.7101,7.7101,7.7101,7.7101,7.7101,7.7101,7.7101,7.7101,7.7111,7.7089,7.7139,7.7185,7.7187,7.7187,7.7187,7.7187,7.7187,7.7187,7.7187,7.7187,7.7187,7.7226,7.8086,7.8945,7.9765,8.0625,8.1484,8.2304,8.2304,8.2304,8.2304,8.2304,8.2304,8.2304,8.2304,8.2304,8.2304,7.7101,7.7101,7.7101,7.7101,7.7101,7.7101,7.7101,7.7101,7.7101,7.7101,7.7101,7.7101,7.7101,7.7101,7.7101,7.7101,7.7101,7.7101,7.7101,7.7101,7.7101,7.7101,7.7101,7.7101,7.7101,7.7101,7.7101,7.7101,7.7101,7.7101,7.7101,7.7101,7.7101,7.7101,7.7101,7.7101,7.7101,7.7101,7.7101,7.7101,7.7101,7.7101,7.7101,7.7101,7.7101,7.7101,7.7101,7.7101,7.7101,7.7101,7.7101,7.7101,7.7101,7.7101,7.7101,7.7101,7.7101,7.7101,7.7101,7.7101,7.7101,7.7101,7.7101,7.7101,7.7101,7.7101,7.7101,7.7101,7.7101,7.7101,7.7101,7.7101,7.7101,7.7101,7.7101,7.7101,7.7101,7.7101,7.7101,7.7101,7.7101,7.7101,7.7101,7.7101,7.7101,7.7101,7.7101,7.711,7.7088,7.7141,7.7186,7.7187,7.7187,7.7187,7.7187,7.7187,7.7187,7.7187,7.7187,7.7344,7.7656,7.8476,7.9336,8.0156,8.1015,8.1758,8.2304,8.2304,8.2304,8.2304,8.2304,8.2304,8.2304,8.2304,8.2304,8.2304,7.7101,7.7101,7.7101,7.7101,7.7101,7.7101,7.7101,7.7101,7.7101,7.7101,7.7101,7.7101,7.7101,7.7101,7.7101,7.7101,7.7101,7.7101,7.7101,7.7101,7.7101,7.7101,7.7101,7.7101,7.7101,7.7101,7.7101,7.7101,7.7101,7.7101,7.7101,7.7101,7.7101,7.7101,7.7101,7.7101,7.7101,7.7101,7.7101,7.7101,7.7101,7.7101,7.7101,7.7101,7.7101,7.7101,7.7101,7.7101,7.7101,7.7101,7.7101,7.7101,7.7101,7.7101,7.7101,7.7101,7.7101,7.7101,7.7101,7.7101,7.7101,7.7101,7.7101,7.7101,7.7101,7.7101,7.7101,7.7101,7.7101,7.7101,7.7101,7.7101,7.7101,7.7101,7.7101,7.7101,7.7101,7.7101,7.7101,7.7101,7.7101,7.7101,7.7101,7.7101,7.7101,7.7101,7.7101,7.7115,7.7097,7.7143,7.7186,7.7187,7.7187,7.7187,7.7187,7.7187,7.7187,7.7187,7.7187,7.7656,7.8515,7.9336,8.0195,8.1054,8.1914,8.2304,8.2304,8.2304,8.2304,8.2304,8.2304,8.2304,8.2304,8.2304,8.2304,8.2304,7.7101,7.7101,7.7101,7.7101,7.7101,7.7101,7.7101,7.7101,7.7101,7.7101,7.7101,7.7101,7.7101,7.7101,7.7101,7.7101,7.7648,7.8001,7.8001,7.7453,7.7101,7.7101,7.7101,7.7101,7.7101,7.7101,7.7101,7.7101,7.7101,7.7101,7.7101,7.7101,7.7101,7.7101,7.7101,7.7101,7.7101,7.7101,7.7101,7.7101,7.7101,7.7101,7.7101,7.7101,7.7101,7.7101,7.7101,7.7101,7.7101,7.7101,7.7101,7.7101,7.7101,7.7101,7.7101,7.7101,7.7101,7.7101,7.7101,7.7101,7.7101,7.7101,7.7101,7.7101,7.7101,7.7101,7.7101,7.7101,7.7101,7.7101,7.7101,7.7101,7.7101,7.7101,7.7101,7.7101,7.7101,7.7101,7.7101,7.7101,7.7101,7.7101,7.7101,7.7101,7.7101,7.7101,7.7101,7.7115,7.7097,7.7139,7.7145,7.7187,7.7187,7.7187,7.7187,7.7187,7.7187,7.7187,7.7187,7.7656,7.8515,7.9336,8.0195,8.1054,8.1914,8.2304,8.2304,8.2304,8.2304,8.2304,8.2304,8.2304,8.2304,8.2304,8.2304,8.2304,7.7101,7.7101,7.7101,7.7101,7.7101,7.7101,7.7101,7.7101,7.7218,7.757,7.7609,7.7765,7.8077,7.8116,7.8116,7.8116,7.8624,7.8897,7.8897,7.8429,7.8116,7.8116,7.8116,7.7804,7.7101,7.7101,7.7101,7.7101,7.7101,7.7101,7.7101,7.7101,7.7101,7.7101,7.7101,7.7101,7.7101,7.7101,7.7101,7.7101,7.7101,7.7101,7.7101,7.7101,7.7101,7.7101,7.7101,7.7101,7.7101,7.7101,7.7101,7.7101,7.7101,7.7101,7.7101,7.7101,7.7101,7.7101,7.7101,7.7101,7.7101,7.7101,7.7101,7.7101,7.7101,7.7101,7.7101,7.7101,7.7101,7.7101,7.7101,7.7101,7.7101,7.7101,7.7101,7.7101,7.7101,7.7101,7.7101,7.7101,7.7101,7.7101,7.7101,7.7101,7.7101,7.7101,7.7107,7.7081,7.7097,7.714,7.7145,7.7187,7.7187,7.7187,7.7187,7.7187,7.7187,7.7187,7.7539,7.8164,7.8984,7.9844,8.0703,8.1523,8.207,8.2304,8.2304,8.2304,8.2304,8.2304,8.2304,8.2304,8.2304,8.2304,8.2304,8.2304,7.7101,7.7179,7.7218,7.7218,7.7296,7.7335,7.7335,7.7335,7.7609,7.8391,7.8508,7.8819,7.96,7.9717,7.9717,7.9717,7.9717,7.9717,7.9795,7.9756,7.9717,7.9717,7.9717,7.8975,7.7375,7.7257,7.7218,7.7218,7.714,7.7101,7.7101,7.7101,7.7101,7.7101,7.7101,7.7101,7.7101,7.7101,7.7101,7.7101,7.7101,7.7101,7.7101,7.7101,7.7101,7.7101,7.7101,7.7101,7.7101,7.7101,7.7101,7.7101,7.7101,7.7101,7.7101,7.7101,7.7101,7.7101,7.7101,7.7101,7.7101,7.7101,7.7101,7.7101,7.7101,7.7101,7.7101,7.7101,7.7101,7.7101,7.7101,7.7101,7.7101,7.7101,7.7101,7.7101,7.7101,7.7101,7.7101,7.7101,7.7101,7.7101,7.7101,7.7101,7.7101,7.7103,7.7116,7.7089,7.7099,7.7182,7.7186,7.7187,7.7187,7.7187,7.7187,7.7187,7.7187,7.7226,7.8086,7.8906,7.9726,8.0586,8.1484,8.2304,8.2304,8.2304,8.2304,8.2304,8.2304,8.2304,8.2304,8.2304,8.2304,8.2304,8.2304,8.2304,7.7101,7.7648,7.8118,7.8118,7.8663,7.9131,7.9131,7.9131,7.9209,7.9405,7.9405,7.9483,7.9678,7.9717,7.9717,7.9717,7.9717,7.999,8.0654,8.0068,7.9717,7.9717,7.9717,7.9522,7.9131,7.8468,7.8118,7.8118,7.7414,7.7101,7.7101,7.7101,7.7101,7.7101,7.7101,7.7101,7.7101,7.7101,7.7101,7.7101,7.7101,7.7101,7.7101,7.7101,7.7101,7.7101,7.7101,7.7101,7.7101,7.7101,7.7101,7.7101,7.7101,7.7101,7.7101,7.7101,7.7101,7.7101,7.7101,7.7101,7.7101,7.7101,7.7101,7.7101,7.7101,7.7101,7.7101,7.7101,7.7101,7.7101,7.7101,7.7101,7.7101,7.7101,7.7101,7.7101,7.7101,7.7101,7.7101,7.7101,7.7101,7.7101,7.7101,7.7101,7.7106,7.7117,7.7082,7.7131,7.7182,7.7184,7.7186,7.7187,7.7187,7.7187,7.7187,7.7187,7.7187,7.7226,7.8086,7.8906,7.9726,8.0586,8.1484,8.2304,8.2304,8.2304,8.2304,8.2304,8.2304,8.2304,8.2304,8.2304,8.2304,8.2304,8.2304,8.2304,7.835,7.8702,7.9014,7.9014,7.9405,7.9717,7.9717,7.9717,7.9834,8.0263,8.0302,8.0498,8.0888,8.0927,8.0927,8.0927,8.0927,8.1122,8.1591,8.12,8.0927,8.0927,8.0927,8.0927,8.0927,8.0107,7.9445,7.9014,7.8546,7.8116,7.7726,7.7726,7.7492,7.7101,7.7101,7.7101,7.7101,7.7101,7.7101,7.7101,7.7101,7.7101,7.7101,7.7101,7.7101,7.7101,7.7101,7.7101,7.7101,7.7101,7.7101,7.7101,7.7101,7.7101,7.7101,7.7101,7.7101,7.7101,7.7101,7.7101,7.7101,7.7101,7.7101,7.7101,7.7101,7.7101,7.7101,7.7101,7.7101,7.7101,7.7101,7.7101,7.7101,7.7101,7.7101,7.7101,7.7101,7.7101,7.7101,7.7101,7.7101,7.7104,7.7111,7.7112,7.7117,7.7091,7.7134,7.7178,7.7184,7.7186,7.7187,7.7187,7.7187,7.7187,7.7187,7.7617,7.7812,7.7812,7.8672,7.9492,8.0351,8.1211,8.1875,8.2304,8.2304,8.2304,8.2304,8.2304,8.2304,8.2304,8.2304,8.2304,8.2304,8.2304,8.2304,8.2304,7.9685,7.9801,7.9916,7.9916,8.0031,8.0146,8.0146,8.0146,8.042,8.1122,8.12,8.1513,8.2214,8.2292,8.2292,8.2292,8.2292,8.2292,8.2292,8.2292,8.2292,8.2292,8.2292,8.2292,8.2292,8.1591,8.081,7.9912,7.9756,7.9326,7.8625,7.8625,7.8233,7.7531,7.7375,7.7335,7.7296,7.7179,7.7101,7.7101,7.7101,7.7101,7.7101,7.7101,7.7101,7.7101,7.7101,7.7101,7.7101,7.7101,7.7101,7.7101,7.7101,7.7101,7.7101,7.7101,7.7101,7.7101,7.7101,7.7101,7.7101,7.7101,7.7101,7.7101,7.7101,7.7101,7.7101,7.7101,7.7101,7.7101,7.7101,7.7101,7.7101,7.7101,7.7101,7.7101,7.7101,7.7101,7.7101,7.7101,7.7101,7.7106,7.7118,7.7082,7.7088,7.7097,7.7143,7.7184,7.7185,7.7187,7.7187,7.7187,7.7187,7.7265,7.7422,7.8125,7.8633,7.8945,7.9609,8.0312,8.1015,8.1914,8.2304,8.2304,8.2304,8.2304,8.2304,8.2304,8.2304,8.2304,8.2304,8.2304,8.2304,8.2304,8.2304,8.2304,7.9712,8.029,8.0829,8.0829,8.1443,8.194,8.194,8.194,8.198,8.2098,8.2137,8.2176,8.2292,8.2292,8.2292,8.2292,8.2292,8.2292,8.2292,8.2292,8.2292,8.2292,8.2292,8.2292,8.2292,8.2176,8.1708,8.0811,8.0068,7.9639,7.9522,7.9522,7.9444,7.9326,7.8546,7.8235,7.8157,7.7414,7.7101,7.7101,7.7101,7.7101,7.7101,7.7101,7.7101,7.7101,7.7101,7.7101,7.7101,7.7101,7.7101,7.7101,7.7101,7.7101,7.7101,7.7101,7.7101,7.7101,7.7101,7.7101,7.7101,7.7101,7.7101,7.7101,7.7101,7.7101,7.7101,7.7101,7.7101,7.7101,7.7101,7.7101,7.7101,7.7101,7.7101,7.7101,7.7101,7.7101,7.7101,7.7101,7.7101,7.7101,7.7104,7.7116,7.7088,7.7097,7.7143,7.7186,7.7187,7.7187,7.7187,7.7187,7.7187,7.7578,7.832,7.8437,7.9219,8.0664,8.0781,8.0898,8.1015,8.1914,8.2304,8.2304,8.2304,8.2304,8.2304,8.2304,8.2304,8.2304,8.2304,8.2304,8.2304,8.2304,8.2304,8.2304,8.116,8.1469,8.174,8.174,8.2042,8.2305,8.2305,8.2298,8.2292,8.2292,8.2292,8.2292,8.2292,8.2292,8.2292,8.2292,8.2292,8.2292,8.2292,8.2292,8.2292,8.2292,8.2292,8.2292,8.2292,8.2292,8.2098,8.1747,8.1356,8.0888,8.042,8.042,8.0185,7.9678,7.9287,7.9131,7.9053,7.8194,7.7843,7.7765,7.7296,7.7101,7.7101,7.7101,7.7101,7.7101,7.7101,7.7101,7.7101,7.7101,7.7101,7.7101,7.7101,7.7101,7.7101,7.7101,7.7101,7.7101,7.7101,7.7101,7.7101,7.7101,7.7101,7.7101,7.7101,7.7101,7.7101,7.7101,7.7101,7.7101,7.7101,7.7101,7.7101,7.7101,7.7101,7.7101,7.7101,7.7101,7.7101,7.7101,7.7108,7.7117,7.7085,7.7133,7.7141,7.7146,7.7186,7.7187,7.7187,7.7187,7.7187,7.7187,7.7187,7.7617,7.8476,7.8945,7.9805,8.1015,8.1484,8.1719,8.1758,8.2109,8.2304,8.2304,8.2304,8.2304,8.2304,8.2304,8.2304,8.2304,8.2304,8.2304,8.2304,8.2304,8.2304,8.2304]}]]